[[{"header":{"parameterUnit":"m.s-1","parameterCategory":1,"la1":30.6,"la2":28.766,"lo1":-90.7593,"lo2":-88.6598,"dx":0.0162,"dy":0.0183,"nx":116,"ny":114,"refTime":"2023-01-14T06:00:00:Z","depth":0,"parameterNumber":2,"parameterNumberName":"U-component_of_WINDS"},"data":[0.0,0.0,0.0,0.0,0.0,0.0,0.0,0.0,0.0,0.0,0.0,0.0,0.0,0.0,0.0,0.0,0.0,0.0,0.0,0.0,0.0,0.0,0.0,0.0,0.0,0.0,0.0,0.0,0.0,0.0,0.0,0.0,0.0,0.0,0.0,0.0,0.0,0.0,0.0,0.0,0.0,0.0,0.0,0.0,0.0,0.0,0.0,0.0,0.0,0.0,0.0,0.0,0.0,0.0,0.0,0.0,0.0,0.0,0.0,0.0,0.0,0.0,0.0,0.0,0.0,0.0,0.0,0.0,0.0,0.0,0.0,0.0,0.0,0.0,0.0,0.0,0.0,0.0,0.0,0.0,0.0,0.0,0.0,0.0,0.0,0.0,0.0,0.0,0.0,0.0,0.0,0.0,0.0,0.0,0.0,0.0,0.0,0.0,0.0,0.0,0.0,0.0,0.0,0.0,0.0,0.0,0.0,0.0,0.0,0.0,0.0,0.0,0.0,0.0,0.0,0.0,0.0,0.0,0.0,0.0,0.0,0.0,0.0,0.0,0.0,0.0,0.0,0.0,0.0,0.0,0.0,0.0,0.0,0.0,0.0,0.0,0.0,0.0,0.0,0.0,0.0,0.0,0.0,0.0,0.0,0.0,0.0,0.0,0.0,0.0,0.0,0.0,0.0,0.0,0.0,0.0,0.0,0.0,0.0,0.0,0.0,0.0,0.0,0.0,0.0,0.0,0.0,0.0,0.0,0.0,0.0,0.0,0.0,0.0,0.0,0.0,0.0,0.0,0.0,0.0,0.0,0.0,0.0,0.0,0.0,0.0,0.0,0.0,0.0,0.0,0.0,0.0,0.0,0.0,0.0,0.0,0.0,0.0,0.0,0.0,0.0,0.0,0.0,0.0,0.0,0.0,0.0,0.0,0.0,0.0,0.0,0.0,0.0,0.0,0.0,0.0,0.0,0.0,0.0,0.0,0.0,0.0,0.0,0.0,0.0,0.0,0.0,0.0,0.0,0.0,0.0,0.0,0.0,0.0,0.0,0.0,0.0,0.0,0.0,0.0,0.0,0.0,0.0,0.0,0.0,0.0,0.0,0.0,0.0,0.0,0.0,0.0,0.0,0.0,0.0,0.0,0.0,0.0,0.0,0.0,0.0,0.0,0.0,0.0,0.0,0.0,0.0,0.0,0.0,0.0,0.0,0.0,0.0,0.0,0.0,0.0,0.0,0.0,0.0,0.0,0.0,0.0,0.0,0.0,0.0,0.0,0.0,0.0,0.0,0.0,0.0,0.0,0.0,0.0,0.0,0.0,0.0,0.0,0.0,0.0,0.0,0.0,0.0,0.0,0.0,0.0,0.0,0.0,0.0,0.0,0.0,0.0,0.0,0.0,0.0,0.0,0.0,0.0,0.0,0.0,0.0,0.0,0.0,0.0,0.0,0.0,0.0,0.0,0.0,0.0,0.0,0.0,0.0,0.0,0.0,0.0,0.0,0.0,0.0,0.0,0.0,0.0,0.0,0.0,0.0,0.0,0.0,0.0,0.0,0.0,0.0,0.0,0.0,0.0,0.0,0.0,0.0,0.0,0.0,0.0,0.0,0.0,0.0,0.0,0.0,0.0,0.0,0.0,0.0,0.0,0.0,0.0,0.0,0.0,0.0,0.0,0.0,0.0,0.0,0.0,0.0,0.0,0.0,0.0,0.0,0.0,0.0,0.0,0.0,0.0,0.0,0.0,0.0,0.0,0.0,0.0,0.0,0.0,0.0,0.0,0.0,0.0,0.0,0.0,0.0,0.0,0.0,0.0,0.0,0.0,0.0,0.0,0.0,0.0,0.0,0.0,0.0,0.0,0.0,0.0,0.0,0.0,0.0,0.0,0.0,0.0,0.0,0.0,0.0,0.0,0.0,0.0,0.0,0.0,0.0,0.0,0.0,0.0,0.0,0.0,0.0,0.0,0.0,0.0,0.0,0.0,0.0,0.0,0.0,0.0,0.0,0.0,0.0,0.0,0.0,0.0,0.0,0.0,0.0,0.0,0.0,0.0,0.0,0.0,0.0,0.0,0.0,0.0,0.0,0.0,0.0,0.0,0.0,0.0,0.0,0.0,0.0,0.0,0.0,0.0,0.0,0.0,0.0,0.0,0.0,0.0,0.0,0.0,0.0,0.0,0.0,0.0,0.0,0.0,0.0,0.0,0.0,0.0,0.0,0.0,0.0,0.0,0.0,0.0,0.0,0.0,0.0,0.0,0.0,0.0,0.0,0.0,0.0,0.0,0.0,0.0,0.0,0.0,0.0,0.0,0.0,0.0,0.0,0.0,0.0,0.0,0.0,0.0,0.0,0.0,0.0,0.0,0.0,0.0,0.0,0.0,0.0,0.0,0.0,0.0,0.0,0.0,0.0,0.0,0.0,0.0,0.0,0.0,0.0,0.0,0.0,0.0,0.0,0.0,0.0,0.0,0.0,0.0,0.0,0.0,0.0,0.0,0.0,0.0,0.0,0.0,0.0,0.0,0.0,0.0,0.0,0.0,0.0,0.0,0.0,0.0,0.0,0.0,0.0,0.0,0.0,0.0,0.0,0.0,0.0,0.0,0.0,0.0,0.0,0.0,0.0,0.0,0.0,0.0,0.0,0.0,0.0,0.0,0.0,0.0,0.0,0.0,0.0,0.0,0.0,0.0,0.0,0.0,0.0,0.0,0.0,0.0,0.0,0.0,0.0,0.0,0.0,0.0,0.0,0.0,0.0,0.0,0.0,0.0,0.0,0.0,0.0,0.0,0.0,0.0,0.0,0.0,0.0,0.0,0.0,0.0,0.0,0.0,0.0,0.0,0.0,0.0,0.0,0.0,0.0,0.0,0.0,0.0,0.0,0.0,0.0,0.0,0.0,0.0,0.0,0.0,0.0,0.0,0.0,0.0,0.0,0.0,0.0,0.0,0.0,0.0,0.0,0.0,0.0,0.0,0.0,0.0,0.0,0.0,0.0,0.0,0.0,0.0,0.0,0.0,0.0,0.0,0.0,0.0,0.0,0.0,0.0,0.0,0.0,0.0,0.0,0.0,0.0,0.0,0.0,0.0,0.0,0.0,0.0,0.0,0.0,0.0,0.0,0.0,0.0,0.0,0.0,0.0,0.0,0.0,0.0,0.0,0.0,0.0,0.0,0.0,0.0,0.0,0.0,0.0,0.0,0.0,0.0,0.0,0.0,0.0,0.0,0.0,0.0,0.0,0.0,0.0,0.0,0.0,0.0,0.0,0.0,0.0,0.0,0.0,0.0,0.0,0.0,0.0,0.0,0.0,0.0,0.0,0.0,0.0,0.0,0.0,0.0,0.0,0.0,0.0,0.0,0.0,0.0,0.0,0.0,0.0,0.0,0.0,0.0,0.0,0.0,0.0,0.0,0.0,0.0,0.0,0.0,0.0,0.0,0.0,0.0,0.0,0.0,0.0,0.0,0.0,0.0,0.0,0.0,0.0,0.0,0.0,0.0,0.0,0.0,0.0,0.0,0.0,0.0,0.0,0.0,0.0,0.0,0.0,0.0,0.0,0.0,0.0,0.0,0.0,0.0,0.0,0.0,0.0,0.0,0.0,0.0,0.0,0.0,0.0,0.0,0.0,0.0,0.0,0.0,0.0,0.0,0.0,0.0,0.0,0.0,0.0,0.0,0.0,0.0,0.0,0.0,0.0,0.0,0.0,0.0,0.0,0.0,0.0,0.0,0.0,0.0,0.0,0.0,0.0,0.0,0.0,0.0,0.0,0.0,0.0,0.0,0.0,0.0,0.0,0.0,0.0,0.0,0.0,0.0,0.0,0.0,0.0,0.0,0.0,0.0,0.0,0.0,0.0,0.0,0.0,0.0,0.0,0.0,0.0,0.0,0.0,0.0,0.0,0.0,0.0,0.0,0.0,0.0,0.0,0.0,0.0,0.0,0.0,0.0,0.0,0.0,0.0,0.0,0.0,0.0,0.0,0.0,0.0,0.0,0.0,0.0,0.0,0.0,0.0,0.0,0.0,0.0,0.0,0.0,0.0,0.0,0.0,0.0,0.0,0.0,0.0,0.0,0.0,0.0,0.0,0.0,0.0,0.0,0.0,0.0,0.0,0.0,0.0,0.0,0.0,0.0,0.0,0.0,0.0,0.0,0.0,0.0,0.0,0.0,0.0,0.0,0.0,0.0,0.0,0.0,0.0,0.0,0.0,0.0,0.0,0.0,0.0,0.0,0.0,0.0,0.0,0.0,0.0,0.0,0.0,0.0,0.0,0.0,0.0,0.0,0.0,0.0,0.0,0.0,0.0,0.0,0.0,0.0,0.0,0.0,0.0,0.0,0.0,0.0,0.0,0.0,0.0,0.0,0.0,0.0,0.0,0.0,0.0,0.0,0.0,0.0,0.0,0.0,0.0,0.0,0.0,0.0,0.0,0.0,0.0,0.0,0.0,0.0,0.0,0.0,0.0,0.0,0.0,0.0,0.0,0.0,0.0,0.0,0.0,0.0,0.0,0.0,0.0,0.0,0.0,0.0,0.0,0.0,0.0,0.0,0.0,0.0,0.0,0.0,0.0,0.0,0.0,0.0,0.0,0.0,0.0,0.0,0.0,0.0,0.0,0.0,0.0,0.0,0.0,0.0,0.0,0.0,0.0,0.0,0.0,0.0,0.0,0.0,0.0,0.0,0.0,0.0,0.0,0.0,0.0,0.0,0.0,0.0,0.0,0.0,0.0,0.0,0.0,0.0,0.0,0.0,0.0,0.0,0.0,0.0,0.0,0.0,0.0,0.0,0.0,0.0,0.0,0.0,0.0,0.0,0.0,0.0,0.0,0.0,0.0,0.0,0.0,0.0,0.0,0.0,0.0,0.0,0.0,0.0,0.0,0.0,0.0,0.0,0.0,0.0,0.0,0.0,0.0,0.0,0.0,0.0,0.0,0.0,0.0,0.0,0.0,0.0,0.0,0.0,0.0,0.0,0.0,0.0,0.0,0.0,0.0,0.0,0.0,0.0,0.0,0.0,0.0,0.0,0.0,0.0,0.0,0.0,0.0,0.0,0.0,0.0,0.0,0.0,0.0,0.0,0.0,0.0,0.0,0.0,0.0,0.0,0.0,0.0,0.0,0.0,0.0,0.0,0.0,0.0,0.0,0.0,0.0,0.0,0.0,0.0,0.0,0.0,0.0,0.0,0.0,0.0,0.0,0.0,0.0,0.0,0.0,0.0,0.0,0.0,0.0,0.0,0.0,0.0,0.0,0.0,0.0,0.0,0.0,0.0,0.0,0.0,0.0,0.0,0.0,0.0,0.0,0.0,0.0,0.0,0.0,0.0,0.0,0.0,0.0,0.0,0.0,0.0,0.0,0.0,0.0,0.0,0.0,0.0,0.0,0.0,0.0,0.0,0.0,0.0,0.0,0.0,0.0,0.0,0.0,0.0,0.0,0.0,0.0,0.0,0.0,0.0,0.0,0.0,0.0,0.0,0.0,0.0,0.0,0.0,0.0,0.0,0.0,0.0,0.0,0.0,0.0,0.0,0.0,0.0,0.0,0.0,0.0,0.0,0.0,0.0,0.0,0.0,0.0,0.0,0.0,0.0,0.0,0.0,0.0,0.0,0.0,0.0,0.0,0.0,0.0,0.0,0.0,0.0,0.0,0.0,0.0,0.0,0.0,0.0,0.0,0.0,0.0,0.0,0.0,0.0,0.0,0.0,0.0,0.0,0.0,0.0,0.0,0.0,0.0,0.0,0.0,0.0,0.0,0.0,0.0,0.0,0.0,0.0,0.0,0.0,0.0,0.0,0.0,0.0,0.0,0.0,0.0,0.0,0.0,0.0,0.0,0.0,0.0,0.0,0.0,0.0,0.0,0.0,0.0,0.0,0.0,0.0,0.0,0.0,0.0,0.0,0.0,0.0,0.0,0.0,0.0,0.0,0.0,0.0,0.0,0.0,0.0,0.0,0.0,0.0,0.0,0.0,0.0,0.0,0.0,0.0,0.0,0.0,0.0,0.0,0.0,0.0,0.0,0.0,0.0,0.0,0.0,0.0,0.0,0.0,0.0,0.0,0.0,0.0,0.0,0.0,0.0,0.0,0.0,0.0,0.0,0.0,0.0,-5.269,0.0,0.0,0.0,0.0,0.0,0.0,0.0,0.0,0.0,0.0,0.0,0.0,0.0,0.0,0.0,0.0,0.0,0.0,0.0,0.0,0.0,0.0,0.0,0.0,0.0,0.0,0.0,0.0,0.0,0.0,0.0,0.0,0.0,0.0,0.0,0.0,0.0,0.0,0.0,0.0,0.0,0.0,0.0,0.0,0.0,0.0,0.0,0.0,0.0,0.0,0.0,0.0,0.0,0.0,0.0,0.0,0.0,0.0,0.0,0.0,0.0,0.0,0.0,0.0,0.0,0.0,0.0,0.0,0.0,0.0,0.0,0.0,0.0,0.0,0.0,0.0,0.0,0.0,0.0,0.0,0.0,0.0,0.0,0.0,0.0,0.0,0.0,0.0,0.0,0.0,0.0,0.0,0.0,0.0,0.0,0.0,0.0,0.0,0.0,0.0,0.0,0.0,0.0,0.0,0.0,0.0,0.0,0.0,0.0,0.0,0.0,0.0,0.0,0.0,0.0,0.0,-5.2652,0.0,0.0,0.0,0.0,0.0,0.0,0.0,0.0,0.0,0.0,0.0,0.0,0.0,0.0,0.0,0.0,0.0,0.0,0.0,0.0,0.0,0.0,0.0,0.0,0.0,0.0,0.0,0.0,0.0,0.0,0.0,0.0,0.0,0.0,0.0,0.0,0.0,0.0,0.0,0.0,0.0,0.0,0.0,0.0,0.0,0.0,0.0,0.0,0.0,0.0,0.0,0.0,0.0,0.0,0.0,0.0,0.0,0.0,0.0,0.0,0.0,0.0,0.0,0.0,0.0,0.0,0.0,0.0,0.0,0.0,0.0,0.0,0.0,0.0,0.0,0.0,0.0,0.0,0.0,0.0,0.0,0.0,0.0,0.0,0.0,0.0,0.0,0.0,0.0,0.0,0.0,0.0,0.0,0.0,0.0,0.0,0.0,0.0,0.0,0.0,0.0,0.0,0.0,0.0,0.0,0.0,0.0,0.0,-5.3148,-5.3531,-5.3683,-5.3378,-5.3722,-5.4486,-5.3645,-5.3989,-5.5021,-5.2919,0.0,0.0,0.0,0.0,0.0,0.0,0.0,0.0,0.0,0.0,0.0,0.0,0.0,0.0,0.0,0.0,0.0,0.0,0.0,0.0,0.0,0.0,0.0,0.0,0.0,0.0,0.0,0.0,0.0,0.0,0.0,0.0,0.0,0.0,0.0,0.0,0.0,0.0,0.0,0.0,0.0,0.0,0.0,0.0,0.0,0.0,0.0,0.0,0.0,0.0,0.0,0.0,0.0,0.0,0.0,0.0,0.0,0.0,0.0,0.0,0.0,0.0,0.0,0.0,0.0,0.0,0.0,0.0,0.0,0.0,0.0,0.0,0.0,0.0,0.0,0.0,0.0,0.0,0.0,0.0,0.0,0.0,0.0,0.0,0.0,0.0,-5.525,-5.525,0.0,0.0,0.0,0.0,0.0,0.0,0.0,0.0,0.0,0.0,0.0,0.0,0.0,-5.3913,-5.4906,-5.5594,-5.5938,-5.5938,-5.6052,-5.6511,-5.716,-5.5708,-5.5517,-5.6243,-5.5403,0.0,-5.4256,-5.3913,0.0,0.0,0.0,0.0,0.0,0.0,0.0,0.0,0.0,0.0,0.0,0.0,0.0,0.0,0.0,0.0,0.0,0.0,0.0,0.0,0.0,0.0,0.0,0.0,0.0,0.0,0.0,0.0,0.0,0.0,0.0,0.0,0.0,0.0,0.0,0.0,0.0,0.0,0.0,0.0,0.0,0.0,0.0,0.0,0.0,0.0,0.0,0.0,0.0,0.0,0.0,0.0,0.0,0.0,0.0,0.0,0.0,0.0,0.0,0.0,0.0,0.0,0.0,0.0,0.0,0.0,0.0,0.0,0.0,0.0,0.0,0.0,0.0,0.0,0.0,0.0,0.0,0.0,0.0,0.0,0.0,0.0,0.0,0.0,0.0,-5.6052,-5.6052,-5.6052,-5.4906,-5.4104,0.0,0.0,0.0,0.0,0.0,0.0,0.0,0.0,0.0,-5.5479,-5.5517,-5.5938,-5.6816,-5.716,-5.7313,-5.7313,-5.7313,-5.7542,-5.7886,-5.7122,-5.7008,-5.7351,-5.7428,-5.7275,-5.6816,-5.5403,-5.4677,-5.4371,0.0,0.0,0.0,0.0,-5.376,-5.3913,0.0,0.0,0.0,0.0,0.0,0.0,0.0,0.0,0.0,0.0,0.0,0.0,0.0,0.0,0.0,0.0,0.0,0.0,0.0,0.0,0.0,0.0,0.0,0.0,0.0,0.0,0.0,0.0,0.0,0.0,0.0,0.0,0.0,0.0,0.0,0.0,0.0,0.0,0.0,0.0,0.0,0.0,0.0,0.0,0.0,0.0,0.0,0.0,0.0,0.0,0.0,0.0,0.0,0.0,0.0,0.0,0.0,0.0,0.0,0.0,0.0,0.0,0.0,0.0,0.0,0.0,0.0,0.0,0.0,0.0,0.0,0.0,0.0,0.0,0.0,0.0,0.0,-5.6931,-5.6931,-5.6931,-5.5823,-5.5059,0.0,0.0,0.0,0.0,0.0,0.0,-5.6052,-5.6052,-5.6396,-5.7199,-5.7237,-5.7657,-5.8536,-5.8536,-5.8536,-5.8536,-5.8536,-5.8651,-5.8842,-5.8383,-5.8421,-5.8842,-5.9033,-5.9324,-5.9568,-5.7542,-5.6778,-5.6855,-5.6282,-5.5785,-5.5441,-5.5899,-5.6052,-5.6282,0.0,0.0,0.0,0.0,0.0,0.0,0.0,0.0,0.0,0.0,0.0,0.0,0.0,0.0,0.0,0.0,0.0,0.0,0.0,0.0,0.0,0.0,0.0,0.0,0.0,0.0,0.0,0.0,0.0,0.0,0.0,0.0,0.0,0.0,0.0,0.0,0.0,0.0,0.0,0.0,0.0,0.0,0.0,0.0,0.0,0.0,0.0,0.0,0.0,0.0,0.0,0.0,0.0,0.0,0.0,0.0,0.0,0.0,0.0,0.0,0.0,0.0,0.0,0.0,0.0,0.0,0.0,0.0,0.0,0.0,0.0,0.0,0.0,0.0,0.0,0.0,0.0,0.0,0.0,-5.781,-5.7772,0.0,0.0,0.0,0.0,-5.7695,-5.7734,-5.7772,-5.7772,-5.7772,-5.8154,-5.8956,-5.8981,-5.9376,-6.0269,-6.0269,-6.0269,-6.0269,-6.0269,-6.0676,-6.1363,-5.9759,-5.9911,-6.1325,-5.9759,-5.9988,-6.1402,-6.0523,-5.9224,-5.781,-5.7772,-5.6816,-5.5594,-5.7199,-5.7772,-5.8001,0.0,0.0,0.0,0.0,0.0,0.0,0.0,0.0,0.0,0.0,0.0,0.0,0.0,0.0,0.0,0.0,0.0,0.0,0.0,0.0,0.0,0.0,0.0,0.0,0.0,0.0,0.0,0.0,0.0,0.0,0.0,0.0,0.0,0.0,0.0,0.0,0.0,0.0,0.0,0.0,0.0,0.0,0.0,0.0,0.0,0.0,0.0,0.0,0.0,0.0,0.0,0.0,0.0,0.0,0.0,0.0,0.0,0.0,0.0,0.0,0.0,0.0,0.0,0.0,0.0,0.0,0.0,0.0,0.0,0.0,0.0,0.0,0.0,0.0,0.0,0.0,0.0,0.0,0.0,-5.9453,-5.8574,0.0,-5.8612,-5.8689,-5.8689,-5.8689,-5.9185,-5.9491,-5.9491,-5.9491,-5.9644,-5.9911,-5.995,-6.0102,-6.0422,-6.0905,-6.1172,-6.1172,-6.1745,-6.2166,-6.2433,-6.1822,-6.186,-6.2433,-6.2395,-6.2701,-6.3274,-6.3503,-6.2624,-6.1134,-6.1134,-6.0752,-6.0293,-6.0905,-6.1134,-6.1211,0.0,0.0,0.0,0.0,0.0,0.0,0.0,0.0,0.0,0.0,0.0,0.0,0.0,0.0,0.0,0.0,0.0,0.0,0.0,0.0,0.0,0.0,0.0,0.0,0.0,0.0,0.0,0.0,0.0,0.0,0.0,0.0,0.0,0.0,0.0,0.0,0.0,0.0,0.0,0.0,0.0,0.0,-5.7886,0.0,0.0,0.0,0.0,0.0,0.0,0.0,0.0,0.0,0.0,0.0,0.0,0.0,0.0,0.0,0.0,0.0,0.0,0.0,0.0,0.0,0.0,0.0,0.0,0.0,0.0,0.0,0.0,0.0,0.0,0.0,0.0,0.0,0.0,0.0,-5.9759,-6.0332,-5.9415,-5.8956,-5.9491,-5.9529,-5.9644,-5.9911,-6.0485,-6.079,-6.079,-6.1096,-6.1096,-6.079,-6.1096,-6.1249,-6.1249,-6.1784,-6.2051,-6.2051,-6.293,-6.335,-6.335,-6.335,-6.3503,-6.377,-6.4076,-6.4359,-6.4649,-6.5184,-6.4764,-6.3732,-6.3427,-6.3159,-6.2892,-6.2892,-6.2892,-6.293,0.0,0.0,0.0,0.0,0.0,0.0,0.0,0.0,0.0,0.0,0.0,0.0,0.0,0.0,0.0,0.0,0.0,0.0,0.0,0.0,0.0,0.0,0.0,0.0,0.0,0.0,0.0,0.0,0.0,0.0,0.0,0.0,0.0,0.0,0.0,0.0,0.0,0.0,0.0,0.0,0.0,0.0,-6.0346,0.0,0.0,0.0,0.0,0.0,0.0,0.0,0.0,0.0,0.0,0.0,0.0,0.0,0.0,0.0,0.0,0.0,0.0,0.0,0.0,0.0,0.0,0.0,0.0,0.0,0.0,0.0,0.0,0.0,0.0,0.0,0.0,0.0,-6.046,-6.0422,-6.0422,-6.0422,-6.0422,-6.0422,-6.046,-6.046,-6.0752,-6.1593,-6.1631,-6.1631,-6.1631,-6.2433,-6.251,-6.1669,-6.2471,-6.2892,-6.2892,-6.293,-6.293,-6.2968,-6.3809,-6.4244,-6.4244,-6.4244,-6.4649,-6.5375,-6.4588,-6.4688,-6.5413,-6.5413,-6.5413,-6.5337,-6.4535,-6.3732,-6.2968,-6.2968,-6.2968,-6.3121,0.0,0.0,0.0,0.0,0.0,0.0,0.0,0.0,0.0,0.0,0.0,0.0,0.0,0.0,0.0,0.0,0.0,0.0,0.0,0.0,0.0,0.0,0.0,0.0,0.0,0.0,0.0,0.0,0.0,0.0,0.0,0.0,0.0,0.0,0.0,0.0,0.0,0.0,0.0,0.0,0.0,0.0,-6.1172,0.0,0.0,0.0,0.0,0.0,0.0,0.0,0.0,0.0,0.0,0.0,0.0,0.0,0.0,0.0,0.0,0.0,0.0,0.0,0.0,0.0,0.0,0.0,0.0,0.0,0.0,0.0,0.0,0.0,0.0,0.0,0.0,-6.1287,-6.1287,-6.0752,-6.0422,-6.0422,-6.0422,-6.0637,-6.1211,-6.1287,-6.1631,-6.2471,-6.2548,-6.2548,-6.2548,-6.2777,-6.2777,-6.2548,-6.2777,-6.2892,-6.2892,-6.3541,-6.3847,-6.3847,-6.4688,-6.507,-6.507,-6.507,-6.5184,-6.5375,-6.5184,-6.5184,-6.5413,-6.5413,-6.5413,-6.5375,-6.5146,-6.4917,-6.4726,-6.4726,-6.4726,-6.4764,0.0,0.0,0.0,0.0,0.0,0.0,0.0,0.0,0.0,0.0,0.0,0.0,0.0,0.0,0.0,0.0,0.0,0.0,0.0,0.0,0.0,0.0,0.0,0.0,0.0,0.0,0.0,0.0,0.0,0.0,0.0,0.0,0.0,0.0,0.0,0.0,0.0,0.0,0.0,0.0,0.0,0.0,-6.1516,-6.0714,-6.0102,-5.9644,-5.9644,-5.9338,-5.9033,-5.9491,0.0,0.0,0.0,0.0,0.0,0.0,0.0,0.0,0.0,0.0,0.0,0.0,0.0,0.0,0.0,0.0,0.0,0.0,0.0,0.0,0.0,0.0,0.0,0.0,-6.2051,-6.2701,-6.2701,-6.1363,-6.0537,-6.0867,-6.0905,-6.1211,-6.2051,-6.2128,-6.251,-6.3388,-6.3427,-6.3427,-6.3427,-6.377,-6.3809,-6.3465,-6.377,-6.3962,-6.3962,-6.4458,-6.4688,-6.4688,-6.5184,-6.5413,-6.5413,-6.5413,-6.5413,-6.5413,-6.5413,-6.5413,-6.5413,-6.5413,-6.5413,0.0,0.0,0.0,0.0,0.0,-6.5413,-6.5413,0.0,0.0,0.0,0.0,0.0,0.0,0.0,0.0,0.0,0.0,0.0,0.0,0.0,0.0,0.0,0.0,0.0,0.0,0.0,0.0,0.0,0.0,0.0,0.0,0.0,0.0,0.0,0.0,0.0,0.0,0.0,0.0,0.0,0.0,0.0,0.0,0.0,0.0,0.0,0.0,0.0,0.0,-6.1516,-6.0714,-6.0422,-6.0422,-6.0485,-6.0537,-6.0575,-6.0766,0.0,0.0,0.0,0.0,0.0,0.0,0.0,0.0,0.0,0.0,0.0,0.0,0.0,0.0,0.0,0.0,0.0,0.0,0.0,0.0,0.0,0.0,0.0,0.0,-6.4129,-6.4206,-6.4206,-6.2166,-6.0943,-6.1669,-6.1745,-6.2089,-6.2968,-6.3045,-6.3388,-6.4282,-6.4359,-6.4359,-6.4359,0.0,0.0,0.0,0.0,-6.5413,-6.5413,-6.5413,-6.5413,-6.5413,-6.5413,-6.5413,-6.5413,-6.5413,-6.5413,-6.5413,-6.5413,-6.5413,-6.5413,-6.5413,-6.5413,-6.5413,-6.5413,-6.5413,-6.5413,-6.5413,-6.5413,-6.5413,0.0,0.0,0.0,0.0,0.0,0.0,0.0,0.0,0.0,0.0,0.0,0.0,0.0,0.0,0.0,0.0,0.0,0.0,0.0,0.0,0.0,0.0,0.0,0.0,0.0,0.0,0.0,0.0,0.0,0.0,0.0,0.0,0.0,0.0,0.0,0.0,0.0,0.0,0.0,0.0,0.0,0.0,-6.1516,-6.0714,-6.0422,-6.0499,-6.1134,-6.1363,-6.1593,-6.2983,-6.3006,-6.2586,-6.3427,0.0,0.0,0.0,0.0,0.0,0.0,0.0,0.0,0.0,0.0,0.0,0.0,0.0,0.0,0.0,0.0,0.0,0.0,0.0,0.0,-6.3197,-6.3732,-6.4206,-6.4206,-6.3159,-6.2471,-6.2624,-6.2662,-6.3006,-6.3847,-6.3962,-6.4267,-6.5108,-6.5184,-6.5184,-6.5184,-6.5337,-6.5337,-6.5184,-6.5337,-6.5413,-6.5413,-6.5413,-6.5413,-6.5413,0.0,0.0,-6.5413,-6.5413,-6.5413,-6.5413,-6.5413,-6.5413,-6.5413,-6.5413,-6.5413,-6.5413,-6.5413,-6.5413,-6.5413,-6.5413,-6.5413,-6.5413,0.0,0.0,0.0,0.0,0.0,0.0,0.0,0.0,0.0,0.0,0.0,0.0,0.0,0.0,0.0,0.0,0.0,0.0,0.0,0.0,0.0,0.0,0.0,0.0,0.0,0.0,0.0,0.0,0.0,0.0,0.0,0.0,0.0,0.0,0.0,0.0,0.0,0.0,0.0,0.0,0.0,0.0,-6.2204,-6.1784,-6.1631,-6.1707,-6.2128,-6.2242,-6.2395,-6.3274,-6.3274,-6.3045,-6.3923,-6.3885,-6.3541,0.0,0.0,0.0,0.0,0.0,0.0,0.0,0.0,0.0,0.0,0.0,0.0,0.0,0.0,-6.2892,0.0,0.0,-6.4191,-6.4153,-6.4535,-6.4802,-6.4802,-6.442,-6.4,-6.3579,-6.3541,-6.3885,-6.4726,-6.4802,-6.4955,-6.5375,-6.5413,-6.5413,-6.5413,-6.5413,-6.5413,-6.5413,-6.5413,-6.5605,-6.6063,-6.6063,-6.6254,-6.6636,-6.6636,-6.6636,-6.6636,-6.6216,-6.6254,-6.6636,-6.6216,-6.6063,-6.6063,-6.6063,-6.6292,-6.6636,-6.6636,-6.6139,-6.5413,-6.5413,-6.5413,-6.5413,0.0,0.0,0.0,0.0,0.0,0.0,0.0,0.0,0.0,0.0,0.0,0.0,0.0,0.0,0.0,0.0,0.0,0.0,0.0,0.0,0.0,0.0,0.0,0.0,0.0,0.0,0.0,0.0,0.0,0.0,0.0,0.0,0.0,0.0,0.0,0.0,0.0,0.0,0.0,0.0,0.0,0.0,-6.3388,-6.3388,-6.3197,-6.293,-6.3083,-6.3159,-6.3197,-6.335,-6.3388,-6.3503,-6.4191,-6.442,-6.442,-6.442,-6.4191,0.0,0.0,0.0,0.0,0.0,0.0,0.0,0.0,0.0,-6.3618,-6.4496,-6.4,-6.3656,-6.4535,-6.4802,-6.5108,-6.5796,-6.5872,-6.5834,-6.5681,-6.549,-6.5146,-6.4496,-6.442,-6.4688,-6.5337,-6.5413,-6.5413,-6.5413,-6.5413,-6.5413,-6.5413,-6.5566,-6.5643,-6.5643,-6.5796,-6.6216,-6.6942,-6.6942,-6.7247,-6.7897,-6.7897,-6.7897,-6.7859,-6.7247,-6.7286,-6.7859,-6.7209,-6.6942,-6.6942,-6.6942,-6.7324,-6.7897,-6.7897,-6.7056,-6.5872,-6.5872,-6.5872,-6.5872,0.0,0.0,0.0,0.0,0.0,0.0,0.0,0.0,0.0,0.0,0.0,0.0,0.0,0.0,0.0,0.0,0.0,0.0,0.0,0.0,0.0,0.0,0.0,0.0,0.0,0.0,0.0,0.0,0.0,0.0,0.0,0.0,0.0,0.0,0.0,0.0,0.0,0.0,0.0,0.0,0.0,0.0,-6.5108,-6.5108,-6.4191,-6.3006,-6.377,-6.4038,-6.4167,-6.4879,-6.5108,-6.5146,-6.5222,-6.5261,-6.5261,-6.5261,0.0,-6.3006,0.0,0.0,0.0,-6.5987,-6.5987,-6.5796,0.0,0.0,-6.5375,-6.6254,-6.5719,-6.5375,-6.6254,-6.698,-6.7515,-6.7591,-6.763,-6.7362,-6.6674,-6.5872,-6.5375,-6.5261,-6.5261,-6.5299,-6.5375,-6.5413,-6.5413,-6.5413,-6.5413,-6.5413,-6.5413,-6.6139,-6.656,-6.656,-6.7247,-6.7668,-6.7744,-6.7782,-6.7821,-6.7897,-6.7897,-6.7897,-6.7897,-6.7821,-6.7821,-6.7897,-6.7782,-6.7782,-6.7782,-6.7782,-6.7821,-6.7897,-6.7897,-6.7782,-6.763,-6.763,-6.763,-6.763,0.0,0.0,0.0,0.0,0.0,0.0,0.0,0.0,0.0,0.0,0.0,0.0,0.0,0.0,0.0,0.0,0.0,0.0,0.0,0.0,0.0,0.0,0.0,0.0,0.0,0.0,0.0,0.0,0.0,0.0,0.0,0.0,0.0,0.0,0.0,0.0,0.0,0.0,0.0,0.0,0.0,0.0,-6.5413,-6.5413,-6.4955,-6.442,-6.4764,-6.4879,0.0,0.0,-6.5413,-6.5413,-6.5413,-6.5413,-6.5413,-6.5413,-6.4573,0.0,-6.484,0.0,0.0,0.0,-6.7515,-6.7171,-6.8394,-6.698,-6.591,-6.7782,-6.7095,-6.6407,-6.7247,-6.8088,-6.847,0.0,-6.8317,-6.8356,-6.7515,-6.7095,-6.6827,-6.6827,-6.6827,-6.6483,-6.549,-6.5872,-6.6178,-6.6178,-6.6598,-6.6827,-6.6827,-6.7209,-6.74,-6.74,-6.7706,-6.8126,-6.8661,-6.8661,-6.889,-6.9349,-6.9349,-6.9349,-6.9349,-6.8852,-6.8661,-6.8661,-6.8661,-6.8929,-6.9311,-6.8852,-6.8929,-6.9349,-6.9349,-6.9349,-6.9234,-6.8241,-6.7897,-6.7897,0.0,0.0,0.0,0.0,0.0,0.0,0.0,0.0,0.0,0.0,0.0,0.0,0.0,0.0,0.0,0.0,0.0,0.0,0.0,0.0,0.0,0.0,0.0,0.0,0.0,0.0,0.0,0.0,0.0,0.0,0.0,0.0,0.0,0.0,0.0,0.0,0.0,0.0,0.0,0.0,0.0,0.0,-6.5413,-6.5413,-6.5413,-6.5375,-6.5146,-6.507,0.0,0.0,-6.4879,-6.5031,-6.4802,-6.4879,-6.5031,-6.4764,-6.4114,-6.3847,-6.5566,0.0,0.0,-6.8203,-6.8356,-6.805,-6.8699,-6.74,-6.6598,-6.847,-6.7897,-6.7286,-6.8088,-6.8967,-6.9387,-6.9005,-6.9273,-6.9311,-6.8661,-6.8203,-6.7897,-6.7897,-6.7897,-6.74,-6.6216,-6.6674,-6.7018,-6.7018,-6.7553,-6.7897,-6.7897,-6.8126,-6.8241,-6.8241,-6.847,-6.889,-6.9502,-6.954,-6.9807,-7.0419,-7.0419,-7.0419,-7.0364,-6.9807,-6.954,-6.954,-6.954,-6.9846,-7.0342,-6.9769,-6.9884,-7.0419,-7.0435,-7.0451,-7.0298,-6.9107,-6.8632,-6.8585,0.0,0.0,0.0,0.0,0.0,0.0,0.0,0.0,0.0,0.0,0.0,0.0,0.0,0.0,0.0,0.0,0.0,0.0,0.0,0.0,0.0,0.0,0.0,0.0,0.0,0.0,0.0,0.0,0.0,0.0,0.0,0.0,0.0,0.0,0.0,0.0,0.0,0.0,0.0,0.0,0.0,0.0,-6.5413,-6.5413,-6.5413,-6.5299,-6.4496,0.0,0.0,0.0,-6.3541,-6.4076,-6.3236,-6.3541,0.0,-6.3236,-6.2357,0.0,0.0,0.0,-6.4855,-6.7324,-6.7897,-6.7897,-6.7935,-6.7859,-6.7859,-6.7897,-6.7897,-6.8126,-6.9005,-6.9807,-7.0648,-7.145,-7.0916,-7.0342,-7.0342,-6.8929,-6.7897,-6.7897,-6.7897,-6.7859,0.0,-6.7859,-6.7859,-6.7859,-6.7897,-6.7897,-6.7897,-6.8699,-6.9158,-6.9158,-6.9922,-7.0342,-7.0381,-7.0381,-7.0381,-7.0419,-7.0419,-7.0419,-7.0419,-7.0381,-7.0381,-7.0381,-7.0381,-7.0381,-7.0419,-7.0381,-7.0381,-7.0419,-7.0538,-7.0569,-7.0585,-7.0601,-7.0486,-7.0342,0.0,0.0,0.0,0.0,0.0,0.0,0.0,0.0,0.0,0.0,0.0,0.0,0.0,0.0,0.0,0.0,0.0,0.0,0.0,0.0,0.0,0.0,0.0,0.0,0.0,0.0,0.0,0.0,0.0,0.0,0.0,0.0,0.0,0.0,0.0,0.0,0.0,0.0,0.0,0.0,0.0,0.0,-6.5452,-6.6025,-6.5566,-6.4573,0.0,0.0,0.0,0.0,0.0,0.0,-6.2319,0.0,0.0,-6.3159,0.0,0.0,0.0,0.0,-6.7133,-6.9082,-6.9578,-6.9578,-6.9578,-6.9158,-6.889,-6.9464,-6.912,-6.9005,-6.9846,-7.0686,-7.1374,-7.1642,-7.145,-7.1259,-7.1259,-7.0266,-6.9578,-6.9578,-6.9578,0.0,0.0,0.0,0.0,-6.8738,-6.9273,-6.9578,-6.9578,-6.9846,-7.0053,-7.0117,-7.0385,-7.0569,-7.0593,-7.0593,-7.0601,-7.0538,-7.0538,-7.0569,-7.0593,-7.0593,-7.0593,-7.0593,-7.0593,-7.0593,-7.0593,-7.0593,-7.0593,-7.0593,-7.0662,-7.0662,-7.0678,-7.0708,-7.0678,-7.0593,0.0,0.0,0.0,0.0,0.0,0.0,0.0,0.0,0.0,0.0,0.0,0.0,0.0,0.0,0.0,0.0,0.0,0.0,0.0,0.0,0.0,0.0,0.0,0.0,0.0,0.0,0.0,0.0,0.0,0.0,0.0,0.0,0.0,0.0,0.0,0.0,0.0,0.0,0.0,0.0,0.0,0.0,-6.6011,-6.6227,-6.5633,0.0,0.0,0.0,0.0,0.0,0.0,0.0,0.0,0.0,0.0,0.0,0.0,0.0,0.0,-6.7973,-6.9196,-7.0916,-7.1336,-7.1336,-7.1336,-7.0686,-7.0228,-7.0763,-6.9977,-6.9381,-6.9884,-7.0451,-7.091,-7.1199,-7.1221,-7.1336,-7.1658,-7.0954,-7.0419,-7.0419,-7.0419,0.0,0.0,0.0,0.0,-6.9616,-7.0113,-7.0419,-7.0451,-7.0451,-7.0538,-7.0632,-7.0632,-7.0662,-7.0723,-7.0723,-7.0693,-7.0632,-7.0632,-7.0662,-7.0723,-7.0723,-7.0723,-7.0723,-7.0723,-7.0723,-7.0723,-7.0723,-7.0723,-7.0723,-7.0752,-7.0752,-7.0729,-7.0743,-7.0758,-7.0758,0.0,0.0,0.0,0.0,0.0,0.0,0.0,0.0,0.0,0.0,0.0,0.0,0.0,0.0,0.0,0.0,0.0,0.0,0.0,0.0,0.0,0.0,0.0,0.0,0.0,0.0,0.0,0.0,0.0,0.0,0.0,0.0,0.0,0.0,0.0,0.0,0.0,0.0,0.0,0.0,0.0,0.0,-6.6859,-6.6076,0.0,0.0,0.0,0.0,0.0,0.0,0.0,0.0,0.0,0.0,0.0,0.0,0.0,-6.6369,-6.954,-7.0495,-7.0916,-7.2597,-7.2979,-7.2979,-7.2979,-7.2367,-7.1773,-7.1735,-7.0483,-6.9406,0.0,0.0,-6.9597,-7.0359,-7.0457,-7.0763,-7.1582,-7.0992,-7.0457,0.0,0.0,0.0,0.0,0.0,0.0,-7.0419,0.0,-7.0451,-7.0569,-7.0585,-7.0632,-7.0684,-7.0723,-7.0723,-7.0723,-7.0723,-7.0723,-7.0723,-7.0723,-7.0723,-7.0723,-7.0723,-7.0723,-7.0723,-7.0723,-7.0723,-7.0723,-7.0723,-7.0723,-7.0737,-7.0772,-7.0801,-7.0801,-7.0871,-7.0898,-7.0885,0.0,0.0,0.0,0.0,0.0,0.0,0.0,0.0,0.0,0.0,0.0,0.0,0.0,0.0,0.0,0.0,0.0,0.0,0.0,0.0,0.0,0.0,0.0,0.0,0.0,0.0,0.0,0.0,0.0,0.0,0.0,0.0,0.0,0.0,0.0,0.0,0.0,0.0,0.0,0.0,0.0,0.0,-6.6372,0.0,0.0,0.0,0.0,0.0,0.0,0.0,0.0,0.0,0.0,0.0,-6.4879,0.0,0.0,-6.9311,-7.019,-7.1336,-7.2444,-7.2902,-7.2979,-7.2979,-7.2979,-7.2826,-7.2482,-7.1833,-7.1417,-7.0968,0.0,0.0,0.0,-7.1319,-7.1385,0.0,-7.174,-7.1538,0.0,0.0,0.0,-7.0419,-7.0419,-7.0506,0.0,0.0,-7.0554,-7.0554,-7.0608,-7.0647,-7.0723,-7.0758,-7.0758,-7.0787,-7.0843,-7.0787,-7.0787,-7.0843,-7.0787,-7.0787,-7.0843,-7.0843,-7.0843,-7.0843,-7.0843,-7.0843,-7.0843,-7.0843,-7.0843,-7.0843,-7.0871,-7.0871,-7.0871,-7.0885,-7.0898,-7.0898,0.0,0.0,0.0,0.0,0.0,0.0,0.0,0.0,0.0,0.0,0.0,0.0,0.0,0.0,0.0,0.0,0.0,0.0,0.0,0.0,0.0,0.0,0.0,0.0,0.0,0.0,0.0,0.0,0.0,0.0,0.0,0.0,0.0,0.0,0.0,0.0,0.0,0.0,0.0,0.0,0.0,0.0,0.0,0.0,0.0,0.0,0.0,0.0,0.0,0.0,0.0,-6.4382,-6.7477,-6.7821,-6.7477,-6.9655,0.0,-7.1718,-7.2444,-7.3361,-7.4087,-7.4087,-7.4087,-7.3913,-7.3182,-7.3029,-7.2587,-7.1013,-7.0747,0.0,0.0,0.0,0.0,0.0,0.0,0.0,-7.1857,-7.1864,-7.1542,0.0,-7.0601,0.0,-7.0531,-7.0616,-7.0647,0.0,-7.0647,-7.0647,-7.0693,-7.0737,-7.0758,-7.0829,-7.0843,-7.0857,-7.0898,-7.0857,-7.0857,-7.0898,-7.0857,-7.0857,-7.0898,-7.0898,-7.0898,-7.0898,0.0,-7.0898,-7.0898,-7.0898,-7.0898,-7.0898,-7.0898,-7.0898,-7.0898,-7.0898,-7.0898,-7.0898,0.0,0.0,0.0,0.0,0.0,0.0,0.0,0.0,0.0,0.0,0.0,0.0,0.0,0.0,0.0,0.0,0.0,0.0,0.0,0.0,0.0,0.0,0.0,0.0,0.0,0.0,0.0,0.0,0.0,0.0,0.0,0.0,0.0,0.0,0.0,0.0,0.0,0.0,0.0,0.0,0.0,0.0,0.0,0.0,0.0,0.0,0.0,0.0,0.0,0.0,-6.7285,-6.7477,-6.9158,-6.9769,-7.0151,-7.1718,-7.275,-7.3628,-7.5136,-7.5518,-7.5518,-7.5518,-7.5535,-7.5094,-7.3494,-7.3128,-7.2416,-6.9911,0.0,0.0,-6.7362,0.0,-6.9342,-6.9534,0.0,-7.1896,-7.2126,-7.2241,-7.2011,-7.1145,-7.1029,-7.1014,-7.1014,-7.1029,-7.1044,-7.1044,-7.0929,-7.0882,-7.0787,-7.0801,-7.0857,-7.0952,-7.0952,-7.0952,-7.0952,-7.0952,-7.0939,-7.0898,-7.0898,-7.0898,-7.0898,-7.0898,-7.0898,-7.0898,-7.0898,-7.0898,-7.0898,-7.0898,-7.0898,-7.0898,-7.0898,-7.0898,-7.0898,-7.0898,-7.0898,-7.0898,0.0,0.0,0.0,0.0,0.0,0.0,0.0,0.0,0.0,0.0,0.0,0.0,0.0,0.0,0.0,0.0,0.0,0.0,0.0,0.0,0.0,0.0,0.0,0.0,0.0,0.0,0.0,0.0,0.0,0.0,0.0,0.0,0.0,0.0,0.0,0.0,0.0,0.0,0.0,0.0,0.0,0.0,0.0,0.0,0.0,0.0,0.0,0.0,0.0,0.0,-6.9385,-7.0075,-7.1794,-7.2788,-7.3514,-7.4545,-7.4927,-7.5119,-7.5442,-7.5518,-7.5535,-7.5549,-7.5583,-7.5178,-7.3536,-7.3169,0.0,0.0,0.0,-6.9198,-6.8224,-6.8301,0.0,-7.035,0.0,0.0,0.0,0.0,-7.3752,0.0,0.0,0.0,0.0,0.0,0.0,0.0,0.0,-7.1612,-7.0825,-7.0843,-7.0953,-7.1147,-7.1158,-7.1158,-7.1158,-7.1158,-7.1053,-7.0898,-7.0898,-7.0898,-7.0898,-7.0898,-7.0898,-7.0898,-7.0898,0.0,-7.0898,-7.0898,-7.0898,-7.0898,-7.0898,-7.0898,-7.0898,-7.0898,-7.0898,-7.0898,0.0,0.0,0.0,0.0,0.0,0.0,0.0,0.0,0.0,0.0,0.0,0.0,0.0,0.0,0.0,0.0,0.0,0.0,0.0,0.0,0.0,0.0,0.0,0.0,0.0,0.0,0.0,0.0,0.0,0.0,0.0,0.0,0.0,0.0,0.0,0.0,0.0,0.0,0.0,0.0,0.0,0.0,0.0,0.0,0.0,0.0,0.0,0.0,0.0,0.0,-6.9791,-7.1535,-7.2642,-7.3246,-7.3667,-7.4087,-7.4542,-7.4937,-7.4937,-7.5277,-7.5616,-7.5628,-7.5666,-7.4992,-7.2502,0.0,0.0,0.0,0.0,-6.8421,-6.6692,0.0,0.0,0.0,0.0,0.0,0.0,0.0,0.0,0.0,0.0,0.0,0.0,0.0,0.0,0.0,0.0,-7.261,-7.1724,-7.1379,-7.1239,-7.1339,-7.1349,-7.1349,-7.1349,-7.1349,-7.13,-7.1225,-7.1225,-7.117,-7.1079,-7.1079,-7.1005,-7.0898,-7.0898,-7.0898,-7.0898,-7.0898,-7.0898,-7.0898,-7.0898,-7.0898,-7.0898,-7.0898,-7.0898,-7.0925,0.0,0.0,0.0,0.0,0.0,0.0,0.0,0.0,0.0,0.0,0.0,0.0,0.0,0.0,0.0,0.0,0.0,0.0,0.0,0.0,0.0,0.0,0.0,0.0,0.0,0.0,0.0,0.0,0.0,0.0,0.0,0.0,0.0,0.0,0.0,0.0,0.0,0.0,0.0,0.0,0.0,0.0,0.0,0.0,0.0,0.0,0.0,0.0,0.0,0.0,-6.927,-7.1332,-7.1876,-7.2531,-7.3008,-7.2882,-7.345,-7.4139,-7.4139,-7.4648,-7.5156,-7.5172,-7.5187,-7.4359,-7.1286,-7.0954,0.0,0.0,0.0,-6.7051,-6.5205,0.0,0.0,0.0,0.0,0.0,0.0,0.0,0.0,0.0,0.0,0.0,0.0,0.0,0.0,0.0,0.0,0.0,-7.2605,-7.2219,-7.1894,-7.1536,-7.1731,-7.1731,-7.1536,-7.1536,-7.1521,-7.1481,-7.1481,-7.1404,-7.125,-7.125,-7.1158,-7.0953,-7.0953,-7.0952,-7.0898,-7.0898,-7.0939,-7.0953,-7.0953,-7.0992,-7.1042,-7.1042,-7.1042,-7.1067,0.0,0.0,0.0,0.0,0.0,0.0,0.0,0.0,0.0,0.0,0.0,0.0,0.0,0.0,0.0,0.0,0.0,0.0,0.0,0.0,0.0,0.0,0.0,0.0,0.0,0.0,0.0,0.0,0.0,0.0,0.0,0.0,0.0,0.0,0.0,0.0,0.0,0.0,0.0,0.0,0.0,0.0,0.0,0.0,0.0,0.0,0.0,0.0,0.0,0.0,0.0,-6.8214,-6.8839,-7.0928,-7.3062,-7.244,0.0,0.0,-7.33,-7.3376,-7.3446,-7.3522,-7.3537,-7.2861,-7.0371,0.0,0.0,0.0,-6.5359,-6.5128,-6.5667,-6.5974,0.0,0.0,0.0,0.0,0.0,0.0,0.0,0.0,0.0,0.0,0.0,0.0,0.0,0.0,0.0,0.0,-7.2794,-7.3385,-7.3114,-7.1722,-7.2462,-7.2462,-7.1683,-7.1683,-7.1621,-7.1481,-7.1481,-7.1473,-7.1456,-7.1456,-7.1349,-7.1181,-7.1181,-7.1053,0.0,-7.0898,-7.1017,-7.1181,-7.1181,-7.127,-7.143,-7.143,-7.143,-7.1556,0.0,0.0,0.0,0.0,0.0,0.0,0.0,0.0,0.0,0.0,0.0,0.0,0.0,0.0,0.0,0.0,0.0,0.0,0.0,0.0,0.0,0.0,0.0,0.0,0.0,0.0,0.0,0.0,0.0,0.0,0.0,0.0,0.0,0.0,0.0,0.0,0.0,0.0,0.0,0.0,0.0,0.0,0.0,0.0,0.0,0.0,0.0,0.0,0.0,0.0,0.0,0.0,-6.7008,-6.856,0.0,0.0,-7.1707,-7.2661,-7.2661,-7.3014,-7.3389,-7.3418,-7.3048,-7.1972,-6.95,0.0,0.0,-6.4166,-6.3705,-6.3782,-6.3628,-6.4436,-6.5359,0.0,0.0,0.0,0.0,0.0,0.0,0.0,0.0,0.0,0.0,0.0,0.0,0.0,0.0,0.0,-7.4621,-7.4392,-7.4017,-7.3388,-7.3232,-7.2998,-7.2686,-7.2139,-7.185,-7.1814,-7.1814,-7.1739,-7.1621,-7.1621,-7.1544,-7.1367,-7.1367,-7.1329,0.0,-7.125,-7.13,-7.1367,-7.1367,-7.1732,-7.2219,-7.2219,-7.2538,-7.306,0.0,0.0,0.0,0.0,0.0,0.0,0.0,0.0,0.0,0.0,0.0,0.0,0.0,0.0,0.0,0.0,0.0,0.0,0.0,0.0,0.0,0.0,0.0,0.0,0.0,0.0,0.0,0.0,0.0,0.0,0.0,0.0,0.0,0.0,0.0,0.0,0.0,0.0,0.0,0.0,0.0,0.0,0.0,0.0,0.0,0.0,0.0,0.0,0.0,0.0,0.0,0.0,0.0,0.0,0.0,0.0,-7.0447,-7.175,-7.1992,-7.2473,-7.2905,-7.2905,-7.2392,-7.1262,0.0,0.0,0.0,-6.3051,-6.2704,-6.2858,-6.2512,-6.3628,-6.4589,0.0,0.0,0.0,0.0,0.0,0.0,0.0,0.0,0.0,0.0,0.0,0.0,0.0,0.0,0.0,-7.6203,-7.5618,-7.5032,-7.4525,-7.4212,-7.3783,-7.3312,-7.269,-7.226,-7.1987,-7.1987,-7.1924,-7.1789,-7.1789,-7.1689,-7.1559,-7.1559,-7.1529,0.0,-7.1481,-7.1513,-7.1559,-7.1559,-7.1938,-7.2517,-7.2789,-7.3263,-7.386,0.0,0.0,0.0,0.0,0.0,0.0,0.0,0.0,0.0,0.0,0.0,0.0,0.0,0.0,0.0,0.0,0.0,0.0,0.0,0.0,0.0,0.0,0.0,0.0,0.0,0.0,0.0,0.0,0.0,0.0,0.0,0.0,0.0,0.0,0.0,0.0,0.0,0.0,0.0,0.0,0.0,0.0,0.0,0.0,0.0,0.0,0.0,0.0,0.0,0.0,0.0,0.0,0.0,0.0,0.0,0.0,-6.902,-7.0416,-7.1279,-7.152,-7.1512,-7.1512,-7.1368,-7.0556,0.0,0.0,-6.5397,-6.3666,-6.2666,-6.2358,-6.3128,-6.4012,-6.4589,-6.4589,0.0,0.0,0.0,0.0,0.0,0.0,0.0,0.0,0.0,0.0,0.0,0.0,0.0,0.0,-7.7101,-7.7062,-7.6281,-7.4564,-7.5345,-7.4993,-7.3315,-7.3275,-7.2846,-7.1987,-7.1987,-7.1987,-7.1987,-7.1987,-7.187,-7.17,-7.17,-7.1628,0.0,-7.1481,-7.158,-7.17,-7.17,-7.1803,-7.2102,-7.296,-7.3312,-7.3546,0.0,0.0,0.0,0.0,0.0,0.0,0.0,0.0,0.0,0.0,0.0,0.0,0.0,0.0,0.0,0.0,0.0,0.0,0.0,0.0,0.0,0.0,0.0,0.0,0.0,0.0,0.0,0.0,0.0,0.0,0.0,0.0,0.0,0.0,0.0,0.0,0.0,0.0,0.0,0.0,0.0,0.0,0.0,0.0,0.0,0.0,0.0,0.0,0.0,0.0,0.0,0.0,0.0,0.0,0.0,0.0,0.0,0.0,-7.1407,-7.1955,-7.218,-7.1636,-7.0546,-6.9106,-6.7088,0.0,-6.3931,-6.2122,-6.1512,-6.1445,-6.1667,-6.2913,-6.393,-6.4027,0.0,0.0,0.0,0.0,0.0,0.0,0.0,0.0,0.0,0.0,0.0,0.0,0.0,0.0,-7.7101,-7.7101,-7.6555,-7.5423,-7.566,-7.4993,-7.3315,-7.3312,-7.2846,-7.1987,-7.1987,-7.1987,-7.1987,-7.1987,-7.1976,-7.1916,-7.1916,-7.1862,-7.1837,-7.1837,-7.1854,-7.1955,-7.258,-7.3179,-7.3822,-7.4681,-7.5384,-7.5969,0.0,0.0,0.0,0.0,0.0,0.0,0.0,0.0,0.0,0.0,0.0,0.0,0.0,0.0,0.0,0.0,0.0,0.0,0.0,0.0,0.0,0.0,0.0,0.0,0.0,0.0,0.0,0.0,0.0,0.0,0.0,0.0,0.0,0.0,0.0,0.0,0.0,0.0,0.0,0.0,0.0,0.0,0.0,0.0,0.0,0.0,0.0,0.0,0.0,0.0,0.0,0.0,0.0,0.0,0.0,0.0,0.0,0.0,0.0,-7.1633,-7.1848,-7.1303,-6.9863,0.0,0.0,0.0,0.0,-6.1444,-6.107,-6.107,-6.107,-6.2233,-6.3322,-6.3735,-6.5421,0.0,0.0,0.0,0.0,0.0,0.0,0.0,0.0,0.0,0.0,0.0,0.0,0.0,-7.7101,-7.6789,-7.6203,-7.5345,-7.5618,-7.4993,-7.3315,-7.3312,-7.2846,-7.1987,-7.1987,-7.1987,-7.1987,-7.1987,-7.1987,-7.1987,-7.1987,-7.1987,0.0,-7.2339,-7.2495,-7.2573,-7.3432,-7.4056,-7.4603,-7.5462,-7.6125,-7.6672,0.0,0.0,0.0,0.0,0.0,0.0,0.0,0.0,0.0,0.0,0.0,0.0,0.0,0.0,0.0,0.0,0.0,0.0,0.0,0.0,0.0,0.0,0.0,0.0,0.0,0.0,0.0,0.0,0.0,0.0,0.0,0.0,0.0,0.0,0.0,0.0,0.0,0.0,0.0,0.0,0.0,0.0,0.0,0.0,0.0,0.0,0.0,0.0,0.0,0.0,0.0,0.0,0.0,0.0,0.0,0.0,0.0,0.0,0.0,0.0,0.0,0.0,0.0,0.0,0.0,0.0,0.0,0.0,0.0,0.0,0.0,-6.1977,-6.2832,-6.3779,-6.4673,0.0,0.0,0.0,0.0,0.0,0.0,0.0,0.0,0.0,0.0,0.0,0.0,0.0,-7.7023,-7.6281,-7.5423,-7.4447,-7.5266,-7.4915,-7.3236,-7.3275,-7.2846,-7.1987,-7.1987,-7.1987,-7.1987,-7.1987,-7.1987,0.0,-7.2065,-7.2104,-7.2143,-7.3041,-7.3393,-7.3471,-7.429,-7.4603,-7.4681,-7.5579,-7.5894,-7.6008,0.0,0.0,0.0,0.0,0.0,0.0,0.0,0.0,0.0,0.0,0.0,0.0,0.0,0.0,0.0,0.0,0.0,0.0,0.0,0.0,0.0,0.0,0.0,0.0,0.0,0.0,0.0,0.0,0.0,0.0,0.0,0.0,0.0,0.0,0.0,0.0,0.0,0.0,0.0,0.0,0.0,0.0,0.0,0.0,0.0,0.0,0.0,-6.6795,0.0,0.0,0.0,0.0,0.0,0.0,0.0,0.0,0.0,0.0,0.0,0.0,0.0,0.0,0.0,0.0,0.0,0.0,0.0,0.0,0.0,0.0,0.0,0.0,0.0,0.0,0.0,0.0,0.0,0.0,0.0,0.0,0.0,0.0,0.0,0.0,0.0,0.0,0.0,-7.6828,-7.6125,-7.6555,-7.5813,-7.3666,-7.4369,-7.4017,-7.2339,-7.2963,-7.2846,-7.1987,-7.1987,-7.1987,-7.1987,-7.1987,-7.1987,-7.2026,-7.269,-7.3002,-7.308,-7.3861,-7.4212,-7.429,-7.5149,-7.5501,-7.5618,-7.6477,-7.6789,-7.6828,0.0,0.0,0.0,0.0,0.0,0.0,0.0,0.0,0.0,0.0,0.0,0.0,0.0,0.0,0.0,0.0,0.0,0.0,0.0,0.0,0.0,0.0,0.0,0.0,0.0,0.0,0.0,0.0,0.0,0.0,0.0,0.0,0.0,0.0,0.0,0.0,0.0,0.0,0.0,0.0,0.0,0.0,0.0,0.0,0.0,0.0,-6.6795,-6.6795,0.0,-6.6795,-6.6795,-6.6795,0.0,0.0,0.0,0.0,0.0,0.0,0.0,0.0,0.0,0.0,0.0,0.0,0.0,0.0,0.0,0.0,0.0,0.0,0.0,0.0,0.0,0.0,0.0,0.0,0.0,0.0,0.0,0.0,0.0,0.0,0.0,0.0,0.0,0.0,0.0,-7.6906,-7.6438,-7.6086,-7.5266,-7.39,-7.3549,-7.2924,-7.2026,-7.2456,-7.2456,-7.1987,-7.1987,-7.1987,-7.1987,-7.1987,-7.2221,-7.2612,-7.3119,-7.351,-7.3939,-7.4759,-7.511,-7.5188,-7.6047,-7.6399,-7.6438,-7.6945,-7.7101,-7.7179,0.0,0.0,0.0,0.0,0.0,0.0,0.0,0.0,0.0,0.0,0.0,0.0,0.0,0.0,0.0,0.0,0.0,0.0,0.0,0.0,0.0,0.0,0.0,0.0,0.0,0.0,0.0,0.0,0.0,0.0,0.0,0.0,0.0,0.0,0.0,0.0,0.0,0.0,0.0,0.0,0.0,0.0,0.0,0.0,0.0,0.0,0.0,0.0,0.0,-6.6795,-6.6795,-6.6795,-6.6795,0.0,0.0,0.0,0.0,0.0,0.0,0.0,0.0,0.0,0.0,0.0,0.0,0.0,0.0,0.0,0.0,0.0,0.0,0.0,0.0,0.0,0.0,0.0,0.0,0.0,0.0,0.0,0.0,0.0,0.0,0.0,0.0,0.0,0.0,-7.7023,-7.6906,-7.5501,-7.4564,-7.433,-7.2924,-7.2143,-7.1987,-7.1987,-7.1987,-7.1987,-7.1987,-7.2065,-7.2182,-7.2182,-7.2651,-7.351,0.0,0.0,-7.4759,-7.5657,-7.6008,-7.6086,-7.6828,-7.7101,-7.7101,-7.7257,-7.7296,-7.7414,0.0,0.0,0.0,0.0,0.0,0.0,0.0,0.0,0.0,0.0,0.0,0.0,0.0,0.0,0.0,0.0,0.0,0.0,0.0,0.0,0.0,0.0,0.0,0.0,0.0,0.0,0.0,0.0,0.0,0.0,0.0,0.0,0.0,0.0,0.0,0.0,0.0,0.0,0.0,0.0,0.0,0.0,0.0,0.0,0.0,0.0,0.0,0.0,0.0,-6.6795,-6.6795,-6.6795,-6.6795,0.0,0.0,0.0,0.0,0.0,0.0,0.0,0.0,0.0,0.0,0.0,0.0,0.0,0.0,0.0,0.0,0.0,0.0,0.0,0.0,0.0,0.0,0.0,0.0,0.0,0.0,0.0,0.0,0.0,0.0,0.0,0.0,0.0,0.0,-7.6789,-7.6047,-7.5735,-7.4954,-7.3549,-7.3236,-7.2768,-7.2026,-7.1987,-7.1987,-7.1987,-7.1987,-7.2378,-7.3119,-7.3119,-7.3549,-7.4369,0.0,-7.5501,-7.5657,-7.6555,-7.6906,-7.6906,-7.7062,-7.7101,-7.7179,-7.7921,-7.8194,-7.8311,0.0,0.0,0.0,0.0,0.0,0.0,0.0,0.0,0.0,0.0,0.0,0.0,0.0,0.0,0.0,0.0,0.0,0.0,0.0,0.0,0.0,0.0,0.0,0.0,0.0,0.0,0.0,0.0,0.0,0.0,0.0,0.0,0.0,0.0,0.0,0.0,0.0,0.0,0.0,0.0,0.0,0.0,0.0,0.0,0.0,0.0,0.0,0.0,0.0,0.0,-6.6795,-6.6795,-6.6795,0.0,0.0,0.0,0.0,0.0,-6.6366,-6.6131,0.0,0.0,0.0,0.0,0.0,0.0,0.0,0.0,0.0,0.0,0.0,0.0,0.0,0.0,0.0,0.0,0.0,0.0,0.0,0.0,0.0,0.0,0.0,0.0,0.0,0.0,0.0,0.0,-7.5855,-7.5345,-7.4564,-7.3354,-7.2846,-7.2417,-7.1987,-7.1987,-7.1987,-7.2026,-7.2495,-7.2924,-7.3315,-7.3744,-7.4408,-7.5227,0.0,-7.6086,-7.6516,-7.6945,-7.7101,-7.714,-7.7609,-7.7804,-7.7921,-7.878,-7.9405,-7.9873,0.0,0.0,0.0,0.0,0.0,0.0,0.0,0.0,0.0,0.0,0.0,0.0,0.0,0.0,0.0,0.0,0.0,0.0,0.0,0.0,0.0,0.0,0.0,0.0,0.0,0.0,0.0,0.0,0.0,0.0,0.0,0.0,0.0,0.0,0.0,0.0,0.0,0.0,0.0,0.0,0.0,0.0,0.0,0.0,0.0,0.0,0.0,0.0,0.0,0.0,0.0,0.0,0.0,0.0,0.0,0.0,0.0,-6.6522,-6.6522,-6.5858,0.0,0.0,0.0,0.0,0.0,0.0,0.0,0.0,0.0,0.0,0.0,0.0,0.0,0.0,0.0,0.0,0.0,0.0,0.0,0.0,0.0,0.0,0.0,0.0,0.0,0.0,0.0,0.0,-7.6125,-7.5071,-7.4212,-7.3588,-7.2534,-7.1987,-7.1987,-7.2182,-7.23,-7.23,-7.2963,-7.351,-7.39,-7.4525,-7.5266,-7.6086,-7.6086,-7.6477,-7.7101,-7.7335,-7.7414,-7.7492,-7.835,-7.8819,-7.9092,-7.9756,-8.0576,-8.1317,0.0,0.0,0.0,0.0,0.0,0.0,0.0,0.0,0.0,0.0,0.0,0.0,0.0,0.0,0.0,0.0,0.0,0.0,0.0,0.0,0.0,0.0,0.0,0.0,0.0,0.0,0.0,0.0,0.0,0.0,0.0,0.0,0.0,0.0,0.0,0.0,0.0,0.0,0.0,0.0,0.0,0.0,0.0,0.0,0.0,0.0,0.0,0.0,0.0,0.0,0.0,0.0,0.0,0.0,0.0,0.0,0.0,-6.5702,-6.5702,-6.6717,-6.7693,-6.7068,0.0,0.0,0.0,0.0,0.0,0.0,0.0,0.0,0.0,0.0,0.0,0.0,0.0,0.0,0.0,0.0,0.0,0.0,0.0,0.0,0.0,0.0,0.0,0.0,0.0,0.0,-7.7023,-7.5423,-7.4486,-7.4408,-7.2846,-7.1987,-7.1987,-7.2807,-7.3197,-7.3197,-7.3275,-7.4095,-7.5618,-7.5699,-7.6164,-7.7023,-7.7023,-7.7023,-7.7179,-7.796,-7.8311,-7.839,-7.9287,-8.0107,-8.081,-8.0888,-8.1474,-8.2215,0.0,0.0,0.0,0.0,0.0,0.0,0.0,0.0,0.0,0.0,0.0,0.0,0.0,0.0,0.0,0.0,0.0,0.0,0.0,0.0,0.0,0.0,0.0,0.0,0.0,0.0,0.0,0.0,0.0,0.0,0.0,0.0,0.0,0.0,0.0,0.0,0.0,0.0,0.0,0.0,0.0,0.0,0.0,0.0,0.0,0.0,0.0,0.0,0.0,0.0,0.0,0.0,0.0,0.0,0.0,0.0,0.0,-6.5585,-6.5585,-6.6444,-6.7224,-6.6873,0.0,0.0,0.0,0.0,0.0,0.0,0.0,0.0,0.0,0.0,0.0,0.0,0.0,0.0,0.0,0.0,0.0,0.0,0.0,0.0,0.0,0.0,0.0,0.0,0.0,0.0,-7.554,-7.4876,-7.4017,-7.2963,-7.2339,-7.226,-7.2807,-7.3158,-7.3822,-7.4837,-7.4837,-7.5188,-7.5816,-7.636,-7.6789,-7.7101,-7.7101,-7.7414,-7.7921,-7.8272,-7.8702,-7.9287,-8.0185,-8.1044,-8.1825,-8.1825,-8.2332,-8.3035,0.0,0.0,0.0,0.0,0.0,0.0,0.0,0.0,0.0,0.0,0.0,0.0,0.0,0.0,0.0,0.0,0.0,0.0,0.0,0.0,0.0,0.0,0.0,0.0,0.0,0.0,0.0,0.0,0.0,0.0,0.0,0.0,0.0,0.0,0.0,0.0,0.0,0.0,0.0,0.0,0.0,0.0,0.0,0.0,0.0,0.0,0.0,0.0,0.0,0.0,0.0,0.0,0.0,0.0,0.0,0.0,0.0,-6.6405,-6.6405,-6.699,-6.7615,0.0,0.0,0.0,0.0,0.0,0.0,0.0,0.0,0.0,0.0,0.0,0.0,0.0,0.0,0.0,0.0,0.0,0.0,0.0,0.0,0.0,0.0,0.0,0.0,0.0,0.0,0.0,0.0,-7.4642,-7.3861,-7.2456,-7.2417,-7.269,-7.3273,-7.3822,-7.4681,-7.5816,-7.6086,-7.6203,-7.6242,-7.6828,-7.7257,-7.7492,-7.7492,-7.7999,-7.8819,-7.9092,-7.9717,-8.0576,-8.1161,-8.1942,-8.2684,-8.2684,-8.3191,-8.3894,0.0,0.0,0.0,0.0,0.0,0.0,0.0,0.0,0.0,0.0,0.0,0.0,0.0,0.0,0.0,0.0,0.0,0.0,0.0,0.0,0.0,0.0,0.0,0.0,0.0,0.0,0.0,0.0,0.0,0.0,0.0,0.0,0.0,0.0,0.0,0.0,0.0,0.0,0.0,0.0,0.0,0.0,0.0,0.0,0.0,0.0,0.0,0.0,0.0,0.0,-6.6795,-6.6639,0.0,0.0,0.0,0.0,0.0,-6.8044,-6.8044,-6.8708,0.0,0.0,0.0,0.0,0.0,0.0,0.0,0.0,0.0,0.0,0.0,0.0,0.0,0.0,0.0,0.0,0.0,0.0,0.0,0.0,0.0,0.0,0.0,0.0,0.0,0.0,0.0,0.0,0.0,-7.4954,-7.4134,-7.3315,-7.3312,-7.3315,-7.3315,-7.4954,-7.5816,-7.5816,-7.6672,-7.7101,-7.7101,-7.7101,-7.757,-7.839,-7.839,-7.8897,-7.9795,-8.0654,-8.1513,-8.2293,-8.2293,-8.2801,-8.3504,-8.3504,-8.405,-8.4792,0.0,0.0,0.0,0.0,0.0,0.0,0.0,0.0,0.0,0.0,0.0,0.0,0.0,0.0,0.0,0.0,0.0,0.0,0.0,0.0,0.0,0.0,0.0,0.0,0.0,0.0,0.0,0.0,0.0,0.0,0.0,0.0,0.0,0.0,0.0,0.0,0.0,0.0,0.0,0.0,0.0,0.0,0.0,0.0,0.0,0.0,0.0,0.0,0.0,0.0,0.0,0.0,0.0,0.0,0.0,0.0,-6.5312,-6.5429,-6.5429,0.0,0.0,0.0,0.0,0.0,0.0,0.0,0.0,0.0,0.0,0.0,0.0,0.0,0.0,0.0,0.0,0.0,0.0,0.0,0.0,0.0,0.0,0.0,0.0,0.0,0.0,0.0,0.0,0.0,0.0,-7.4095,-7.3549,-7.3315,-7.3312,-7.3861,-7.5032,-7.554,-7.6125,-7.6711,-7.6984,-7.7101,-7.7101,-7.7726,-7.8155,-7.8429,-7.9053,-7.9795,-8.0693,-8.1563,-8.2074,-8.2347,-8.2972,-8.3365,-8.3635,-8.4209,-8.4987,-8.5729,0.0,0.0,0.0,0.0,0.0,0.0,0.0,0.0,0.0,0.0,0.0,0.0,0.0,0.0,0.0,0.0,0.0,0.0,0.0,0.0,0.0,0.0,0.0,0.0,0.0,0.0,0.0,0.0,0.0,0.0,0.0,0.0,0.0,0.0,0.0,0.0,0.0,0.0,0.0,0.0,0.0,0.0,0.0,0.0,0.0,0.0,0.0,0.0,0.0,0.0,0.0,0.0,0.0,0.0,0.0,0.0,-6.6951,-6.7498,-6.8161,0.0,0.0,0.0,0.0,0.0,0.0,0.0,0.0,0.0,0.0,0.0,0.0,0.0,0.0,0.0,0.0,0.0,0.0,0.0,0.0,0.0,0.0,0.0,0.0,0.0,0.0,0.0,0.0,0.0,0.0,-7.4056,-7.3627,-7.3315,-7.3627,-7.4447,-7.5777,-7.6125,-7.6594,-7.7101,-7.7453,-7.7609,-7.7648,-7.8155,-7.878,-7.9483,-8.0347,-8.1014,-8.1563,-8.2083,-8.2517,-8.2869,-8.3376,-8.3999,-8.4658,-8.5155,-8.5852,-8.6627,0.0,0.0,0.0,0.0,0.0,0.0,0.0,0.0,0.0,0.0,0.0,0.0,0.0,0.0,0.0,0.0,0.0,0.0,0.0,0.0,0.0,0.0,0.0,0.0,0.0,0.0,0.0,0.0,0.0,0.0,0.0,0.0,0.0,0.0,0.0,0.0,0.0,0.0,0.0,0.0,0.0,0.0,0.0,0.0,0.0,0.0,0.0,0.0,0.0,0.0,0.0,0.0,0.0,0.0,0.0,0.0,-6.9726,0.0,0.0,0.0,0.0,0.0,0.0,0.0,0.0,0.0,0.0,0.0,0.0,0.0,0.0,0.0,0.0,0.0,0.0,0.0,0.0,0.0,0.0,0.0,0.0,0.0,0.0,0.0,0.0,0.0,0.0,0.0,-7.4564,-7.4447,-7.4095,-7.3432,-7.4212,-7.5032,-7.5894,-7.6714,-7.7143,-7.7221,-7.8005,-7.8473,-7.863,-7.8627,-7.9525,-8.1164,-8.1959,-8.2354,-8.2435,-8.2408,-8.2918,-8.3739,-8.3817,-8.4788,-8.6108,-8.6184,-8.672,-8.7407,0.0,0.0,0.0,0.0,0.0,0.0,0.0,0.0,0.0,0.0,0.0,0.0,0.0,0.0,0.0,0.0,0.0,0.0,0.0,0.0,0.0,0.0,0.0,0.0,0.0,0.0,0.0,0.0,0.0,0.0,0.0,0.0,0.0,0.0,0.0,0.0,0.0,0.0,0.0,0.0,0.0,0.0,0.0,0.0,0.0,0.0,0.0,0.0,0.0,0.0,0.0,0.0,-6.6614,-6.6698,-6.6937,-6.7093,-6.7986,0.0,0.0,0.0,0.0,0.0,0.0,0.0,0.0,0.0,0.0,0.0,0.0,0.0,0.0,0.0,0.0,0.0,0.0,0.0,0.0,0.0,0.0,0.0,0.0,0.0,0.0,0.0,0.0,0.0,0.0,0.0,-7.4486,-7.39,-7.3783,-7.4212,-7.5071,-7.593,-7.6828,-7.6995,-7.7432,-7.8135,-7.83,-7.9123,-8.0451,-8.0431,-8.1011,-8.2037,-8.2235,-8.2671,-8.3306,-8.3313,-8.3824,-8.4683,-8.5385,-8.5853,-8.6241,-8.6891,-8.7233,-8.7501,0.0,0.0,0.0,0.0,0.0,0.0,0.0,0.0,0.0,0.0,0.0,0.0,0.0,0.0,0.0,0.0,0.0,0.0,0.0,0.0,0.0,0.0,0.0,0.0,0.0,0.0,0.0,0.0,0.0,0.0,0.0,0.0,0.0,0.0,0.0,0.0,0.0,0.0,0.0,0.0,0.0,0.0,0.0,0.0,0.0,0.0,0.0,0.0,0.0,0.0,0.0,0.0,0.0,0.0,-6.706,-6.7879,-6.8384,-6.9083,0.0,0.0,0.0,0.0,0.0,0.0,0.0,0.0,0.0,0.0,0.0,0.0,0.0,0.0,0.0,0.0,0.0,0.0,0.0,0.0,0.0,0.0,0.0,0.0,0.0,0.0,0.0,0.0,0.0,-7.4486,-7.4486,-7.4095,-7.4056,-7.4486,-7.5353,-7.6214,-7.7073,-7.7517,-7.795,-7.842,-7.9244,-8.0339,-8.1628,-8.1619,-8.1888,-8.2324,-8.2759,-8.3192,-8.3627,-8.4061,-8.4726,-8.5585,-8.6015,-8.6443,-8.6871,-8.7722,-8.8026,-8.8134,0.0,0.0,0.0,0.0,0.0,0.0,0.0,0.0,0.0,0.0,0.0,0.0,0.0,0.0,0.0,0.0,0.0,0.0,0.0,0.0,0.0,0.0,0.0,0.0,0.0,0.0,0.0,0.0,0.0,0.0,0.0,0.0,0.0,0.0,0.0,0.0,0.0,0.0,0.0,0.0,0.0,0.0,0.0,0.0,0.0,0.0,0.0,0.0,0.0,-6.6811,0.0,0.0,0.0,0.0,-6.6984,-6.8507,-6.8975,-6.9677,0.0,0.0,0.0,0.0,0.0,0.0,0.0,0.0,0.0,0.0,0.0,0.0,0.0,0.0,0.0,0.0,0.0,0.0,0.0,0.0,0.0,0.0,0.0,0.0,0.0,0.0,0.0,0.0,0.0,-7.511,-7.4525,-7.4486,-7.4564,-7.4723,-7.5555,-7.6458,-7.7321,-7.8033,-7.8545,-7.8858,-8.046,-8.1671,-8.2531,-8.2531,-8.2531,-8.2568,-8.3432,-8.3904,-8.41,-8.4843,-8.5625,-8.6406,-8.6406,-8.6913,-8.7693,-8.8434,-8.8818,-8.9034,0.0,0.0,0.0,0.0,0.0,0.0,0.0,0.0,0.0,0.0,0.0,0.0,0.0,0.0,0.0,0.0,0.0,0.0,0.0,0.0,0.0,0.0,0.0,0.0,0.0,0.0,0.0,0.0,0.0,0.0,0.0,0.0,0.0,0.0,0.0,0.0,0.0,0.0,0.0,0.0,0.0,0.0,0.0,0.0,0.0,0.0,0.0,0.0,0.0,0.0,-6.6823,0.0,0.0,0.0,0.0,-6.6953,0.0,0.0,0.0,0.0,0.0,0.0,0.0,0.0,0.0,0.0,0.0,0.0,0.0,0.0,0.0,0.0,0.0,0.0,0.0,0.0,0.0,0.0,0.0,0.0,0.0,0.0,0.0,0.0,0.0,0.0,-7.4525,-7.39,-7.4486,-7.4486,-7.4843,-7.5597,-7.6458,-7.7323,-7.823,-7.8352,-7.9176,-8.066,-8.164,-8.2578,-8.3437,-8.3437,-8.3437,-8.3472,-8.4333,-8.5155,-8.5859,-8.5976,-8.6523,-8.7344,-8.7344,-8.7812,-8.8554,-8.867,-8.9172,-8.9943,0.0,0.0,0.0,0.0,0.0,0.0,0.0,0.0,0.0,0.0,0.0,0.0,0.0,0.0,0.0,0.0,0.0,0.0,0.0,0.0,0.0,0.0,0.0,0.0,0.0,0.0,0.0,0.0,0.0,0.0,0.0,-6.6366,-6.6951,0.0,0.0,0.0,0.0,0.0,0.0,0.0,0.0,0.0,0.0,0.0,0.0,0.0,0.0,0.0,0.0,0.0,0.0,-6.6913,-6.6913,0.0,0.0,0.0,0.0,0.0,0.0,0.0,0.0,0.0,0.0,0.0,0.0,0.0,0.0,0.0,0.0,0.0,0.0,0.0,0.0,0.0,0.0,0.0,0.0,0.0,0.0,0.0,0.0,0.0,0.0,0.0,0.0,0.0,-7.4408,-7.4134,-7.4486,-7.4962,-7.5397,-7.5794,-7.6665,-7.7569,-7.8393,-7.8865,-7.9999,-8.1757,-8.2617,-8.3242,-8.3633,-8.4609,-8.4804,-8.4374,-8.5234,-8.5859,-8.625,-8.6719,-8.7422,-8.8164,-8.8164,-8.8672,-8.9492,-8.996,-9.0388,-9.0851,0.0,0.0,0.0,0.0,0.0,0.0,0.0,0.0,0.0,0.0,0.0,0.0,0.0,0.0,0.0,0.0,0.0,0.0,0.0,0.0,0.0,0.0,0.0,0.0,0.0,0.0,0.0,0.0,0.0,0.0,-6.5585,-6.5585,-6.6017,0.0,-6.5275,0.0,0.0,0.0,0.0,0.0,0.0,0.0,0.0,0.0,0.0,0.0,0.0,0.0,0.0,0.0,0.0,0.0,0.0,0.0,0.0,0.0,0.0,0.0,0.0,0.0,0.0,0.0,0.0,0.0,0.0,0.0,0.0,0.0,0.0,0.0,0.0,0.0,0.0,0.0,0.0,0.0,0.0,0.0,0.0,0.0,0.0,0.0,0.0,0.0,0.0,0.0,-7.4486,-7.4606,-7.4804,-7.5438,-7.5913,-7.6154,-7.7024,-7.7887,-7.8709,-7.9804,-8.1133,-8.2656,-8.3281,-8.3828,-8.4297,-8.5625,-8.5976,-8.5586,-8.625,-8.6523,-8.6601,-8.7461,-8.8164,-8.8711,-8.8945,-8.9414,-9.0117,-9.0976,-9.1288,-9.1403,0.0,0.0,0.0,0.0,0.0,0.0,0.0,0.0,0.0,0.0,0.0,0.0,0.0,0.0,0.0,0.0,0.0,0.0,0.0,0.0,0.0,0.0,0.0,0.0,0.0,0.0,0.0,0.0,0.0,0.0,-6.5585,-6.5585,-6.6019,-6.6772,-6.5902,-6.5982,-6.6733,0.0,0.0,0.0,0.0,0.0,0.0,0.0,0.0,0.0,0.0,0.0,0.0,0.0,0.0,0.0,0.0,0.0,0.0,0.0,0.0,0.0,0.0,0.0,0.0,0.0,0.0,0.0,0.0,0.0,0.0,0.0,0.0,0.0,0.0,0.0,0.0,0.0,0.0,0.0,0.0,0.0,0.0,0.0,0.0,0.0,0.0,0.0,0.0,0.0,-7.4486,-7.4843,-7.5675,-7.5794,-7.6194,-7.7105,-7.7926,-7.8748,-7.9609,-8.1328,-8.2617,-8.3515,-8.3594,-8.4453,-8.6054,-8.6172,-8.664,-8.7383,-8.7422,-8.7422,-8.75,-8.8281,-8.8672,-8.8789,-8.9609,-8.9961,-9.0117,-9.0976,-9.1288,-9.1403,0.0,0.0,0.0,0.0,0.0,0.0,0.0,0.0,0.0,0.0,0.0,0.0,0.0,-6.8279,-6.7732,-6.6873,0.0,0.0,0.0,0.0,0.0,0.0,0.0,0.0,0.0,0.0,0.0,0.0,0.0,-6.3596,-6.6338,-6.5284,-6.5524,-6.682,-6.5991,-6.6075,-6.6828,-6.597,0.0,0.0,0.0,0.0,0.0,0.0,0.0,0.0,0.0,0.0,0.0,0.0,0.0,0.0,0.0,0.0,0.0,0.0,0.0,0.0,0.0,0.0,0.0,0.0,0.0,0.0,0.0,0.0,0.0,0.0,0.0,0.0,0.0,0.0,0.0,0.0,0.0,0.0,0.0,0.0,0.0,0.0,0.0,0.0,0.0,0.0,0.0,0.0,0.0,-7.5477,-7.5794,-7.6352,-7.7103,-7.7927,-7.828,-7.914,-8.0508,-8.1719,-8.2734,-8.3594,-8.4179,-8.5039,-8.6211,-8.6797,-8.7187,-8.7539,-8.8047,-8.8281,-8.8281,-8.8594,-8.9375,-9.0351,-9.0117,-9.0664,-9.1562,-9.0742,-9.1172,-9.2109,0.0,0.0,0.0,0.0,0.0,0.0,0.0,0.0,0.0,0.0,0.0,0.0,0.0,0.0,-6.7732,-6.6873,0.0,0.0,0.0,0.0,0.0,0.0,0.0,0.0,0.0,0.0,0.0,0.0,0.0,0.0,0.0,0.0,-6.5765,-6.6867,-6.6278,-6.6358,0.0,0.0,0.0,-6.7186,0.0,0.0,-7.2694,0.0,0.0,0.0,0.0,0.0,0.0,0.0,0.0,0.0,0.0,0.0,0.0,0.0,0.0,0.0,0.0,0.0,0.0,0.0,0.0,0.0,0.0,0.0,0.0,0.0,0.0,0.0,0.0,0.0,0.0,0.0,0.0,0.0,0.0,0.0,0.0,0.0,0.0,0.0,0.0,0.0,0.0,0.0,0.0,0.0,-7.6233,-7.6868,-7.7693,-7.8788,-7.9179,-8.0,-8.1406,-8.2304,-8.3164,-8.4062,-8.4922,-8.5781,-8.664,-8.7226,-8.7656,-8.7929,-8.8476,-8.8711,-8.875,-8.9336,-9.0078,-9.0859,-9.0859,-9.1211,-9.164,-9.1094,-9.1406,-9.2109,0.0,0.0,0.0,0.0,0.0,0.0,0.0,0.0,0.0,0.0,0.0,0.0,0.0,0.0,0.0,-6.6912,0.0,0.0,0.0,0.0,0.0,0.0,0.0,0.0,0.0,0.0,0.0,0.0,0.0,0.0,0.0,0.0,-6.6821,0.0,-6.6911,-6.6911,-6.6911,0.0,-6.6913,-6.7344,0.0,-7.3047,-7.1367,0.0,0.0,0.0,-7.4844,-7.4765,0.0,-7.375,0.0,0.0,0.0,0.0,0.0,0.0,0.0,0.0,0.0,0.0,0.0,0.0,0.0,0.0,0.0,0.0,0.0,0.0,0.0,0.0,0.0,0.0,0.0,0.0,0.0,0.0,0.0,0.0,0.0,0.0,0.0,0.0,0.0,0.0,0.0,0.0,-7.5926,-7.632,-7.7184,-7.7263,-7.8045,-7.9687,-8.0586,-8.1445,-8.2344,-8.3164,-8.4062,-8.4961,-8.5781,-8.664,-8.75,-8.7539,-8.7969,-8.8711,-8.875,-8.8789,-8.8906,-9.0586,-9.0781,-9.0234,-9.1875,-9.1523,-9.0273,-9.1914,-9.2031,-9.1445,0.0,0.0,0.0,0.0,0.0,0.0,0.0,0.0,0.0,0.0,0.0,0.0,-6.82,-6.8083,-6.8005,-6.7771,0.0,0.0,0.0,0.0,0.0,0.0,0.0,0.0,0.0,0.0,0.0,0.0,0.0,0.0,0.0,0.0,0.0,0.0,-6.6911,-6.6912,-6.6914,-6.6914,0.0,0.0,-7.1133,-7.3047,0.0,0.0,0.0,0.0,0.0,-7.8984,-7.7383,0.0,-7.4531,-7.0664,0.0,0.0,0.0,0.0,0.0,0.0,-6.1875,0.0,0.0,0.0,0.0,0.0,0.0,0.0,0.0,0.0,0.0,0.0,0.0,0.0,0.0,0.0,0.0,0.0,0.0,0.0,0.0,0.0,0.0,0.0,0.0,0.0,0.0,0.0,-7.6829,-7.7183,-7.8005,-7.9257,-8.0156,-8.0625,-8.1484,-8.2344,-8.3242,-8.3476,-8.4336,-8.5859,-8.6094,-8.664,-8.7539,-8.8086,-8.8476,-8.8789,-9.0039,-9.0586,-9.0586,-9.0429,-9.0976,-9.1797,-9.1015,-9.1211,-9.1797,-9.1015,-9.1367,-9.2187,0.0,0.0,0.0,0.0,0.0,0.0,0.0,0.0,0.0,0.0,0.0,0.0,-6.8747,-6.863,-6.8513,0.0,0.0,0.0,0.0,0.0,0.0,0.0,0.0,0.0,0.0,0.0,0.0,0.0,0.0,0.0,0.0,0.0,0.0,0.0,0.0,0.0,0.0,0.0,0.0,0.0,-7.1406,0.0,0.0,-7.7617,-7.914,0.0,0.0,0.0,-7.7695,-7.9492,-7.5898,0.0,0.0,0.0,0.0,0.0,0.0,0.0,0.0,0.0,0.0,0.0,0.0,0.0,-6.8242,-6.9375,0.0,0.0,0.0,0.0,0.0,0.0,0.0,0.0,0.0,0.0,0.0,0.0,0.0,0.0,0.0,0.0,0.0,-7.7141,-7.7145,-7.7145,-7.7186,-7.7577,-7.8397,-8.0078,-8.1015,-8.1015,-8.1836,-8.2734,-8.3594,-8.3945,-8.4844,-8.6211,-8.6562,-8.7187,-8.8008,-8.8476,-8.9101,-8.9844,-9.0859,-9.1523,-9.1758,-9.0508,-9.0586,-9.1484,-9.1211,-9.1054,-9.0976,-9.1054,-9.1484,-9.2031,0.0,0.0,0.0,0.0,0.0,0.0,0.0,0.0,0.0,0.0,0.0,0.0,-6.9762,-6.9606,-6.9215,0.0,0.0,0.0,0.0,0.0,0.0,0.0,0.0,0.0,0.0,0.0,0.0,0.0,0.0,0.0,0.0,0.0,0.0,0.0,0.0,0.0,0.0,0.0,0.0,-6.7851,-7.2461,-7.3047,0.0,0.0,-7.7305,-7.5742,-7.8086,-7.793,-7.7148,-8.0703,-7.7226,0.0,0.0,0.0,0.0,0.0,-6.2656,0.0,0.0,0.0,0.0,0.0,0.0,0.0,-6.8437,-6.9648,-7.0976,0.0,0.0,0.0,0.0,0.0,0.0,0.0,0.0,0.0,0.0,0.0,0.0,0.0,0.0,0.0,-7.7099,-7.7186,-7.7187,-7.7187,-7.7383,-7.7851,-7.8711,-8.0273,-8.1133,-8.1133,-8.1992,-8.2851,-8.375,-8.4609,-8.5469,-8.6367,-8.7226,-8.8008,-8.8711,-8.8906,-8.9844,-9.1328,-9.1406,-9.1875,-9.2461,-9.082,-9.0195,-9.0429,-9.1797,-9.1015,-8.9414,-9.1758,-9.2109,-9.1562,0.0,0.0,0.0,0.0,0.0,0.0,0.0,0.0,0.0,0.0,0.0,0.0,-7.1441,-7.0855,0.0,0.0,0.0,0.0,0.0,0.0,0.0,0.0,0.0,0.0,0.0,0.0,0.0,0.0,0.0,0.0,0.0,0.0,0.0,0.0,0.0,0.0,0.0,0.0,0.0,-7.1092,-7.2108,0.0,-7.4258,-7.8047,-8.0039,-8.0859,-8.1367,-8.1328,-8.0859,-7.9648,-7.7773,-7.5234,0.0,0.0,0.0,-6.4805,0.0,0.0,0.0,0.0,0.0,0.0,0.0,0.0,-6.6055,-6.7031,-6.8008,0.0,0.0,0.0,0.0,0.0,0.0,0.0,0.0,0.0,0.0,0.0,0.0,0.0,0.0,0.0,-7.7183,-7.7187,-7.7187,-7.7187,-7.8437,-7.9609,-8.0469,-8.1484,-8.2031,-8.2031,-8.289,-8.375,-8.4648,-8.5508,-8.6367,-8.7265,-8.8086,-8.8554,-8.875,-9.0156,-9.0976,-9.1328,-9.2031,-9.2422,-9.2539,-9.1484,-9.1445,-9.1992,-9.0937,-9.1054,-9.1914,-9.2422,-9.25,-9.2383,0.0,0.0,0.0,0.0,0.0,0.0,0.0,0.0,0.0,0.0,0.0,0.0,-7.1987,-7.1206,0.0,0.0,0.0,0.0,0.0,0.0,0.0,0.0,0.0,0.0,0.0,0.0,0.0,0.0,0.0,0.0,0.0,0.0,0.0,0.0,0.0,0.0,0.0,0.0,-6.7222,-6.9099,-7.2577,0.0,-7.8086,-8.0664,-8.2187,-8.289,-8.2461,-8.2304,-8.1953,-7.9805,-7.7383,0.0,0.0,-7.1836,-6.9492,0.0,-6.6523,-6.6797,0.0,0.0,0.0,-6.2344,0.0,0.0,0.0,-6.6289,-6.7148,0.0,0.0,0.0,0.0,0.0,0.0,0.0,0.0,0.0,0.0,0.0,0.0,0.0,0.0,0.0,-7.7184,-7.7187,-7.7383,-7.7812,-7.9414,-8.0547,-8.0976,-8.1836,-8.25,-8.2929,-8.3359,-8.4219,-8.5547,-8.5976,-8.664,-8.75,-8.832,-8.8945,-8.9375,-9.0703,-9.1523,-9.1953,-9.2422,-9.2344,-9.1914,-9.1484,-9.1562,-9.1836,-9.0508,-9.0273,-9.0742,-9.164,-9.1953,-9.1992,0.0,0.0,0.0,0.0,0.0,0.0,0.0,0.0,0.0,0.0,0.0,0.0,0.0,-7.2146,0.0,0.0,0.0,0.0,0.0,0.0,0.0,0.0,0.0,-6.7107,0.0,0.0,0.0,0.0,0.0,0.0,0.0,0.0,0.0,0.0,0.0,0.0,0.0,0.0,0.0,-6.8318,0.0,-7.6953,-7.8828,-8.1562,-8.2617,-8.2617,-8.2578,-8.2422,-8.2031,-8.0273,-7.7305,-7.4531,-7.5976,-7.3945,0.0,0.0,0.0,0.0,0.0,0.0,0.0,0.0,0.0,-6.3789,0.0,0.0,0.0,0.0,0.0,0.0,0.0,0.0,0.0,0.0,0.0,0.0,0.0,0.0,0.0,0.0,0.0,0.0,-7.6716,-7.6835,-7.75,-7.8867,-7.9922,-8.0742,-8.1211,-8.1914,-8.2695,-8.3554,-8.375,-8.4609,-8.6172,-8.6367,-8.6875,-8.7734,-8.8554,-8.9414,-9.0273,-9.1133,-9.1914,-9.2617,-9.2617,-9.2187,-9.1523,-9.1172,-9.1054,-9.1015,-9.0469,-8.9922,-8.9609,-9.1015,-9.164,-9.1914,-7.3002,-7.3236,0.0,0.0,0.0,0.0,0.0,0.0,0.0,0.0,0.0,0.0,0.0,-7.5511,-7.6339,0.0,0.0,0.0,-7.1579,0.0,0.0,0.0,0.0,0.0,-7.1324,0.0,0.0,0.0,0.0,0.0,0.0,0.0,0.0,0.0,-6.8537,0.0,0.0,0.0,-7.1638,0.0,-7.5898,-7.3398,0.0,-7.668,-7.9062,-7.9453,-8.2383,-8.2969,-8.2031,0.0,-7.8906,-7.7422,0.0,-7.4922,-7.5234,-6.9687,0.0,0.0,0.0,0.0,0.0,0.0,-6.4101,0.0,-6.3594,0.0,-6.4609,-6.4726,0.0,0.0,0.0,0.0,0.0,0.0,0.0,0.0,0.0,0.0,0.0,0.0,0.0,0.0,0.0,-7.5586,-7.7344,-8.0469,-7.9531,-7.9765,-8.2031,-8.2265,-8.2695,-8.3554,-8.4336,-8.5234,-8.6172,-8.6953,-8.7773,-8.8554,-8.9453,-9.0312,-9.1172,-9.2031,-9.25,-9.2617,-9.2617,-9.2539,-9.2344,-9.0781,-9.0156,-9.0195,-9.0898,-9.1562,-9.2187,-9.2383,-9.2929,-9.3633,-7.2456,-7.2534,0.0,0.0,0.0,0.0,0.0,0.0,0.0,0.0,0.0,0.0,-7.4525,-7.3827,-7.3991,-7.5521,-7.4433,-7.2951,-7.1345,-7.1384,0.0,0.0,0.0,0.0,0.0,0.0,0.0,0.0,-6.4726,0.0,0.0,0.0,0.0,0.0,-6.9907,0.0,-7.1283,0.0,-7.0428,0.0,0.0,0.0,0.0,-7.9219,-8.2656,-8.2344,-8.3281,-8.3359,-8.2851,0.0,-7.9687,0.0,0.0,0.0,0.0,0.0,0.0,0.0,0.0,0.0,0.0,0.0,0.0,0.0,-6.2851,0.0,-6.2656,0.0,0.0,0.0,0.0,0.0,0.0,0.0,0.0,0.0,0.0,0.0,0.0,0.0,0.0,0.0,0.0,0.0,0.0,0.0,-7.9883,-8.0117,-8.2187,-8.2773,-8.3437,-8.4336,-8.5195,-8.6054,-8.6953,-8.7773,-8.8359,-8.8711,-9.0117,-9.0937,-9.1328,-9.2187,-9.2617,-9.2617,-9.2617,-9.2031,-9.1094,-9.1406,-9.0898,-9.0078,-9.0976,-9.1211,-9.1211,-9.2226,-9.3164,-9.3984,-7.1987,0.0,0.0,0.0,0.0,0.0,0.0,0.0,0.0,0.0,0.0,0.0,-7.5227,-7.4181,-7.4306,-7.6189,-7.5415,-7.4245,-7.2915,-7.2756,-7.201,0.0,-6.8674,-6.8242,-6.9262,0.0,0.0,0.0,0.0,0.0,0.0,0.0,0.0,0.0,0.0,-7.1748,-7.3392,0.0,0.0,-7.1757,-7.2148,-7.2773,-7.4336,-8.1875,-8.4961,-8.5156,-8.4531,-8.414,-8.375,-8.2383,-8.0156,0.0,-8.0273,0.0,0.0,0.0,0.0,0.0,-6.7305,0.0,0.0,0.0,0.0,0.0,0.0,0.0,0.0,0.0,0.0,0.0,0.0,0.0,0.0,0.0,0.0,0.0,0.0,0.0,0.0,0.0,0.0,0.0,0.0,0.0,0.0,-8.0078,-7.9297,-7.9844,-8.25,-8.3242,-8.4101,-8.5234,-8.5859,-8.6601,-8.75,-8.8281,-8.8828,-8.9062,-9.0586,-9.1445,-9.1679,-9.2304,-9.2617,-9.2617,-9.2617,-9.1875,-9.0781,-9.1836,-9.1484,-9.0429,-9.1328,-9.1289,-9.0859,-9.2148,-9.3281,-9.4375,-7.1987,-7.1987,0.0,0.0,0.0,0.0,0.0,0.0,0.0,0.0,-7.5969,-7.7023,-7.7023,-7.9196,-8.0691,-8.0808,-8.1521,-8.0898,-7.8318,-7.5853,-7.5927,-7.9169,-7.1301,-6.9574,-7.5484,0.0,0.0,0.0,0.0,0.0,0.0,0.0,0.0,0.0,0.0,-7.0735,-7.0935,-7.25,-7.6055,-8.0508,-7.9687,-8.2383,-8.6445,0.0,-8.3242,-8.6133,-8.6133,0.0,0.0,-8.1914,-8.039,0.0,0.0,0.0,0.0,0.0,0.0,0.0,0.0,0.0,0.0,-6.5312,0.0,0.0,0.0,0.0,-6.2695,0.0,0.0,0.0,0.0,0.0,0.0,0.0,0.0,0.0,0.0,0.0,0.0,0.0,0.0,0.0,0.0,0.0,-7.3047,-7.8203,-7.6992,-7.8242,-8.3281,-8.3594,-8.4375,-8.6094,-8.6172,-8.6601,-8.75,-8.8281,-8.9101,-8.9961,-9.0859,-9.1758,-9.2578,-9.2578,-9.2617,-9.2617,-9.2617,-9.2578,-9.2461,-9.1679,-9.1328,-9.1328,-9.2226,-9.2539,-9.2539,-9.2578,-9.3672,-9.5273,0.0,0.0,0.0,0.0,0.0,0.0,0.0,-7.3705,-7.433,-7.6008,-7.6212,-7.6883,-7.8638,-7.8575,-7.9131,-8.0853,-8.1287,-8.0819,-7.9372,-7.7418,-7.6596,-7.7177,-7.1078,-6.916,-7.2399,-6.8722,0.0,0.0,0.0,0.0,0.0,0.0,0.0,0.0,0.0,-7.1671,0.0,0.0,0.0,0.0,0.0,-8.1797,-8.4961,0.0,-8.6015,-8.6992,-8.6406,-8.6015,0.0,-8.4062,-8.2226,-8.0664,-8.125,-7.9687,-7.7656,-7.7617,-7.7226,-7.6289,0.0,0.0,-7.4531,-6.9062,0.0,0.0,0.0,0.0,0.0,0.0,0.0,0.0,0.0,0.0,0.0,0.0,0.0,0.0,0.0,0.0,0.0,0.0,0.0,0.0,0.0,0.0,0.0,-7.7422,-7.8672,-8.0547,-8.3437,-8.4687,-8.5586,-8.6172,-8.6758,-8.7461,-8.8281,-8.914,-9.0,-9.0859,-9.1758,-9.2304,-9.2617,-9.2617,-9.2617,-9.2617,-9.2617,-9.2265,-9.1719,-9.1406,-9.1289,-9.1289,-9.0976,-9.1953,-9.3594,-9.4765,-9.5547,-9.6172,-7.2065,0.0,0.0,0.0,0.0,0.0,0.0,0.0,-7.4447,-7.6399,-7.6685,-7.7593,-7.9894,-7.9439,-7.976,-8.1755,-8.2225,-8.1601,-7.9804,-7.8983,-7.8161,-7.7301,-7.343,-7.2137,-7.3854,-7.0764,0.0,0.0,0.0,-6.6058,0.0,0.0,0.0,0.0,0.0,0.0,-7.464,0.0,-7.6992,0.0,0.0,-8.3008,0.0,0.0,-8.6914,-8.6172,0.0,-8.664,-8.6523,-8.5664,-8.4258,-8.2929,-8.3437,-8.1719,-7.9531,-7.9765,-7.9062,-7.7851,-7.6406,-7.7226,0.0,-7.2026,-7.1555,0.0,-6.5539,0.0,-6.4522,0.0,0.0,0.0,0.0,0.0,0.0,0.0,0.0,0.0,0.0,0.0,0.0,0.0,0.0,0.0,0.0,0.0,-7.3594,-7.7773,-7.8789,-8.0742,0.0,-8.5586,-8.6328,-8.664,-8.7226,-8.789,-8.8672,-8.957,-9.0429,-9.1328,-9.2187,-9.2617,-9.2617,-9.2617,-9.2617,-9.2617,-9.2617,-9.2109,-9.1328,-9.164,-9.1758,-9.1758,-9.1836,-9.3086,-9.4883,-9.539,-9.6133,-9.6953,0.0,0.0,0.0,0.0,-7.2026,0.0,-7.2104,-7.3471,-7.4876,-7.5852,-7.7466,-7.9194,-8.099,-8.1943,-8.277,-8.3591,-8.4452,-8.3554,-8.0234,-8.0663,-8.0741,-8.0039,-7.816,-7.7924,-7.9724,-7.5501,-7.2878,0.0,0.0,0.0,0.0,0.0,0.0,0.0,-6.5648,0.0,-7.4601,-7.4648,-7.8164,-8.3828,-8.5469,-8.6094,-8.6133,-8.7109,-8.5898,-8.3945,-8.6562,-8.75,-8.7383,-8.6523,-8.625,-8.5898,-8.4258,-8.3711,-8.3476,-8.2617,-8.2344,-8.1836,-7.9375,-7.8672,-7.7811,-7.4262,-7.3345,0.0,0.0,0.0,-6.8018,0.0,0.0,0.0,0.0,0.0,0.0,0.0,0.0,0.0,0.0,0.0,0.0,0.0,0.0,0.0,0.0,-6.8476,-7.0664,-7.8789,-7.7422,0.0,0.0,0.0,-8.6523,-8.7461,-8.7539,-8.7969,-8.875,-8.9648,-9.0508,-9.1367,-9.2187,-9.2617,-9.2617,-9.2617,-9.2578,-9.2539,-9.2578,-9.207,-9.1289,-9.2148,-9.25,-9.2695,-9.4375,-9.5625,-9.6289,-9.4687,-9.5586,-9.7539,-7.2026,-7.2534,-7.2963,0.0,-7.2417,-7.2417,-7.3666,-7.4212,-7.5501,-7.8311,-7.9653,-8.1226,-8.3656,-8.4094,-8.4333,-8.4531,-8.5351,0.0,0.0,0.0,0.0,-8.4453,-7.9804,-7.828,-8.0622,-7.5817,-7.2882,-7.2008,0.0,0.0,-6.6809,0.0,0.0,0.0,0.0,0.0,-7.4645,-7.5273,-7.9062,-8.4609,-8.5039,-8.4453,-8.3594,0.0,-8.5898,-8.3945,-8.6562,-8.75,-8.7461,-8.7226,-8.6758,-8.6133,-8.5664,-8.5078,-8.4414,-8.3515,-8.3281,-8.2969,-8.1679,-8.1328,-8.0664,-7.781,-7.654,-7.5218,0.0,0.0,0.0,0.0,0.0,0.0,0.0,0.0,0.0,0.0,0.0,0.0,0.0,0.0,0.0,-6.5351,0.0,0.0,-6.5273,-6.9609,-7.3281,-7.4844,-7.8476,0.0,0.0,0.0,0.0,-8.7422,-8.8086,-8.8789,-8.9648,-9.0547,-9.1406,-9.2265,-9.25,-9.2617,-9.2617,-9.2617,-9.2265,-9.1679,-9.2304,-9.1758,-9.0351,-9.0586,-9.1054,-9.1679,-9.2148,-9.4023,-9.6523,-9.6679,-9.6758,-9.6758,-7.2651,0.0,0.0,-7.433,-7.429,-7.4564,-7.5501,-7.5305,-7.6047,-7.878,-8.0238,0.0,-8.3574,-8.4796,-8.5622,-8.5976,-8.6484,0.0,-8.4609,0.0,0.0,-8.4492,-8.2695,-8.2187,-8.3241,-7.9687,0.0,-7.4793,0.0,0.0,0.0,0.0,0.0,0.0,0.0,-6.8786,0.0,-7.5859,-7.8984,-8.2226,-8.3711,0.0,0.0,-8.6054,-8.625,-8.5508,-8.6953,-8.75,-8.75,-8.75,-8.7187,-8.6719,-8.6328,-8.5859,-8.5312,-8.4414,-8.3906,-8.3476,-8.3008,-8.2578,-8.1913,-8.0363,-7.958,-7.8355,-7.5329,-7.4587,-7.4359,0.0,-7.3717,-7.3983,0.0,0.0,0.0,0.0,0.0,0.0,0.0,0.0,0.0,0.0,-6.7539,0.0,-6.4414,-7.082,-7.4961,-7.4453,-7.8281,0.0,0.0,0.0,0.0,-8.7929,-8.7734,-8.8554,-9.0547,-9.0312,-9.0976,-9.2617,-9.2617,-9.2617,-9.2617,-9.2617,-9.2344,-9.1875,-9.1992,-9.125,-9.0078,-9.082,-9.1211,-9.1445,-9.2969,-9.5,-9.7031,-9.7148,-9.6875,-9.6406,0.0,0.0,0.0,0.0,0.0,-7.7531,-7.7765,-7.714,-7.7218,-7.8858,0.0,-8.2001,-8.2862,-8.4988,-8.6636,-8.734,-8.746,-8.6211,-8.3164,-8.582,-8.6133,-8.3125,-8.5898,-8.7148,-8.6406,-8.4531,-8.1875,0.0,0.0,0.0,0.0,0.0,0.0,0.0,0.0,0.0,0.0,-7.6445,-7.8672,-7.9258,-8.2344,-8.4101,-8.5,-8.5859,-8.6758,-8.75,-8.75,-8.75,-8.75,-8.75,-8.75,-8.7383,-8.6601,-8.6367,-8.6211,-8.5312,-8.4531,-8.3906,-8.3789,-8.3125,-8.2417,-8.2148,-8.1999,-8.1091,-7.7969,-7.7235,-7.7254,-7.7254,-7.5516,-7.5494,-8.0284,0.0,0.0,0.0,0.0,0.0,0.0,0.0,0.0,0.0,0.0,0.0,-6.5859,-7.1601,-7.539,-7.539,0.0,0.0,0.0,0.0,0.0,-8.8594,-8.7383,-8.8086,-9.0937,-8.9804,-9.0234,-9.2265,-9.25,-9.2617,-9.2617,-9.2617,-9.2539,-9.2383,-9.164,-9.0742,-8.9961,-9.1601,-9.1992,-9.1953,-9.4961,-9.6719,-9.7422,-9.6484,-9.6172,-9.5937,0.0,0.0,0.0,0.0,0.0,-7.9717,-8.1161,-8.1278,-8.1513,-8.2489,-8.4131,-8.5543,-8.6415,-8.6936,-8.7257,-8.7378,-8.746,0.0,0.0,0.0,0.0,-8.6601,-8.7187,-8.7422,-8.7265,-8.4844,-8.1875,0.0,0.0,0.0,0.0,0.0,0.0,0.0,0.0,0.0,-7.4101,-7.7187,0.0,-8.1758,-8.3086,-8.4101,-8.5,-8.5859,-8.6758,-8.75,-8.75,-8.75,-8.75,-8.75,-8.75,-8.7461,-8.7304,-8.7265,-8.7109,-8.6211,-8.5859,-8.5586,-8.4883,-8.4023,-8.3318,-8.3194,-8.2489,-8.1714,-8.0958,-8.0732,-8.0624,-8.0624,-8.0299,-7.9903,-7.9582,0.0,0.0,0.0,0.0,0.0,0.0,0.0,0.0,0.0,0.0,-7.293,0.0,0.0,0.0,0.0,0.0,0.0,0.0,0.0,0.0,0.0,-8.9101,0.0,0.0,0.0,-9.1445,-9.0469,-9.1914,-9.2617,-9.2617,-9.2617,-9.2226,-9.1523,-9.1367,-9.039,-8.9023,-9.0039,-9.164,-9.3515,-9.4101,-9.5312,-9.6523,-9.4922,-9.4375,-9.4297,0.0,0.0,0.0,0.0,0.0,0.0,0.0,-8.4362,-8.4597,-8.3621,-8.4245,-8.4912,-8.5312,-8.6579,-8.741,-8.7414,-8.7459,-8.75,-8.75,-8.75,-8.75,-8.75,-8.75,-8.75,-8.75,-8.6289,-8.3281,-7.8437,0.0,0.0,0.0,0.0,0.0,0.0,0.0,-7.0508,0.0,0.0,0.0,-8.0469,-8.2226,-8.3437,-8.4336,-8.5195,-8.6054,-8.6875,-8.7344,-8.75,-8.75,-8.75,-8.75,-8.75,-8.75,-8.75,-8.7422,-8.6992,-8.6562,-8.6094,-8.5703,-8.4922,-8.4256,-8.4107,-8.3713,-8.317,-8.2509,-8.2329,-8.2134,-8.1606,-8.1491,-8.1023,-7.9408,-7.7071,-7.5011,-7.3873,0.0,0.0,0.0,0.0,0.0,0.0,0.0,0.0,0.0,0.0,0.0,0.0,0.0,0.0,0.0,0.0,-8.3594,0.0,0.0,0.0,-9.0703,0.0,-9.1289,-9.1367,-9.2187,-9.2617,-9.2617,-9.2617,-9.2109,-9.1289,-9.1289,-9.0586,-8.9453,-9.0312,-9.2226,-9.4531,-9.4062,-9.4687,-9.5664,-9.4375,-9.3906,-9.3828,0.0,-7.7101,0.0,0.0,-8.1122,-8.2489,-8.448,-8.6275,-8.6666,-8.4597,-8.4323,-8.4323,-8.4323,-8.6186,-8.7408,-8.7408,-8.7459,-8.75,-8.75,-8.75,-8.75,-8.75,-8.75,-8.75,-8.75,-8.75,-8.4804,0.0,0.0,0.0,0.0,0.0,0.0,0.0,0.0,0.0,0.0,0.0,-7.8984,-7.9492,-8.1484,-8.2812,-8.3711,-8.457,-8.5429,-8.6328,-8.7187,-8.75,-8.75,-8.75,-8.75,-8.75,-8.75,-8.75,-8.75,-8.75,-8.6992,-8.6484,-8.6484,-8.5859,-8.5155,-8.5005,-8.4834,-8.4447,-8.3517,-8.3299,-8.3058,-8.2243,-8.2092,-8.153,-7.9756,-7.8246,0.0,0.0,0.0,0.0,0.0,0.0,0.0,0.0,0.0,0.0,-7.457,0.0,0.0,0.0,0.0,-7.8789,-8.3086,-8.2656,-8.457,0.0,0.0,-8.9609,-9.1484,0.0,-9.1054,-9.2031,-9.2422,-9.2617,-9.2617,-9.2617,-9.2109,-9.1289,-9.1094,-9.0625,-9.0078,-9.0937,-9.2734,-9.4844,-9.3945,-9.414,-9.4804,-9.3945,-9.3633,-9.3515,0.0,0.0,0.0,0.0,0.0,-8.4519,-8.4753,-8.6275,-8.7329,-8.7056,-8.7017,-8.7017,-8.7017,-8.724,-8.7408,-8.7408,-8.7459,-8.75,-8.75,-8.75,-8.75,-8.75,-8.75,-8.75,-8.75,-8.75,-8.5664,0.0,0.0,-7.5273,0.0,0.0,0.0,0.0,0.0,0.0,0.0,-7.9414,-8.0508,-8.1953,-8.2187,-8.2812,-8.3711,-8.457,-8.5429,-8.6328,-8.7187,-8.75,-8.75,-8.75,-8.75,-8.75,-8.75,-8.75,-8.75,-8.75,-8.7422,-8.7383,-8.7383,-8.6758,-8.6053,-8.5903,-8.5264,-8.4657,-8.4389,-8.4279,-8.4146,-8.4049,-8.4049,-8.3338,-8.0994,-8.2221,-8.2104,0.0,0.0,0.0,0.0,0.0,-7.9086,-8.1523,0.0,0.0,0.0,-7.4492,0.0,0.0,-7.7617,-7.789,-8.2187,-8.2344,-8.4297,-8.8672,-8.875,-8.8476,-8.7969,-9.0898,-9.164,-9.0273,-9.1836,-9.2617,-9.2617,-9.2617,-9.2109,-9.125,-9.0469,-9.0078,-9.0078,-9.0937,-9.2383,-9.3945,-9.3047,-9.3242,-9.3906,-9.3047,-9.2734,-9.2695,0.0,0.0,0.0,0.0,0.0,0.0,0.0,-8.6939,-8.7404,-8.7404,-8.7404,-8.7404,-8.7404,-8.7397,-8.7408,-8.7408,-8.7459,-8.75,-8.75,-8.75,-8.75,-8.75,-8.75,-8.75,-8.75,-8.75,-8.5781,0.0,0.0,0.0,0.0,0.0,0.0,0.0,0.0,-7.8828,-8.1328,-8.2383,-8.3203,-8.3867,-8.3867,-8.4062,-8.4531,-8.5937,-8.6679,-8.7109,-8.7929,-8.8203,-8.8164,-8.7656,-8.75,-8.75,-8.75,-8.75,-8.75,-8.75,-8.75,-8.75,-8.75,-8.7265,-8.6953,-8.6909,-8.6633,-8.6194,-8.5551,-8.5286,-8.5035,-8.4407,-8.4311,-8.4181,-8.3845,-8.3292,-8.2922,-8.2861,0.0,0.0,0.0,0.0,0.0,0.0,0.0,0.0,0.0,0.0,0.0,0.0,0.0,-7.7226,-8.2031,-8.3281,0.0,-8.6367,0.0,-9.039,-8.9023,-9.1406,-9.2265,-9.1562,-9.2265,-9.2617,-9.2578,-9.207,-9.164,-9.1289,-9.0937,-9.1094,-9.1601,-9.1953,-9.25,-9.3086,-9.2734,-9.2812,-9.3086,-9.2734,-9.2617,-9.2617,-8.2996,0.0,-8.3152,0.0,-8.5065,-8.526,-8.7134,-8.7404,-8.7404,-8.7404,-8.7404,-8.7404,-8.7404,-8.7397,-8.7408,-8.7408,-8.7459,-8.75,-8.75,-8.75,-8.75,-8.75,-8.75,0.0,-8.75,-8.75,-8.6289,-8.3828,-8.039,0.0,0.0,0.0,0.0,0.0,-8.0976,-8.2148,-8.3515,-8.4765,-8.5117,-8.4883,-8.4883,-8.5039,-8.5429,-8.6914,-8.7656,-8.7969,-8.8789,-8.9062,-8.8984,-8.8437,-8.8047,-8.7812,-8.7578,-8.75,-8.75,-8.75,-8.75,-8.75,-8.75,-8.75,-8.75,-8.75,-8.75,-8.7303,-8.6527,-8.6249,-8.5928,-8.5203,-8.5057,-8.5307,-8.6077,-8.4732,-8.4083,-8.5682,0.0,0.0,0.0,-8.6241,0.0,0.0,-8.5,-8.4297,-8.4844,-8.1289,0.0,0.0,0.0,0.0,0.0,-8.4101,0.0,0.0,0.0,0.0,-9.0,-9.1719,-9.2617,-9.2617,-9.2617,-9.2617,-9.2578,-9.1445,-9.1054,-9.1289,-9.1015,-9.1406,-9.2226,-9.25,-9.2617,-9.2617,-9.2617,-9.2617,-9.2617,-9.2617,-9.2617,-9.2617,-8.4597,-8.5456,-8.6314,-8.7212,-8.7368,-8.7368,-8.7404,-8.7404,-8.7404,-8.7404,-8.7404,-8.7404,-8.7404,-8.7397,-8.7408,-8.7408,-8.7459,-8.75,-8.75,-8.75,-8.75,0.0,0.0,-8.75,-8.75,-8.75,-8.7461,-8.7422,0.0,0.0,-8.2109,0.0,-7.9414,-8.3515,-8.2656,-8.3711,-8.6133,-8.6172,-8.5703,-8.4883,-8.4883,-8.5429,-8.6289,-8.7148,-8.8008,-8.8789,-8.9687,-8.9961,-8.9961,-8.9961,-8.9414,-8.8554,-8.7734,-8.75,-8.75,-8.75,-8.75,-8.75,-8.75,-8.75,-8.75,-8.75,-8.75,-8.7459,-8.7228,-8.7068,-8.6933,-8.6797,-8.6864,-8.7013,-8.7159,-8.7332,-8.656,-8.3875,0.0,0.0,0.0,-8.3547,0.0,-8.3633,-7.914,-7.8359,-8.4336,-8.0234,0.0,0.0,0.0,0.0,0.0,0.0,0.0,-8.9844,-9.0,0.0,-9.0,-9.1719,-9.2617,-9.2617,-9.2617,-9.2617,-9.2539,-9.082,-9.0508,-9.125,-9.039,-9.0508,-9.1367,-9.2226,-9.2617,-9.2617,-9.2617,-9.2617,-9.2617,-9.2617,-9.2617,-9.2617,-8.8305,-8.8579,-8.8852,-8.9125,-8.8696,-8.8305,-8.8305,-8.7798,-8.7404,-8.7404,-8.7404,-8.7404,-8.7404,-8.7397,-8.7408,0.0,-8.7459,-8.75,0.0,-8.75,-8.75,-8.75,-8.75,-8.75,-8.75,-8.75,-8.75,-8.75,0.0,0.0,0.0,-8.1797,-8.3242,-8.625,-8.5976,-8.6328,-8.7109,-8.7109,-8.6914,-8.6719,-8.7265,-8.7656,-8.8047,-8.9531,-9.0234,-9.0508,-9.0781,-9.0898,-9.0781,-9.0195,-8.9804,-8.9531,-8.9297,-8.8437,-8.75,-8.75,-8.75,-8.75,-8.75,-8.75,-8.75,-8.75,-8.7415,-8.7277,-8.7219,-8.704,-8.6864,-8.6807,-8.6903,-8.7058,-8.7159,-8.7372,-8.7226,-8.6325,-8.6913,0.0,-8.7067,0.0,-8.7304,-8.789,-8.6523,-8.6484,-8.9023,-8.5664,0.0,0.0,0.0,0.0,0.0,0.0,0.0,0.0,-9.0234,0.0,-9.0,-9.1719,-9.2617,-9.2617,-9.2617,-9.2304,-9.1719,-9.1758,-9.1601,-9.1328,-9.164,-9.1914,-9.2226,-9.25,-9.2617,-9.2617,-9.2617,-9.2617,-9.2617,-9.2617,-9.2617,-9.2617,-8.9984,-9.0257,-9.0374,-9.0062,-8.9555,-8.9203,-8.9203,-8.8735,-8.8266,-8.7915,-8.7876,-8.7759,-8.7453,-8.7399,0.0,-8.7408,-8.7459,-8.75,-8.75,-8.75,-8.75,-8.75,-8.75,-8.75,-8.75,-8.75,0.0,-8.75,-8.5312,-8.4258,-8.4258,-8.4804,-8.5937,-8.75,-8.75,-8.75,-8.75,-8.75,-8.75,-8.7539,-8.8047,-8.8633,-8.9297,-9.039,-9.1211,-9.1797,-9.1797,-9.1797,-9.1719,-9.1172,-9.0742,-9.0508,-9.0508,-8.9531,-8.8359,-8.8047,-8.7734,-8.75,-8.75,-8.75,-8.75,-8.75,-8.7416,-8.7275,-8.7143,-8.6919,-8.6738,-8.6738,-8.6852,-8.704,-8.7117,-8.7323,-8.7617,-8.789,-8.7969,-8.8242,-8.9062,0.0,-8.9023,0.0,0.0,0.0,0.0,-8.7929,-8.6758,0.0,0.0,0.0,0.0,0.0,-8.8008,-8.8594,-9.1211,-9.207,-9.0976,-9.207,-9.2617,-9.2617,-9.2617,-9.2304,-9.1797,-9.1992,-9.1992,-9.1797,-9.2031,-9.2304,-9.2617,-9.2617,-9.2617,-9.2617,-9.2617,-9.2617,-9.2617,-9.2617,-9.2617,-9.2617,-9.0179,-9.0843,-9.1116,-9.0335,-9.014,-9.0101,-9.0101,-9.0023,-8.9711,-8.8891,-8.8774,-8.8468,-8.7663,-8.752,-8.7526,-8.7566,0.0,0.0,-8.75,-8.75,-8.75,-8.75,-8.75,-8.75,-8.75,-8.75,-8.75,-8.75,-8.75,-8.75,-8.75,-8.75,-8.75,-8.75,-8.75,-8.75,-8.75,-8.75,-8.75,-8.75,-8.7578,-8.8515,-8.9922,-9.0039,-9.1094,-9.2539,-9.2578,-9.2617,-9.2617,-9.2617,-9.207,-9.1406,-9.1406,-9.0781,-8.9922,-8.9062,-8.8242,-8.7656,-8.7656,-8.7656,-8.7656,-8.7617,-8.7539,-8.7369,-8.7046,-8.6786,-8.661,-8.6687,-8.6914,-8.7078,-8.7149,-8.745,-8.789,-8.8632,-8.8789,-8.9101,-8.9961,-9.0078,-8.9219,0.0,0.0,0.0,-8.7773,-8.7851,-8.9101,0.0,0.0,0.0,0.0,0.0,-8.8359,-9.2461,-9.2617,-9.2617,-9.2617,-9.2617,-9.2617,-9.2617,-9.2617,-9.2617,-9.2578,-9.1758,-9.1836,-9.2539,-9.1758,-9.1836,-9.2617,-9.2617,-9.2617,-9.2617,-9.2617,-9.2617,-9.2617,-9.2617,-9.2617,-9.2617,0.0,0.0,-9.2131,-9.1936,-9.1389,-9.0999,-9.0999,-9.0413,-8.9945,-8.9711,-8.9672,-8.96,-8.9422,-8.8809,-8.866,-8.933,-8.8241,-8.75,-8.75,-8.75,-8.75,-8.75,-8.75,-8.75,-8.75,-8.75,-8.75,-8.75,-8.75,-8.75,-8.75,-8.75,-8.75,-8.75,-8.75,-8.75,-8.75,-8.75,-8.75,-8.7539,-8.8164,-8.8633,-8.914,-9.0508,-9.125,-9.1679,-9.2344,-9.2617,-9.2617,-9.2617,-9.2461,-9.2304,-9.2304,-9.1679,-9.082,-8.9961,-8.957,-8.9414,-8.9414,-8.9414,-8.9258,-8.8594,-8.7741,-8.704,-8.6754,-8.6661,-8.6803,-8.7461,-8.7719,-8.8021,-8.8721,-8.9064,-8.9303,-8.9498,-8.9642,-9.0,-9.0859,-9.0976,-9.1015,0.0,-9.1094,-9.1172,-9.1367,-9.1406,-9.0898,0.0,0.0,0.0,-8.9648,-8.9297,-9.0195,-9.2539,-9.2617,-9.2617,-9.2617,-9.2617,-9.2617,-9.2617,-9.2617,-9.2617,-9.2578,-9.2383,-9.2383,-9.2578,-9.2383,-9.2422,-9.2617,-9.2617,-9.2617,-9.2617,-9.2617,-9.2617,-9.2617,-9.2617,-9.2617,-9.2617,-9.2443,-9.2482,-9.2482,-9.2482,-9.2131,-9.1861,-9.1907,-9.1481,-9.1054,-9.063,-9.0594,-9.0442,-9.0023,-8.9599,-8.9487,-8.9959,-8.8476,-8.7656,-8.8008,-8.7695,-8.75,-8.75,-8.75,-8.75,-8.75,-8.75,-8.75,-8.75,-8.75,-8.75,-8.75,-8.75,-8.75,-8.75,-8.75,-8.75,-8.75,-8.75,-8.75,-8.7539,-8.7969,-8.8359,-8.8867,-9.0195,-9.0937,-9.1406,-9.2304,-9.2617,-9.2617,-9.2617,-9.2617,-9.2617,-9.2617,-9.2265,-9.1797,-9.1328,-9.0625,-9.0,-9.0,-9.0,-8.9882,-8.9328,-8.8633,-8.8057,-8.789,-8.7823,-8.7925,-8.8389,-8.8604,-8.8836,-8.9302,-8.9599,-8.9941,-9.0335,-9.0497,-9.0898,-9.1758,-9.1875,-9.207,-9.2539,-9.2617,-9.2617,-9.2617,-9.2617,-9.1992,-9.0586,-9.0937,0.0,-9.0508,-9.0937,-9.1601,-9.2578,-9.2617,-9.2617,-9.2617,-9.2617,-9.2617,-9.2617,-9.3008,-9.3203,-9.3203,-9.3203,-9.3203,-9.3164,-9.2773,-9.2617,-9.2617,-9.2617,-9.2617,-9.2617,-9.2617,-9.2617,-9.2617,-9.2617,-9.2617,-9.2617,-9.2365,-9.2482,-9.2482,-9.2482,-9.2482,-9.2528,-9.2583,-9.2585,-9.2317,-9.1586,-9.1509,-9.12,-9.0464,-9.027,-9.0232,-9.039,-8.8867,-8.8164,-8.8867,-8.8242,-8.7812,-8.7695,-8.7695,-8.7617,-8.75,-8.75,-8.75,-8.75,-8.75,-8.7578,-8.7695,-8.7578,-8.7578,-8.7695,-8.7539,-8.75,-8.75,-8.75,-8.75,-8.75,-8.75,-8.789,-8.8594,-8.9492,-9.0351,-9.1211,-9.2109,-9.25,-9.2617,-9.2617,-9.2617,-9.2617,-9.2617,-9.2617,-9.2617,-9.2617,-9.1562,-9.039,-9.039,-9.0273,-9.0112,-8.9984,-8.9682,-8.937,-8.9376,-8.9293,-8.924,-8.9356,-8.946,-8.9599,-8.9715,-8.994,-9.0296,-9.0764,-9.1187,-9.1639,-9.2108,0.0,-9.2617,-9.2617,-9.2617,-9.2617,-9.2617,-9.2617,-9.2617,-9.2617,-9.2617,-9.2617,-9.2617,-9.2617,-9.2617,-9.2617,-9.2617,-9.2617,-9.2617,-9.2617,-9.2617,-9.2617,-9.3476,-9.3828,-9.3711,-9.3828,-9.3828,-9.3672,-9.2929,-9.2617,-9.2617,-9.2617,-9.2617,-9.2617,-9.2617,-9.2617,-9.2617,-9.2617,-9.2617,-9.2617,-9.2482,-9.2482,-9.2482,-9.2482,-9.2482,-9.2528,-9.2583,-9.2585,-9.2551,-9.2406,-9.2408,-9.2333,-9.2222,-9.1559,-9.1404,-9.2148,-9.0625,-8.9648,-8.9804,-8.9687,-8.9297,-8.8554,-8.8515,-8.8203,-8.75,-8.75,-8.75,-8.75,-8.75,-8.7851,-8.8515,-8.7812,-8.7851,-8.8476,-8.7812,-8.75,-8.75,-8.75,-8.75,-8.75,-8.75,-8.7578,-8.7773,-8.8594,-8.9453,-9.0312,-9.1172,-9.1953,-9.2617,-9.2617,-9.2617,-9.2617,-9.2617,-9.2617,-9.2617,-9.2617,-9.2422,-9.2187,-9.2187,-9.1592,-9.0882,-9.0746,-9.0063,-8.9366,-8.9243,-8.9203,-8.9395,-9.0052,-9.0248,-9.0468,-9.1204,-9.149,-9.116,-8.9885,-9.1103,-9.176,-9.0435,0.0,-9.2617,-9.2617,-9.2617,-9.2617,-9.2617,-9.2617,-9.2617,-9.2617,-9.2617,-9.2617,-9.2617,-9.2617,-9.2617,-9.2617,-9.2617,-9.2617,-9.2617,-9.2617,-9.2617,-9.2617,-9.3476,-9.3515,-9.2812,-9.3554,-9.3515,-9.2773,-9.2656,-9.2617,-9.2617,-9.2617,-9.2617,-9.2617,-9.2617,-9.2617,-9.2617,-9.2617,-9.2617,-9.2617,-9.2482,-9.2482,-9.2482,-9.2482,-9.2532,-9.2541,-9.2595,-9.2601,-9.2608,-9.2613,-9.2614,-9.2615,-9.2616,-9.2225,-9.2148,-9.2578,-9.1445,-9.0898,-9.1367,-9.0508,-8.9609,-8.875,-8.914,-8.9023,-8.8164,-8.8164,-8.8164,-8.8164,-8.7695,-8.789,-8.8672,-8.789,-8.7695,-8.8047,-8.7656,-8.75,-8.75,-8.75,-8.75,-8.75,-8.75,-8.75,-8.7578,-8.8398,-8.9258,-9.0117,-9.0976,-9.1875,-9.2617,-9.2617,-9.2617,-9.2617,-9.2617,-9.2617,-9.2617,-9.2617,-9.2617,-9.2578,-9.2528,-9.2049,-9.1598,-9.1481,-9.104,-9.0636,-9.0544,-9.0555,-9.0633,-9.1019,-9.1097,-9.1213,-9.1638,-9.1823,-9.1643,-9.0866,-9.1678,-9.2131,-9.1315,-9.2022,-9.2617,-9.2617,-9.2617,-9.2617,-9.2617,-9.2617,-9.2617,-9.2617,-9.2617,-9.2617,-9.2617,-9.2617,-9.2617,-9.2617,-9.2617,-9.2617,-9.2617,-9.2617,-9.2617,-9.2617,-9.3476,-9.3672,-9.332,-9.3711,-9.3672,-9.3281,-9.2812,-9.2617,-9.2617,-9.2617,-9.2617,-9.2617,-9.2617,-9.2617,-9.2617,-9.2617,-9.2617,-9.2617,-9.2482,-9.2482,-9.2482,-9.2482,-9.2577,-9.259,-9.2601,-9.261,-9.2615,-9.2617,-9.2617,-9.2617,-9.2617,-9.2617,-9.2617,-9.2617,-9.1992,-9.1797,-9.2265,-9.1211,-9.0117,-8.9062,-8.9453,-8.9492,-8.9023,-8.8789,-8.8789,-8.8984,-8.8164,-8.8203,-8.8984,-8.8164,-8.7773,-8.7773,-8.7578,-8.75,-8.75,-8.75,-8.75,-8.75,-8.75,-8.75,-8.7578,-8.8203,-8.8945,-8.9804,-9.0664,-9.1562,-9.2344,-9.2539,-9.2617,-9.2617,-9.2617,-9.2617,-9.2617,-9.2617,-9.2577,-9.2532,-9.2421,-9.224,-9.2035,-9.1918,-9.181,-9.1716,-9.1716,-9.1716,-9.1716,-9.1716,-9.1716,-9.1716,-9.1716,-9.1773,-9.1711,-9.1323,0.0,-9.2182,-9.1792,-9.2251,-9.2617,-9.2617,-9.2617,-9.2617,-9.2617,-9.2617,-9.2617,-9.2617,-9.2617,-9.2617,-9.2617,-9.2617,-9.2617,-9.2617,-9.2617,-9.2617,-9.2617,-9.2617,-9.2695,-9.289,-9.3789,-9.4101,-9.3906,-9.4101,-9.3984,-9.3554,-9.289,-9.2617,-9.2617,-9.2617,-9.2617,-9.2617,-9.2617,-9.2617,-9.2617,-9.2617,-9.2617,-9.2617,-9.2482,-9.2482,-9.2482,-9.2482,-9.2577,-9.259,-9.2601,-9.261,-9.2615,-9.2617,-9.2617,-9.2617,-9.2617,-9.2617,-9.2617,-9.2617,-9.2539,-9.2187,-9.1445,-9.2031,-9.164,-8.9961,-8.9179,-8.914,-8.9883,-8.9101,-8.9101,-8.9883,-8.9023,-8.9062,-8.9883,-8.9023,-8.8594,-8.8594,-8.7812,-8.75,-8.75,-8.75,-8.75,-8.75,-8.75,-8.75,-8.75,-8.7578,-8.8086,-8.8906,-8.9765,-9.0664,-9.1523,-9.2344,-9.2617,-9.2617,-9.2617,-9.2617,-9.2617,-9.2617,-9.2528,-9.2411,-9.2408,-9.2171,-9.1897,-9.1915,-9.181,-9.1716,-9.1716,-9.1716,-9.1716,-9.1716,-9.1716,-9.1716,-9.1716,-9.1691,-9.1202,-8.9668,0.0,0.0,-9.0002,-9.1411,-9.2617,-9.2617,-9.2617,-9.2617,-9.2617,-9.2617,-9.2617,-9.2617,-9.2617,-9.2617,-9.2617,-9.2617,-9.2617,-9.2617,-9.2617,-9.2617,-9.2617,-9.2617,-9.3008,-9.3828,-9.4687,-9.4687,-9.3945,-9.4726,-9.4219,-9.2695,-9.2617,-9.2617,-9.2617,-9.2617,-9.2617,-9.2617,-9.2617,-9.2617,-9.2617,-9.2617,-9.2617,-9.2734,-9.2482,-9.2482,-9.2482,-9.2482,-9.2543,-9.2599,-9.2603,-9.2613,-9.2617,-9.2617,-9.2617,-9.2617,-9.2617,-9.2617,-9.2617,-9.2617,-9.2109,-9.1875,-9.2109,-9.1914,-9.1758,-9.1601,-9.1289,-9.1015,-9.082,-9.0469,-9.0469,-9.082,-8.9922,-8.9961,-9.0781,-8.9922,-8.9492,-8.9492,-8.9179,-8.9062,-8.9062,-8.9062,-8.9062,-8.8984,-8.8476,-8.8242,-8.8203,-8.7695,-8.8008,-8.875,-8.9062,-9.0117,-9.1367,-9.1679,-9.2148,-9.2617,-9.2617,-9.2617,-9.2577,-9.2486,-9.2354,-9.2183,-9.2129,-9.1995,-9.1872,-9.1798,-9.1759,-9.1716,-9.1716,-9.1716,-9.1716,-9.1716,-9.1716,-9.1716,-9.1716,-9.1716,-9.1484,-9.0865,0.0,-9.1767,-9.1215,-9.1913,-9.2526,-9.2578,-9.2617,-9.2617,-9.2617,-9.2617,-9.2617,-9.2617,-9.2617,-9.2617,-9.2617,-9.2617,-9.2851,-9.3398,-9.3398,-9.3164,-9.2617,-9.3125,-9.3554,-9.3906,-9.4258,-9.4219,-9.3906,-9.3672,-9.3242,-9.2617,-9.2617,-9.2617,-9.2617,-9.2617,-9.2617,-9.2617,-9.2617,-9.2617,-9.2617,-9.2617,-9.2617,-9.2734,-9.2482,-9.2482,-9.2525,-9.2532,-9.2551,-9.2605,-9.2606,-9.2615,-9.2617,-9.2617,-9.2617,-9.2617,-9.2617,-9.2617,-9.2617,-9.2617,-9.2031,-9.1953,-9.2578,-9.2031,-9.1992,-9.2578,-9.2344,-9.2031,-9.1719,-9.1445,-9.1445,-9.1719,-9.0859,-9.0703,-9.1289,-9.0703,-9.0273,-9.0,-9.0,-9.0,-9.0,-9.0,-9.0,-8.9961,-8.9336,-8.9101,-8.9062,-8.8515,-8.8633,-8.914,-8.9414,-9.0273,-9.1328,-9.1601,-9.2109,-9.2617,-9.2617,-9.2617,-9.2577,-9.2426,-9.2261,-9.209,-9.1938,-9.1861,-9.1835,-9.1732,-9.1716,-9.1716,-9.1716,-9.1716,-9.1716,-9.1716,-9.1716,-9.1716,-9.1716,-9.1716,-9.1716,-9.1716,-9.1855,-9.1983,-9.2104,-9.2299,-9.2486,-9.2578,-9.2617,-9.2617,-9.2617,-9.2617,-9.2617,-9.2617,-9.2851,-9.3125,-9.3398,-9.3437,-9.3672,-9.4297,-9.4297,-9.4023,-9.3437,-9.4023,-9.4453,-9.4726,-9.4726,-9.457,-9.4297,-9.3672,-9.3125,-9.2617,-9.2617,-9.2617,-9.2617,-9.2617,-9.2617,-9.2617,-9.2617,-9.2617,-9.2617,-9.2617,-9.2773,-9.3125,-9.2482,-9.2482,-9.2528,-9.2583,-9.2597,-9.2606,-9.2613,-9.2616,-9.2617,-9.2617,-9.2617,-9.2617,-9.2617,-9.2617,-9.2617,-9.2617,-9.2617,-9.2617,-9.2617,-9.2617,-9.2617,-9.2617,-9.1758,-9.1719,-9.2578,-9.1758,-9.1719,-9.2617,-9.1719,-9.1328,-9.1328,-9.1328,-9.0859,-9.0039,-9.0039,-9.0039,-9.0039,-9.0039,-9.0039,-9.0039,-9.0,-9.0,-9.0,-9.0,-9.0,-9.0117,-9.0976,-9.1289,-9.1445,-9.2304,-9.2617,-9.2617,-9.2617,-9.2617,-9.2577,-9.2424,-9.2261,-9.209,-9.1928,-9.181,-9.1716,-9.1716,-9.1716,-9.1716,-9.1716,-9.1716,-9.1716,-9.1716,-9.1716,-9.1716,-9.1716,-9.1716,-9.1716,-9.1716,-9.1918,-9.208,-9.208,-9.2382,-9.2617,-9.2617,-9.2617,-9.2617,-9.2617,-9.2617,-9.2617,-9.2617,-9.3398,-9.4258,-9.5117,-9.5195,-9.5195,-9.5195,-9.5195,-9.5195,-9.5234,-9.5195,-9.5625,-9.6484,-9.6484,-9.6054,-9.5195,-9.5195,-9.4258,-9.2617,-9.2617,-9.2617,-9.2617,-9.2617,-9.2617,-9.2617,-9.2617,-9.2617,-9.2617,-9.2617,-9.3164,-9.4023,-9.2482,-9.2532,-9.258,-9.2585,-9.2603,-9.2611,-9.2613,-9.2616,-9.2617,-9.2617,-9.2617,-9.2617,-9.2617,-9.2617,-9.2617,-9.2617,-9.2617,-9.2617,-9.2617,-9.2617,-9.2617,-9.2617,-9.2344,-9.2344,-9.2578,-9.2344,-9.2344,-9.2617,-9.2344,-9.2226,-9.2226,-9.2226,-9.207,-9.1836,-9.1836,-9.1836,-9.1836,-9.1836,-9.1836,-9.1758,-9.1172,-9.0898,-9.0859,-9.0234,-9.0,-9.0039,-9.0273,-9.0781,-9.1445,-9.2304,-9.3008,-9.3515,-9.3515,-9.3515,-9.3356,-9.2437,-9.2152,-9.2059,-9.1808,-9.1746,-9.1716,-9.1716,-9.1716,-9.1716,-9.1716,-9.1716,-9.1716,-9.1716,-9.1716,-9.1716,-9.1716,-9.1716,-9.1716,-9.1716,-9.1855,-9.1983,-9.2104,-9.2295,-9.2484,-9.2578,-9.2617,-9.2851,-9.3437,-9.2969,-9.2851,-9.3476,-9.3203,-9.3086,-9.3359,-9.3945,-9.457,-9.5195,-9.5781,-9.6367,-9.6953,-9.6406,-9.625,-9.6484,-9.5898,-9.5469,-9.5156,-9.3945,-9.3086,-9.2617,-9.2617,-9.2617,-9.2617,-9.2617,-9.2617,-9.2617,-9.2617,-9.2617,-9.2617,-9.2617,-9.3164,-9.4023,-9.2482,-9.2538,-9.2588,-9.2593,-9.2606,-9.2614,-9.2616,-9.2617,-9.2617,-9.2617,-9.2617,-9.2617,-9.2617,-9.2617,-9.2617,-9.2617,-9.2617,-9.2617,-9.2617,-9.2617,-9.2617,-9.2617,-9.2617,-9.2617,-9.2617,-9.2617,-9.2617,-9.2617,-9.2265,-9.2109,-9.207,-9.1719,-9.1758,-9.2109,-9.2109,-9.2265,-9.2617,-9.2617,-9.2617,-9.2539,-9.2031,-9.1797,-9.1758,-9.1211,-9.1015,-9.1015,-9.1015,-9.1367,-9.1875,-9.2422,-9.2969,-9.3398,-9.3398,-9.3357,-9.3144,-9.2345,-9.2074,-9.1956,-9.176,-9.1716,-9.1716,-9.1716,-9.1716,-9.1716,-9.1716,-9.1716,-9.1716,-9.1716,-9.1716,-9.1716,-9.1716,-9.1716,-9.1716,-9.1716,-9.1796,-9.1948,-9.2097,-9.2271,-9.2468,-9.2577,-9.2617,-9.2812,-9.332,-9.289,-9.2969,-9.3828,-9.3711,-9.3633,-9.3633,-9.4765,-9.5508,-9.5703,-9.6523,-9.7226,-9.7695,-9.7226,-9.6953,-9.6953,-9.6445,-9.5859,-9.5156,-9.4101,-9.3242,-9.2617,-9.2617,-9.2617,-9.2617,-9.2617,-9.2617,-9.2617,-9.2617,-9.2617,-9.2656,-9.3008,-9.3672,-9.4531,-9.2482,-9.2538,-9.259,-9.2601,-9.261,-9.2615,-9.2617,-9.2617,-9.2617,-9.2617,-9.2617,-9.2617,-9.2617,-9.2617,-9.2617,-9.2617,-9.2617,-9.2617,-9.2617,-9.2617,-9.2617,-9.2617,-9.2617,-9.2617,-9.2617,-9.2617,-9.2617,-9.2617,-9.1797,-9.1367,-9.1289,-9.0508,-9.0508,-9.1172,-9.1172,-9.1601,-9.2383,-9.2383,-9.2383,-9.2383,-9.2383,-9.2383,-9.2383,-9.2383,-9.2383,-9.2383,-9.2383,-9.2383,-9.2383,-9.2461,-9.2578,-9.2695,-9.2617,-9.2566,-9.2468,-9.2165,-9.2001,-9.1861,-9.1759,-9.1716,-9.1716,-9.1716,-9.1716,-9.1716,-9.1716,-9.1716,-9.1716,-9.1716,-9.1716,-9.1716,-9.1716,-9.1716,-9.1716,-9.1716,-9.1796,-9.1948,-9.2097,-9.2271,-9.2468,-9.2577,-9.2617,-9.2617,-9.2695,-9.2734,-9.3008,-9.3711,-9.4531,-9.4961,-9.4961,-9.6562,-9.7148,-9.6406,-9.7226,-9.7695,-9.7695,-9.7695,-9.7695,-9.7695,-9.7539,-9.6679,-9.5195,-9.5039,-9.4101,-9.2617,-9.2617,-9.2617,-9.2617,-9.2617,-9.2617,-9.2617,-9.2617,-9.2617,-9.2695,-9.3594,-9.4453,-9.5312,-9.2482,-9.2546,-9.2601,-9.2603,-9.2613,-9.2617,-9.2617,-9.2617,-9.2617,-9.2617,-9.2617,-9.2617,-9.2617,-9.2617,-9.2617,-9.2617,-9.2617,-9.2617,-9.2617,-9.2617,-9.2617,-9.2617,-9.2617,-9.2617,-9.2617,-9.2617,-9.2617,-9.2617,-9.2422,-9.1953,-9.1289,-9.1094,-9.0742,-9.0273,-9.0273,-9.039,-9.0547,-9.0547,-9.0547,-9.0547,-9.0547,-9.0547,-9.0547,-9.0547,-9.0547,-9.0547,-9.0547,-9.0547,-9.0664,-9.1367,-9.25,-9.3515,-9.2812,-9.2995,-9.3248,-9.236,-9.2001,-9.1861,-9.1759,-9.1716,-9.1716,-9.1716,-9.1716,-9.1716,-9.1716,-9.1716,-9.1716,-9.1716,-9.1716,-9.1716,-9.1716,-9.1716,-9.1716,-9.1716,-9.1796,-9.1948,-9.2097,-9.2271,-9.2468,-9.2577,-9.2617,-9.2851,-9.3554,-9.3633,-9.3398,-9.2929,-9.3047,-9.3164,-9.3164,-9.4804,-9.5664,-9.5508,-9.6914,-9.7695,-9.7695,-9.7695,-9.7695,-9.7695,-9.6367,-9.5547,-9.5156,-9.3789,-9.2969,-9.2617,-9.2617,-9.2617,-9.2617,-9.2617,-9.2617,-9.2617,-9.2617,-9.2617,-9.2695,-9.3594,-9.4453,-9.539,-9.2535,-9.2597,-9.2609,-9.2609,-9.2616,-9.2617,-9.2617,-9.2617,-9.2617,-9.2617,-9.2617,-9.2617,-9.2617,-9.2617,-9.2617,-9.2617,-9.2617,-9.2617,-9.2617,-9.2617,-9.2617,-9.2617,-9.2617,-9.2617,-9.2617,-9.2617,-9.2617,-9.2617,-9.2187,-9.1523,-9.0664,-9.0234,-8.9804,-8.9375,-8.9375,-8.9609,-9.0,-9.0,-9.0,-9.0,-9.0,-9.0,-9.0,-9.0,-9.0,-9.0,-9.0,-9.0,-9.0078,-9.0547,-9.1562,-9.2578,-9.2109,-9.2761,-9.3611,-9.3013,-9.3022,-9.3219,-9.3151,-9.312,-9.3126,-9.3049,-9.3051,-9.2781,-9.1898,-9.1716,-9.1716,-9.1716,-9.1716,-9.1719,-9.1773,-9.1798,-9.1796,-9.1883,-9.1957,-9.2051,-9.224,-9.2338,-9.2468,-9.2577,-9.2617,-9.2773,-9.3242,-9.3281,-9.3086,-9.2617,-9.3008,-9.3047,-9.2617,-9.4648,-9.5625,-9.5195,-9.6836,-9.7695,-9.7695,-9.7304,-9.7148,-9.7109,-9.664,-9.5742,-9.457,-9.4062,-9.3398,-9.2617,-9.2617,-9.2617,-9.2617,-9.2617,-9.2617,-9.2617,-9.2617,-9.2851,-9.332,-9.4219,-9.5312,-9.6519,-9.2585,-9.2605,-9.2613,-9.2613,-9.2616,-9.2617,-9.2617,-9.2617,-9.2617,-9.2617,-9.2617,-9.2617,-9.2617,-9.2617,-9.2617,-9.2617,-9.2617,-9.2617,-9.2617,-9.2617,-9.2617,-9.2617,-9.2617,-9.2617,-9.2617,-9.2617,-9.2617,-9.2617,-9.1875,-9.1094,-9.0195,-8.9336,-8.8828,-8.8672,-8.8554,-8.8906,-8.957,-8.957,-8.957,-8.957,-8.957,-8.957,-8.957,-8.957,-8.957,-8.957,-8.957,-8.9648,-8.9804,-8.9961,-9.0586,-9.1328,-9.1484,-9.2526,-9.3735,-9.3852,-9.4295,-9.4705,-9.4705,-9.4705,-9.4668,-9.4514,-9.449,-9.4086,-9.2481,-9.2141,-9.2141,-9.2141,-9.2025,-9.1953,-9.2105,-9.1993,-9.1948,-9.2097,-9.208,-9.2171,-9.2354,-9.2404,-9.2468,-9.2577,-9.2617,-9.2617,-9.2617,-9.2617,-9.2656,-9.2812,-9.3476,-9.3633,-9.3086,-9.5117,-9.6015,-9.5429,-9.6758,-9.7578,-9.7695,-9.7031,-9.6562,-9.6289,-9.7109,-9.6211,-9.3906,-9.4492,-9.3984,-9.2617,-9.2617,-9.2617,-9.2617,-9.2617,-9.2617,-9.2617,-9.2617,-9.3125,-9.4023,-9.5039,-9.6363,-9.7717,-9.2585,-9.2605,-9.2613,-9.2613,-9.2616,-9.2617,-9.2617,-9.2617,-9.2617,-9.2617,-9.2617,-9.2617,-9.2617,-9.2617,-9.2617,-9.2617,-9.2617,-9.2617,-9.2617,-9.2617,-9.2617,-9.2617,-9.2617,-9.2617,-9.2617,-9.2617,-9.2617,-9.2617,-9.2461,-9.1992,-9.1094,-9.0234,-8.9414,-8.8672,-8.7969,-8.7734,-8.7851,-8.7851,-8.7851,-8.7851,-8.7851,-8.7851,-8.7851,-8.7851,-8.7851,-8.7851,-8.7851,-8.8281,-8.8984,-8.9765,-9.0586,-9.1445,-9.2187,-9.2995,-9.3852,-9.4516,-9.4724,-9.4705,-9.4705,-9.4705,-9.4668,-9.4514,-9.449,-9.4385,-9.3952,-9.3843,-9.3843,-9.3843,-9.3302,-9.2882,-9.2998,-9.242,-9.1948,-9.2097,-9.208,-9.2171,-9.2354,-9.2404,-9.2468,-9.2577,-9.2617,-9.2617,-9.2617,-9.2617,-9.289,-9.3672,-9.3828,-9.4179,-9.4804,-9.5195,-9.5664,-9.6289,-9.6523,-9.6992,-9.7695,-9.7578,-9.6797,-9.539,-9.625,-9.5703,-9.3867,-9.3242,-9.2812,-9.2617,-9.2617,-9.2617,-9.2617,-9.2617,-9.2617,-9.2617,-9.2617,-9.3125,-9.4101,-9.5662,-9.6868,-9.7717,-9.2605,-9.2613,-9.2616,-9.2616,-9.2617,-9.2617,-9.2617,-9.2187,-9.1875,-9.1875,-9.1875,-9.1875,-9.1875,-9.2304,-9.2617,-9.2617,-9.2617,-9.2617,-9.2617,-9.2617,-9.2617,-9.2617,-9.2617,-9.2617,-9.2617,-9.2617,-9.2617,-9.2617,-9.2617,-9.2148,-9.1289,-9.039,-8.9531,-8.8672,-8.7851,-8.75,-8.7539,-8.7969,-8.8164,-8.8203,-8.8711,-8.8906,-8.8906,-8.8906,-8.8906,-8.8906,-8.8906,-8.9101,-8.9492,-8.9883,-9.0586,-9.1367,-9.1758,-9.3084,-9.4598,-9.495,-9.568,-9.6364,-9.6364,-9.6364,-9.6347,-9.62,-9.6141,-9.6039,-9.5952,-9.5822,-9.548,-9.4562,-9.4007,-9.3646,-9.3492,-9.3087,-9.2837,-9.3064,-9.312,-9.3327,-9.3893,-9.3973,-9.3979,-9.4062,-9.4062,-9.4062,-9.4062,-9.3594,-9.3672,-9.457,-9.4179,-9.4297,-9.5156,-9.5664,-9.6094,-9.6484,-9.6953,-9.7344,-9.7695,-9.7265,-9.664,-9.5937,-9.5312,-9.4375,-9.3164,-9.3281,-9.3047,-9.2617,-9.2617,-9.2617,-9.2617,-9.2617,-9.2617,-9.2656,-9.3125,-9.414,-9.5508,-9.6674,-9.7371,-9.7717]},{"header":{"parameterUnit":"m.s-1","parameterCategory":1,"la1":30.6,"la2":28.766,"lo1":-90.7593,"lo2":-88.6598,"dx":0.0162,"dy":0.0183,"nx":116,"ny":114,"refTime":"2023-01-14T06:00:00:Z","depth":0,"parameterNumber":3,"parameterNumberName":"V-component_of_WINDS"},"data":[0.0,0.0,0.0,0.0,0.0,0.0,0.0,0.0,0.0,0.0,0.0,0.0,0.0,0.0,0.0,0.0,0.0,0.0,0.0,0.0,0.0,0.0,0.0,0.0,0.0,0.0,0.0,0.0,0.0,0.0,0.0,0.0,0.0,0.0,0.0,0.0,0.0,0.0,0.0,0.0,0.0,0.0,0.0,0.0,0.0,0.0,0.0,0.0,0.0,0.0,0.0,0.0,0.0,0.0,0.0,0.0,0.0,0.0,0.0,0.0,0.0,0.0,0.0,0.0,0.0,0.0,0.0,0.0,0.0,0.0,0.0,0.0,0.0,0.0,0.0,0.0,0.0,0.0,0.0,0.0,0.0,0.0,0.0,0.0,0.0,0.0,0.0,0.0,0.0,0.0,0.0,0.0,0.0,0.0,0.0,0.0,0.0,0.0,0.0,0.0,0.0,0.0,0.0,0.0,0.0,0.0,0.0,0.0,0.0,0.0,0.0,0.0,0.0,0.0,0.0,0.0,0.0,0.0,0.0,0.0,0.0,0.0,0.0,0.0,0.0,0.0,0.0,0.0,0.0,0.0,0.0,0.0,0.0,0.0,0.0,0.0,0.0,0.0,0.0,0.0,0.0,0.0,0.0,0.0,0.0,0.0,0.0,0.0,0.0,0.0,0.0,0.0,0.0,0.0,0.0,0.0,0.0,0.0,0.0,0.0,0.0,0.0,0.0,0.0,0.0,0.0,0.0,0.0,0.0,0.0,0.0,0.0,0.0,0.0,0.0,0.0,0.0,0.0,0.0,0.0,0.0,0.0,0.0,0.0,0.0,0.0,0.0,0.0,0.0,0.0,0.0,0.0,0.0,0.0,0.0,0.0,0.0,0.0,0.0,0.0,0.0,0.0,0.0,0.0,0.0,0.0,0.0,0.0,0.0,0.0,0.0,0.0,0.0,0.0,0.0,0.0,0.0,0.0,0.0,0.0,0.0,0.0,0.0,0.0,0.0,0.0,0.0,0.0,0.0,0.0,0.0,0.0,0.0,0.0,0.0,0.0,0.0,0.0,0.0,0.0,0.0,0.0,0.0,0.0,0.0,0.0,0.0,0.0,0.0,0.0,0.0,0.0,0.0,0.0,0.0,0.0,0.0,0.0,0.0,0.0,0.0,0.0,0.0,0.0,0.0,0.0,0.0,0.0,0.0,0.0,0.0,0.0,0.0,0.0,0.0,0.0,0.0,0.0,0.0,0.0,0.0,0.0,0.0,0.0,0.0,0.0,0.0,0.0,0.0,0.0,0.0,0.0,0.0,0.0,0.0,0.0,0.0,0.0,0.0,0.0,0.0,0.0,0.0,0.0,0.0,0.0,0.0,0.0,0.0,0.0,0.0,0.0,0.0,0.0,0.0,0.0,0.0,0.0,0.0,0.0,0.0,0.0,0.0,0.0,0.0,0.0,0.0,0.0,0.0,0.0,0.0,0.0,0.0,0.0,0.0,0.0,0.0,0.0,0.0,0.0,0.0,0.0,0.0,0.0,0.0,0.0,0.0,0.0,0.0,0.0,0.0,0.0,0.0,0.0,0.0,0.0,0.0,0.0,0.0,0.0,0.0,0.0,0.0,0.0,0.0,0.0,0.0,0.0,0.0,0.0,0.0,0.0,0.0,0.0,0.0,0.0,0.0,0.0,0.0,0.0,0.0,0.0,0.0,0.0,0.0,0.0,0.0,0.0,0.0,0.0,0.0,0.0,0.0,0.0,0.0,0.0,0.0,0.0,0.0,0.0,0.0,0.0,0.0,0.0,0.0,0.0,0.0,0.0,0.0,0.0,0.0,0.0,0.0,0.0,0.0,0.0,0.0,0.0,0.0,0.0,0.0,0.0,0.0,0.0,0.0,0.0,0.0,0.0,0.0,0.0,0.0,0.0,0.0,0.0,0.0,0.0,0.0,0.0,0.0,0.0,0.0,0.0,0.0,0.0,0.0,0.0,0.0,0.0,0.0,0.0,0.0,0.0,0.0,0.0,0.0,0.0,0.0,0.0,0.0,0.0,0.0,0.0,0.0,0.0,0.0,0.0,0.0,0.0,0.0,0.0,0.0,0.0,0.0,0.0,0.0,0.0,0.0,0.0,0.0,0.0,0.0,0.0,0.0,0.0,0.0,0.0,0.0,0.0,0.0,0.0,0.0,0.0,0.0,0.0,0.0,0.0,0.0,0.0,0.0,0.0,0.0,0.0,0.0,0.0,0.0,0.0,0.0,0.0,0.0,0.0,0.0,0.0,0.0,0.0,0.0,0.0,0.0,0.0,0.0,0.0,0.0,0.0,0.0,0.0,0.0,0.0,0.0,0.0,0.0,0.0,0.0,0.0,0.0,0.0,0.0,0.0,0.0,0.0,0.0,0.0,0.0,0.0,0.0,0.0,0.0,0.0,0.0,0.0,0.0,0.0,0.0,0.0,0.0,0.0,0.0,0.0,0.0,0.0,0.0,0.0,0.0,0.0,0.0,0.0,0.0,0.0,0.0,0.0,0.0,0.0,0.0,0.0,0.0,0.0,0.0,0.0,0.0,0.0,0.0,0.0,0.0,0.0,0.0,0.0,0.0,0.0,0.0,0.0,0.0,0.0,0.0,0.0,0.0,0.0,0.0,0.0,0.0,0.0,0.0,0.0,0.0,0.0,0.0,0.0,0.0,0.0,0.0,0.0,0.0,0.0,0.0,0.0,0.0,0.0,0.0,0.0,0.0,0.0,0.0,0.0,0.0,0.0,0.0,0.0,0.0,0.0,0.0,0.0,0.0,0.0,0.0,0.0,0.0,0.0,0.0,0.0,0.0,0.0,0.0,0.0,0.0,0.0,0.0,0.0,0.0,0.0,0.0,0.0,0.0,0.0,0.0,0.0,0.0,0.0,0.0,0.0,0.0,0.0,0.0,0.0,0.0,0.0,0.0,0.0,0.0,0.0,0.0,0.0,0.0,0.0,0.0,0.0,0.0,0.0,0.0,0.0,0.0,0.0,0.0,0.0,0.0,0.0,0.0,0.0,0.0,0.0,0.0,0.0,0.0,0.0,0.0,0.0,0.0,0.0,0.0,0.0,0.0,0.0,0.0,0.0,0.0,0.0,0.0,0.0,0.0,0.0,0.0,0.0,0.0,0.0,0.0,0.0,0.0,0.0,0.0,0.0,0.0,0.0,0.0,0.0,0.0,0.0,0.0,0.0,0.0,0.0,0.0,0.0,0.0,0.0,0.0,0.0,0.0,0.0,0.0,0.0,0.0,0.0,0.0,0.0,0.0,0.0,0.0,0.0,0.0,0.0,0.0,0.0,0.0,0.0,0.0,0.0,0.0,0.0,0.0,0.0,0.0,0.0,0.0,0.0,0.0,0.0,0.0,0.0,0.0,0.0,0.0,0.0,0.0,0.0,0.0,0.0,0.0,0.0,0.0,0.0,0.0,0.0,0.0,0.0,0.0,0.0,0.0,0.0,0.0,0.0,0.0,0.0,0.0,0.0,0.0,0.0,0.0,0.0,0.0,0.0,0.0,0.0,0.0,0.0,0.0,0.0,0.0,0.0,0.0,0.0,0.0,0.0,0.0,0.0,0.0,0.0,0.0,0.0,0.0,0.0,0.0,0.0,0.0,0.0,0.0,0.0,0.0,0.0,0.0,0.0,0.0,0.0,0.0,0.0,0.0,0.0,0.0,0.0,0.0,0.0,0.0,0.0,0.0,0.0,0.0,0.0,0.0,0.0,0.0,0.0,0.0,0.0,0.0,0.0,0.0,0.0,0.0,0.0,0.0,0.0,0.0,0.0,0.0,0.0,0.0,0.0,0.0,0.0,0.0,0.0,0.0,0.0,0.0,0.0,0.0,0.0,0.0,0.0,0.0,0.0,0.0,0.0,0.0,0.0,0.0,0.0,0.0,0.0,0.0,0.0,0.0,0.0,0.0,0.0,0.0,0.0,0.0,0.0,0.0,0.0,0.0,0.0,0.0,0.0,0.0,0.0,0.0,0.0,0.0,0.0,0.0,0.0,0.0,0.0,0.0,0.0,0.0,0.0,0.0,0.0,0.0,0.0,0.0,0.0,0.0,0.0,0.0,0.0,0.0,0.0,0.0,0.0,0.0,0.0,0.0,0.0,0.0,0.0,0.0,0.0,0.0,0.0,0.0,0.0,0.0,0.0,0.0,0.0,0.0,0.0,0.0,0.0,0.0,0.0,0.0,0.0,0.0,0.0,0.0,0.0,0.0,0.0,0.0,0.0,0.0,0.0,0.0,0.0,0.0,0.0,0.0,0.0,0.0,0.0,0.0,0.0,0.0,0.0,0.0,0.0,0.0,0.0,0.0,0.0,0.0,0.0,0.0,0.0,0.0,0.0,0.0,0.0,0.0,0.0,0.0,0.0,0.0,0.0,0.0,0.0,0.0,0.0,0.0,0.0,0.0,0.0,0.0,0.0,0.0,0.0,0.0,0.0,0.0,0.0,0.0,0.0,0.0,0.0,0.0,0.0,0.0,0.0,0.0,0.0,0.0,0.0,0.0,0.0,0.0,0.0,0.0,0.0,0.0,0.0,0.0,0.0,0.0,0.0,0.0,0.0,0.0,0.0,0.0,0.0,0.0,0.0,0.0,0.0,0.0,0.0,0.0,0.0,0.0,0.0,0.0,0.0,0.0,0.0,0.0,0.0,0.0,0.0,0.0,0.0,0.0,0.0,0.0,0.0,0.0,0.0,0.0,0.0,0.0,0.0,0.0,0.0,0.0,0.0,0.0,0.0,0.0,0.0,0.0,0.0,0.0,0.0,0.0,0.0,0.0,0.0,0.0,0.0,0.0,0.0,0.0,0.0,0.0,0.0,0.0,0.0,0.0,0.0,0.0,0.0,0.0,0.0,0.0,0.0,0.0,0.0,0.0,0.0,0.0,0.0,0.0,0.0,0.0,0.0,0.0,0.0,0.0,0.0,0.0,0.0,0.0,0.0,0.0,0.0,0.0,0.0,0.0,0.0,0.0,0.0,0.0,0.0,0.0,0.0,0.0,0.0,0.0,0.0,0.0,0.0,0.0,0.0,0.0,0.0,0.0,0.0,0.0,0.0,0.0,0.0,0.0,0.0,0.0,0.0,0.0,0.0,0.0,0.0,0.0,0.0,0.0,0.0,0.0,0.0,0.0,0.0,0.0,0.0,0.0,0.0,0.0,0.0,0.0,0.0,0.0,0.0,0.0,0.0,0.0,0.0,0.0,0.0,0.0,0.0,0.0,0.0,0.0,0.0,0.0,0.0,0.0,0.0,0.0,0.0,0.0,0.0,0.0,0.0,0.0,0.0,0.0,0.0,0.0,0.0,0.0,0.0,0.0,0.0,0.0,0.0,0.0,0.0,0.0,0.0,0.0,0.0,0.0,0.0,0.0,0.0,0.0,0.0,0.0,0.0,0.0,0.0,0.0,0.0,0.0,0.0,0.0,0.0,0.0,0.0,0.0,0.0,0.0,0.0,0.0,0.0,0.0,0.0,0.0,0.0,0.0,0.0,0.0,0.0,0.0,0.0,0.0,0.0,0.0,0.0,0.0,0.0,0.0,0.0,0.0,0.0,0.0,0.0,0.0,0.0,0.0,0.0,0.0,0.0,0.0,0.0,0.0,0.0,0.0,0.0,0.0,0.0,0.0,0.0,0.0,0.0,0.0,0.0,0.0,0.0,0.0,0.0,0.0,0.0,0.0,0.0,0.0,0.0,0.0,0.0,0.0,0.0,0.0,0.0,0.0,0.0,0.0,0.0,0.0,0.0,0.0,0.0,0.0,0.0,0.0,0.0,0.0,0.0,0.0,0.0,0.0,0.0,0.0,0.0,0.0,0.0,0.0,0.0,0.0,0.0,0.0,0.0,0.0,0.0,0.0,0.0,0.0,0.0,0.0,0.0,0.0,0.0,0.0,0.0,0.0,0.0,0.0,0.0,0.0,0.0,0.0,0.0,0.0,0.0,0.0,0.0,0.0,0.0,0.0,0.0,0.0,0.0,0.0,0.0,0.0,0.0,0.0,0.0,0.0,0.0,0.0,0.0,0.0,0.0,0.0,0.0,0.0,0.0,0.0,0.0,0.0,0.0,0.0,0.0,0.0,0.0,1.12,0.0,0.0,0.0,0.0,0.0,0.0,0.0,0.0,0.0,0.0,0.0,0.0,0.0,0.0,0.0,0.0,0.0,0.0,0.0,0.0,0.0,0.0,0.0,0.0,0.0,0.0,0.0,0.0,0.0,0.0,0.0,0.0,0.0,0.0,0.0,0.0,0.0,0.0,0.0,0.0,0.0,0.0,0.0,0.0,0.0,0.0,0.0,0.0,0.0,0.0,0.0,0.0,0.0,0.0,0.0,0.0,0.0,0.0,0.0,0.0,0.0,0.0,0.0,0.0,0.0,0.0,0.0,0.0,0.0,0.0,0.0,0.0,0.0,0.0,0.0,0.0,0.0,0.0,0.0,0.0,0.0,0.0,0.0,0.0,0.0,0.0,0.0,0.0,0.0,0.0,0.0,0.0,0.0,0.0,0.0,0.0,0.0,0.0,0.0,0.0,0.0,0.0,0.0,0.0,0.0,0.0,0.0,0.0,0.0,0.0,0.0,0.0,0.0,0.0,0.0,0.0,1.1191,0.0,0.0,0.0,0.0,0.0,0.0,0.0,0.0,0.0,0.0,0.0,0.0,0.0,0.0,0.0,0.0,0.0,0.0,0.0,0.0,0.0,0.0,0.0,0.0,0.0,0.0,0.0,0.0,0.0,0.0,0.0,0.0,0.0,0.0,0.0,0.0,0.0,0.0,0.0,0.0,0.0,0.0,0.0,0.0,0.0,0.0,0.0,0.0,0.0,0.0,0.0,0.0,0.0,0.0,0.0,0.0,0.0,0.0,0.0,0.0,0.0,0.0,0.0,0.0,0.0,0.0,0.0,0.0,0.0,0.0,0.0,0.0,0.0,0.0,0.0,0.0,0.0,0.0,0.0,0.0,0.0,0.0,0.0,0.0,0.0,0.0,0.0,0.0,0.0,0.0,0.0,0.0,0.0,0.0,0.0,0.0,0.0,0.0,0.0,0.0,0.0,0.0,0.0,0.0,0.0,0.0,0.0,0.0,1.1297,1.1378,1.1411,1.1346,1.1419,1.1581,1.1403,1.1476,1.1695,1.1248,0.0,0.0,0.0,0.0,0.0,0.0,0.0,0.0,0.0,0.0,0.0,0.0,0.0,0.0,0.0,0.0,0.0,0.0,0.0,0.0,0.0,0.0,0.0,0.0,0.0,0.0,0.0,0.0,0.0,0.0,0.0,0.0,0.0,0.0,0.0,0.0,0.0,0.0,0.0,0.0,0.0,0.0,0.0,0.0,0.0,0.0,0.0,0.0,0.0,0.0,0.0,0.0,0.0,0.0,0.0,0.0,0.0,0.0,0.0,0.0,0.0,0.0,0.0,0.0,0.0,0.0,0.0,0.0,0.0,0.0,0.0,0.0,0.0,0.0,0.0,0.0,0.0,0.0,0.0,0.0,0.0,0.0,0.0,0.0,0.0,0.0,1.1744,1.1744,0.0,0.0,0.0,0.0,0.0,0.0,0.0,0.0,0.0,0.0,0.0,0.0,0.0,1.1459,1.1671,1.1817,1.189,1.189,1.1914,1.2012,1.215,1.1841,1.1801,1.1955,1.1776,0.0,1.1533,1.1459,0.0,0.0,0.0,0.0,0.0,0.0,0.0,0.0,0.0,0.0,0.0,0.0,0.0,0.0,0.0,0.0,0.0,0.0,0.0,0.0,0.0,0.0,0.0,0.0,0.0,0.0,0.0,0.0,0.0,0.0,0.0,0.0,0.0,0.0,0.0,0.0,0.0,0.0,0.0,0.0,0.0,0.0,0.0,0.0,0.0,0.0,0.0,0.0,0.0,0.0,0.0,0.0,0.0,0.0,0.0,0.0,0.0,0.0,0.0,0.0,0.0,0.0,0.0,0.0,0.0,0.0,0.0,0.0,0.0,0.0,0.0,0.0,0.0,0.0,0.0,0.0,0.0,0.0,0.0,0.0,0.0,0.0,0.0,0.0,0.0,1.1914,1.1914,1.1914,1.1671,1.15,0.0,0.0,0.0,0.0,0.0,0.0,0.0,0.0,0.0,1.1792,1.1801,1.189,1.2077,1.215,1.2182,1.2182,1.2182,1.2231,1.2304,1.2142,1.2117,1.219,1.2207,1.2174,1.2077,1.1776,1.1622,1.1557,0.0,0.0,0.0,0.0,1.1427,1.1459,0.0,0.0,0.0,0.0,0.0,0.0,0.0,0.0,0.0,0.0,0.0,0.0,0.0,0.0,0.0,0.0,0.0,0.0,0.0,0.0,0.0,0.0,0.0,0.0,0.0,0.0,0.0,0.0,0.0,0.0,0.0,0.0,0.0,0.0,0.0,0.0,0.0,0.0,0.0,0.0,0.0,0.0,0.0,0.0,0.0,0.0,0.0,0.0,0.0,0.0,0.0,0.0,0.0,0.0,0.0,0.0,0.0,0.0,0.0,0.0,0.0,0.0,0.0,0.0,0.0,0.0,0.0,0.0,0.0,0.0,0.0,0.0,0.0,0.0,0.0,0.0,0.0,1.2101,1.2101,1.2101,1.1866,1.1703,0.0,0.0,0.0,0.0,0.0,0.0,1.1914,1.1914,1.1987,1.2158,1.2166,1.2255,1.2442,1.2442,1.2442,1.2442,1.2442,1.2467,1.2507,1.241,1.2418,1.2507,1.2548,1.2677,1.2661,1.2231,1.2069,1.2085,1.1963,1.1857,1.1784,1.1882,1.1914,1.1963,0.0,0.0,0.0,0.0,0.0,0.0,0.0,0.0,0.0,0.0,0.0,0.0,0.0,0.0,0.0,0.0,0.0,0.0,0.0,0.0,0.0,0.0,0.0,0.0,0.0,0.0,0.0,0.0,0.0,0.0,0.0,0.0,0.0,0.0,0.0,0.0,0.0,0.0,0.0,0.0,0.0,0.0,0.0,0.0,0.0,0.0,0.0,0.0,0.0,0.0,0.0,0.0,0.0,0.0,0.0,0.0,0.0,0.0,0.0,0.0,0.0,0.0,0.0,0.0,0.0,0.0,0.0,0.0,0.0,0.0,0.0,0.0,0.0,0.0,0.0,0.0,0.0,0.0,0.0,1.2288,1.228,0.0,0.0,0.0,0.0,1.2264,1.2272,1.228,1.228,1.228,1.2361,1.2532,1.2604,1.2621,1.2742,1.2742,1.2742,1.2742,1.2742,1.2897,1.3043,1.2702,1.2735,1.3035,1.2702,1.2751,1.3051,1.2865,1.2588,1.2288,1.228,1.2077,1.1817,1.2158,1.228,1.2328,0.0,0.0,0.0,0.0,0.0,0.0,0.0,0.0,0.0,0.0,0.0,0.0,0.0,0.0,0.0,0.0,0.0,0.0,0.0,0.0,0.0,0.0,0.0,0.0,0.0,0.0,0.0,0.0,0.0,0.0,0.0,0.0,0.0,0.0,0.0,0.0,0.0,0.0,0.0,0.0,0.0,0.0,0.0,0.0,0.0,0.0,0.0,0.0,0.0,0.0,0.0,0.0,0.0,0.0,0.0,0.0,0.0,0.0,0.0,0.0,0.0,0.0,0.0,0.0,0.0,0.0,0.0,0.0,0.0,0.0,0.0,0.0,0.0,0.0,0.0,0.0,0.0,0.0,0.0,1.2637,1.245,0.0,1.2458,1.2475,1.2475,1.2475,1.258,1.2645,1.2645,1.2645,1.2678,1.2735,1.2743,1.2775,1.2774,1.2946,1.3003,1.3003,1.3124,1.3214,1.3271,1.3141,1.3149,1.3271,1.3262,1.3327,1.3449,1.3498,1.3311,1.2994,1.2994,1.2913,1.2816,1.2946,1.2994,1.3011,0.0,0.0,0.0,0.0,0.0,0.0,0.0,0.0,0.0,0.0,0.0,0.0,0.0,0.0,0.0,0.0,0.0,0.0,0.0,0.0,0.0,0.0,0.0,0.0,0.0,0.0,0.0,0.0,0.0,0.0,0.0,0.0,0.0,0.0,0.0,0.0,0.0,0.0,0.0,0.0,0.0,0.0,1.2304,0.0,0.0,0.0,0.0,0.0,0.0,0.0,0.0,0.0,0.0,0.0,0.0,0.0,0.0,0.0,0.0,0.0,0.0,0.0,0.0,0.0,0.0,0.0,0.0,0.0,0.0,0.0,0.0,0.0,0.0,0.0,0.0,0.0,0.0,0.0,1.2702,1.2824,1.2629,1.2532,1.2645,1.2653,1.2678,1.2735,1.2856,1.2921,1.2921,1.2986,1.2986,1.2921,1.2986,1.3019,1.3019,1.3133,1.3189,1.3189,1.3376,1.3465,1.3465,1.3465,1.3498,1.3555,1.362,1.3606,1.3742,1.3855,1.3766,1.3547,1.3482,1.3425,1.3368,1.3368,1.3368,1.3376,0.0,0.0,0.0,0.0,0.0,0.0,0.0,0.0,0.0,0.0,0.0,0.0,0.0,0.0,0.0,0.0,0.0,0.0,0.0,0.0,0.0,0.0,0.0,0.0,0.0,0.0,0.0,0.0,0.0,0.0,0.0,0.0,0.0,0.0,0.0,0.0,0.0,0.0,0.0,0.0,0.0,0.0,1.2758,0.0,0.0,0.0,0.0,0.0,0.0,0.0,0.0,0.0,0.0,0.0,0.0,0.0,0.0,0.0,0.0,0.0,0.0,0.0,0.0,0.0,0.0,0.0,0.0,0.0,0.0,0.0,0.0,0.0,0.0,0.0,0.0,0.0,1.2782,1.2774,1.2774,1.2774,1.2774,1.2774,1.2782,1.2782,1.2913,1.3092,1.31,1.31,1.31,1.3271,1.3287,1.3108,1.3279,1.3368,1.3368,1.3376,1.3376,1.3384,1.3563,1.3582,1.3582,1.3582,1.3742,1.3896,1.3655,1.375,1.3904,1.3904,1.3904,1.3888,1.3717,1.3547,1.3384,1.3384,1.3384,1.3417,0.0,0.0,0.0,0.0,0.0,0.0,0.0,0.0,0.0,0.0,0.0,0.0,0.0,0.0,0.0,0.0,0.0,0.0,0.0,0.0,0.0,0.0,0.0,0.0,0.0,0.0,0.0,0.0,0.0,0.0,0.0,0.0,0.0,0.0,0.0,0.0,0.0,0.0,0.0,0.0,0.0,0.0,1.3003,0.0,0.0,0.0,0.0,0.0,0.0,0.0,0.0,0.0,0.0,0.0,0.0,0.0,0.0,0.0,0.0,0.0,0.0,0.0,0.0,0.0,0.0,0.0,0.0,0.0,0.0,0.0,0.0,0.0,0.0,0.0,0.0,1.3027,1.3027,1.2913,1.2774,1.2774,1.2774,1.2889,1.3011,1.3027,1.31,1.3279,1.3295,1.3295,1.3295,1.3344,1.3344,1.3295,1.3344,1.3368,1.3368,1.3506,1.3571,1.3571,1.375,1.3831,1.3831,1.3831,1.3855,1.3896,1.3855,1.3855,1.3904,1.3904,1.3904,1.3896,1.3847,1.3798,1.3758,1.3758,1.3758,1.3766,0.0,0.0,0.0,0.0,0.0,0.0,0.0,0.0,0.0,0.0,0.0,0.0,0.0,0.0,0.0,0.0,0.0,0.0,0.0,0.0,0.0,0.0,0.0,0.0,0.0,0.0,0.0,0.0,0.0,0.0,0.0,0.0,0.0,0.0,0.0,0.0,0.0,0.0,0.0,0.0,0.0,0.0,1.3076,1.2905,1.2775,1.2678,1.2678,1.2613,1.2548,1.2645,0.0,0.0,0.0,0.0,0.0,0.0,0.0,0.0,0.0,0.0,0.0,0.0,0.0,0.0,0.0,0.0,0.0,0.0,0.0,0.0,0.0,0.0,0.0,0.0,1.3189,1.3327,1.3327,1.3043,1.2798,1.2938,1.2946,1.3011,1.3189,1.3206,1.3287,1.3474,1.3482,1.3482,1.3482,1.3555,1.3563,1.349,1.3555,1.3595,1.3595,1.3701,1.375,1.375,1.3855,1.3904,1.3904,1.3904,1.3904,1.3904,1.3904,1.3904,1.3904,1.3904,1.3904,0.0,0.0,0.0,0.0,0.0,1.3904,1.3904,0.0,0.0,0.0,0.0,0.0,0.0,0.0,0.0,0.0,0.0,0.0,0.0,0.0,0.0,0.0,0.0,0.0,0.0,0.0,0.0,0.0,0.0,0.0,0.0,0.0,0.0,0.0,0.0,0.0,0.0,0.0,0.0,0.0,0.0,0.0,0.0,0.0,0.0,0.0,0.0,0.0,0.0,1.3076,1.2905,1.2774,1.2774,1.2856,1.2798,1.2807,1.2847,0.0,0.0,0.0,0.0,0.0,0.0,0.0,0.0,0.0,0.0,0.0,0.0,0.0,0.0,0.0,0.0,0.0,0.0,0.0,0.0,0.0,0.0,0.0,0.0,1.3558,1.3574,1.3574,1.3214,1.2954,1.3108,1.3124,1.3197,1.3384,1.3401,1.3474,1.359,1.3606,1.3606,1.3606,0.0,0.0,0.0,0.0,1.3904,1.3904,1.3904,1.3904,1.3904,1.3904,1.3904,1.3904,1.3904,1.3904,1.3904,1.3904,1.3904,1.3904,1.3904,1.3904,1.3904,1.3904,1.3904,1.3904,1.3904,1.3904,1.3904,0.0,0.0,0.0,0.0,0.0,0.0,0.0,0.0,0.0,0.0,0.0,0.0,0.0,0.0,0.0,0.0,0.0,0.0,0.0,0.0,0.0,0.0,0.0,0.0,0.0,0.0,0.0,0.0,0.0,0.0,0.0,0.0,0.0,0.0,0.0,0.0,0.0,0.0,0.0,0.0,0.0,0.0,1.3076,1.2905,1.2774,1.279,1.2994,1.3043,1.3092,1.3316,1.3392,1.3303,1.3482,0.0,0.0,0.0,0.0,0.0,0.0,0.0,0.0,0.0,0.0,0.0,0.0,0.0,0.0,0.0,0.0,0.0,0.0,0.0,0.0,1.3433,1.3547,1.3574,1.3574,1.3425,1.3279,1.3311,1.3319,1.3392,1.3571,1.3595,1.366,1.3839,1.3855,1.3855,1.3855,1.3888,1.3888,1.3855,1.3888,1.3904,1.3904,1.3904,1.3904,1.3904,0.0,0.0,1.3904,1.3904,1.3904,1.3904,1.3904,1.3904,1.3904,1.3904,1.3904,1.3904,1.3904,1.3904,1.3904,1.3904,1.3904,1.3904,0.0,0.0,0.0,0.0,0.0,0.0,0.0,0.0,0.0,0.0,0.0,0.0,0.0,0.0,0.0,0.0,0.0,0.0,0.0,0.0,0.0,0.0,0.0,0.0,0.0,0.0,0.0,0.0,0.0,0.0,0.0,0.0,0.0,0.0,0.0,0.0,0.0,0.0,0.0,0.0,0.0,0.0,1.3222,1.3133,1.31,1.3116,1.3206,1.323,1.3262,1.3449,1.3449,1.3401,1.3587,1.3579,1.3506,0.0,0.0,0.0,0.0,0.0,0.0,0.0,0.0,0.0,0.0,0.0,0.0,0.0,0.0,1.3368,0.0,0.0,1.3644,1.3636,1.3717,1.3774,1.3774,1.3693,1.3604,1.3514,1.3506,1.3579,1.3758,1.3774,1.3807,1.3896,1.3904,1.3904,1.3904,1.3904,1.3904,1.3904,1.3904,1.3945,1.4042,1.4042,1.4083,1.4164,1.4164,1.4164,1.4164,1.4075,1.4083,1.4164,1.4075,1.4042,1.4042,1.4042,1.4091,1.4164,1.4164,1.4058,1.3904,1.3904,1.3904,1.3904,0.0,0.0,0.0,0.0,0.0,0.0,0.0,0.0,0.0,0.0,0.0,0.0,0.0,0.0,0.0,0.0,0.0,0.0,0.0,0.0,0.0,0.0,0.0,0.0,0.0,0.0,0.0,0.0,0.0,0.0,0.0,0.0,0.0,0.0,0.0,0.0,0.0,0.0,0.0,0.0,0.0,0.0,1.3474,1.3474,1.3433,1.3376,1.3409,1.3425,1.3433,1.3465,1.3474,1.3498,1.3644,1.3693,1.3693,1.3693,1.3644,0.0,0.0,0.0,0.0,0.0,0.0,0.0,0.0,0.0,1.3522,1.3709,1.3604,1.353,1.3717,1.3774,1.3839,1.3985,1.4002,1.3993,1.3961,1.392,1.3847,1.3709,1.3693,1.375,1.3888,1.3904,1.3904,1.3904,1.3904,1.3904,1.3904,1.3937,1.3953,1.3953,1.3985,1.4075,1.4229,1.4229,1.4294,1.4432,1.4432,1.4432,1.4424,1.4294,1.4302,1.4424,1.4286,1.4229,1.4229,1.4229,1.431,1.4432,1.4432,1.4253,1.4002,1.4002,1.4002,1.4002,0.0,0.0,0.0,0.0,0.0,0.0,0.0,0.0,0.0,0.0,0.0,0.0,0.0,0.0,0.0,0.0,0.0,0.0,0.0,0.0,0.0,0.0,0.0,0.0,0.0,0.0,0.0,0.0,0.0,0.0,0.0,0.0,0.0,0.0,0.0,0.0,0.0,0.0,0.0,0.0,0.0,0.0,1.3839,1.3839,1.3644,1.3392,1.3555,1.3612,1.3566,1.379,1.3839,1.3847,1.3863,1.3872,1.3872,1.3872,0.0,1.3392,0.0,0.0,0.0,1.4026,1.4026,1.3985,0.0,0.0,1.3896,1.4083,1.3969,1.3896,1.4083,1.4237,1.4351,1.4367,1.4375,1.4318,1.4172,1.4002,1.3896,1.3872,1.3872,1.388,1.3896,1.3904,1.3904,1.3904,1.3904,1.3904,1.3904,1.4058,1.4148,1.4148,1.4294,1.4383,1.4399,1.4408,1.4416,1.4432,1.4432,1.4432,1.4432,1.4416,1.4416,1.4432,1.4408,1.4408,1.4408,1.4408,1.4416,1.4432,1.4432,1.4408,1.4375,1.4375,1.4375,1.4375,0.0,0.0,0.0,0.0,0.0,0.0,0.0,0.0,0.0,0.0,0.0,0.0,0.0,0.0,0.0,0.0,0.0,0.0,0.0,0.0,0.0,0.0,0.0,0.0,0.0,0.0,0.0,0.0,0.0,0.0,0.0,0.0,0.0,0.0,0.0,0.0,0.0,0.0,0.0,0.0,0.0,0.0,1.3904,1.3904,1.3807,1.3693,1.3766,1.379,0.0,0.0,1.3904,1.3904,1.3904,1.3904,1.3904,1.3904,1.3725,0.0,1.3782,0.0,0.0,0.0,1.4351,1.4278,1.4538,1.4237,1.401,1.4408,1.4261,1.4115,1.4294,1.4473,1.4554,0.0,1.4521,1.4529,1.4351,1.4261,1.4205,1.4205,1.4205,1.4131,1.392,1.4002,1.4066,1.4066,1.4156,1.4205,1.4205,1.4286,1.4326,1.4326,1.4391,1.4481,1.4594,1.4594,1.4643,1.4741,1.4741,1.4741,1.4741,1.4635,1.4594,1.4594,1.4594,1.4651,1.4732,1.4635,1.4651,1.4741,1.4741,1.4741,1.4716,1.4505,1.4432,1.4432,0.0,0.0,0.0,0.0,0.0,0.0,0.0,0.0,0.0,0.0,0.0,0.0,0.0,0.0,0.0,0.0,0.0,0.0,0.0,0.0,0.0,0.0,0.0,0.0,0.0,0.0,0.0,0.0,0.0,0.0,0.0,0.0,0.0,0.0,0.0,0.0,0.0,0.0,0.0,0.0,0.0,0.0,1.3904,1.3904,1.3904,1.3896,1.3847,1.3831,0.0,0.0,1.379,1.3823,1.3774,1.379,1.3823,1.3766,1.3628,1.3571,1.3937,0.0,0.0,1.4497,1.4529,1.4464,1.4603,1.4326,1.4156,1.4554,1.4432,1.4302,1.4473,1.4659,1.4749,1.4667,1.4724,1.4732,1.4594,1.4497,1.4432,1.4432,1.4432,1.4326,1.4075,1.4172,1.4245,1.4245,1.4359,1.4432,1.4432,1.4481,1.4505,1.4505,1.4554,1.4643,1.4773,1.4781,1.4838,1.4968,1.4968,1.4968,1.5037,1.4838,1.4781,1.4781,1.4781,1.4846,1.4952,1.483,1.4854,1.4968,1.4891,1.4814,1.4782,1.4374,1.4354,1.4578,0.0,0.0,0.0,0.0,0.0,0.0,0.0,0.0,0.0,0.0,0.0,0.0,0.0,0.0,0.0,0.0,0.0,0.0,0.0,0.0,0.0,0.0,0.0,0.0,0.0,0.0,0.0,0.0,0.0,0.0,0.0,0.0,0.0,0.0,0.0,0.0,0.0,0.0,0.0,0.0,0.0,0.0,1.3904,1.3904,1.3904,1.388,1.3709,0.0,0.0,0.0,1.3506,1.362,1.3441,1.3506,0.0,1.3441,1.3254,0.0,0.0,0.0,1.3712,1.431,1.4432,1.4432,1.444,1.4424,1.4424,1.4432,1.4432,1.4481,1.4667,1.4838,1.5017,1.5187,1.5074,1.4952,1.4952,1.4651,1.4432,1.4432,1.4432,1.4424,0.0,1.4424,1.4424,1.4424,1.4432,1.4432,1.4432,1.4603,1.47,1.47,1.4862,1.4952,1.496,1.496,1.496,1.4968,1.4968,1.4968,1.4968,1.496,1.496,1.496,1.496,1.496,1.4968,1.496,1.496,1.4968,1.4592,1.4438,1.4361,1.3883,1.426,1.4952,0.0,0.0,0.0,0.0,0.0,0.0,0.0,0.0,0.0,0.0,0.0,0.0,0.0,0.0,0.0,0.0,0.0,0.0,0.0,0.0,0.0,0.0,0.0,0.0,0.0,0.0,0.0,0.0,0.0,0.0,0.0,0.0,0.0,0.0,0.0,0.0,0.0,0.0,0.0,0.0,0.0,0.0,1.3912,1.4034,1.3937,1.3725,0.0,0.0,0.0,0.0,0.0,0.0,1.3246,0.0,0.0,1.3425,0.0,0.0,0.0,0.0,1.427,1.4684,1.4789,1.4789,1.4789,1.47,1.4643,1.4765,1.4692,1.4667,1.4846,1.5025,1.5171,1.5228,1.5187,1.5147,1.5147,1.4935,1.4789,1.4789,1.4789,0.0,0.0,0.0,0.0,1.4611,1.4724,1.4789,1.4789,1.4846,1.481,1.4505,1.456,1.4438,1.4122,1.4122,1.4284,1.4592,1.4592,1.4438,1.4122,1.4122,1.4122,1.4122,1.4122,1.4122,1.4122,1.4122,1.4122,1.4122,1.3975,1.3975,1.3898,1.3744,1.3898,1.4122,0.0,0.0,0.0,0.0,0.0,0.0,0.0,0.0,0.0,0.0,0.0,0.0,0.0,0.0,0.0,0.0,0.0,0.0,0.0,0.0,0.0,0.0,0.0,0.0,0.0,0.0,0.0,0.0,0.0,0.0,0.0,0.0,0.0,0.0,0.0,0.0,0.0,0.0,0.0,0.0,0.0,0.0,1.313,1.3248,1.3428,0.0,0.0,0.0,0.0,0.0,0.0,0.0,0.0,0.0,0.0,0.0,0.0,0.0,0.0,1.4448,1.4708,1.5074,1.5163,1.5163,1.5163,1.5025,1.4927,1.5041,1.4794,1.4589,1.4854,1.4814,1.4911,1.5053,1.5139,1.5163,1.515,1.5082,1.4968,1.4968,1.4968,0.0,0.0,0.0,0.0,1.4797,1.4903,1.4968,1.4814,1.4814,1.4592,1.413,1.413,1.3975,1.3667,1.3667,1.3821,1.413,1.413,1.3975,1.3667,1.3667,1.3667,1.3667,1.3667,1.3667,1.3667,1.3667,1.3667,1.3667,1.3513,1.3513,1.3428,1.3351,1.3274,1.3274,0.0,0.0,0.0,0.0,0.0,0.0,0.0,0.0,0.0,0.0,0.0,0.0,0.0,0.0,0.0,0.0,0.0,0.0,0.0,0.0,0.0,0.0,0.0,0.0,0.0,0.0,0.0,0.0,0.0,0.0,0.0,0.0,0.0,0.0,0.0,0.0,0.0,0.0,0.0,0.0,0.0,0.0,1.1564,1.1502,0.0,0.0,0.0,0.0,0.0,0.0,0.0,0.0,0.0,0.0,0.0,0.0,0.0,1.4107,1.4781,1.4984,1.5074,1.5431,1.5512,1.5512,1.5512,1.5382,1.5174,1.5166,1.4661,1.4279,0.0,0.0,1.4318,1.4875,1.4976,1.5041,1.5134,1.509,1.4976,0.0,0.0,0.0,0.0,0.0,0.0,1.4968,0.0,1.4814,1.4438,1.4361,1.413,1.366,1.3667,1.3667,1.3667,1.3667,1.3667,1.3667,1.3667,1.3667,1.3667,1.3667,1.3667,1.3667,1.3667,1.3667,1.3667,1.3667,1.3667,1.359,1.3197,1.3042,1.3042,1.2656,1.2501,1.2579,0.0,0.0,0.0,0.0,0.0,0.0,0.0,0.0,0.0,0.0,0.0,0.0,0.0,0.0,0.0,0.0,0.0,0.0,0.0,0.0,0.0,0.0,0.0,0.0,0.0,0.0,0.0,0.0,0.0,0.0,0.0,0.0,0.0,0.0,0.0,0.0,0.0,0.0,0.0,0.0,0.0,0.0,0.9919,0.0,0.0,0.0,0.0,0.0,0.0,0.0,0.0,0.0,0.0,0.0,1.379,0.0,0.0,1.4732,1.4919,1.5163,1.5398,1.5496,1.5512,1.5512,1.5512,1.548,1.5407,1.5268,1.4774,1.4439,0.0,0.0,0.0,1.4672,1.4929,0.0,1.4759,1.4961,0.0,0.0,0.0,1.4968,1.4968,1.4745,0.0,0.0,1.4515,1.4515,1.4446,1.4053,1.3667,1.3274,1.3274,1.312,1.2811,1.312,1.312,1.2811,1.312,1.312,1.2811,1.2811,1.2811,1.2811,1.2811,1.2811,1.2811,1.2811,1.2811,1.2811,1.2656,1.2656,1.2656,1.2579,1.2501,1.2501,0.0,0.0,0.0,0.0,0.0,0.0,0.0,0.0,0.0,0.0,0.0,0.0,0.0,0.0,0.0,0.0,0.0,0.0,0.0,0.0,0.0,0.0,0.0,0.0,0.0,0.0,0.0,0.0,0.0,0.0,0.0,0.0,0.0,0.0,0.0,0.0,0.0,0.0,0.0,0.0,0.0,0.0,0.0,0.0,0.0,0.0,0.0,0.0,0.0,0.0,0.0,1.3685,1.4343,1.4416,1.4343,1.4806,0.0,1.5244,1.5398,1.5593,1.5748,1.5748,1.5748,1.5626,1.5305,1.5273,1.5098,1.4609,1.4153,0.0,0.0,0.0,0.0,0.0,0.0,0.0,1.4375,1.4539,1.4555,0.0,1.4284,0.0,1.443,1.4207,1.4053,0.0,1.4053,1.4053,1.3821,1.359,1.3274,1.2888,1.2811,1.2733,1.2501,1.2733,1.2733,1.2501,1.2733,1.2733,1.2501,1.2501,1.2501,1.2501,0.0,1.2501,1.2501,1.2501,1.2501,1.2501,1.2501,1.2501,1.2501,1.2501,1.2501,1.2501,0.0,0.0,0.0,0.0,0.0,0.0,0.0,0.0,0.0,0.0,0.0,0.0,0.0,0.0,0.0,0.0,0.0,0.0,0.0,0.0,0.0,0.0,0.0,0.0,0.0,0.0,0.0,0.0,0.0,0.0,0.0,0.0,0.0,0.0,0.0,0.0,0.0,0.0,0.0,0.0,0.0,0.0,0.0,0.0,0.0,0.0,0.0,0.0,0.0,0.0,1.2927,1.4343,1.47,1.483,1.4911,1.5244,1.5463,1.565,1.5885,1.5966,1.5966,1.5966,1.5883,1.5705,1.4953,1.4795,1.4569,1.3748,0.0,0.0,1.2941,0.0,1.34,1.3437,0.0,1.4382,1.402,1.4042,1.3998,1.3749,1.3726,1.3804,1.3804,1.3726,1.3649,1.3649,1.3627,1.3457,1.312,1.3042,1.2733,1.2192,1.2192,1.2192,1.2192,1.2192,1.2269,1.2501,1.2501,1.2501,1.2501,1.2501,1.2501,1.2501,1.2501,1.2501,1.2501,1.2501,1.2501,1.2501,1.2501,1.2501,1.2501,1.2501,1.2501,1.2501,0.0,0.0,0.0,0.0,0.0,0.0,0.0,0.0,0.0,0.0,0.0,0.0,0.0,0.0,0.0,0.0,0.0,0.0,0.0,0.0,0.0,0.0,0.0,0.0,0.0,0.0,0.0,0.0,0.0,0.0,0.0,0.0,0.0,0.0,0.0,0.0,0.0,0.0,0.0,0.0,0.0,0.0,0.0,0.0,0.0,0.0,0.0,0.0,0.0,0.0,1.3173,1.4895,1.526,1.5472,1.5626,1.5845,1.5926,1.5967,1.595,1.5966,1.5883,1.5628,1.5463,1.5295,1.4544,1.4388,0.0,0.0,0.0,1.2903,1.2799,1.2813,0.0,1.3118,0.0,0.0,0.0,0.0,1.4253,0.0,0.0,0.0,0.0,0.0,0.0,0.0,0.0,1.295,1.3127,1.2811,1.1953,1.0474,1.0397,1.0397,1.0397,1.0397,1.1095,1.2501,1.2501,1.2501,1.2501,1.2501,1.2501,1.2501,1.2501,0.0,1.2501,1.2501,1.2501,1.2501,1.2501,1.2501,1.2501,1.2501,1.2501,1.2501,0.0,0.0,0.0,0.0,0.0,0.0,0.0,0.0,0.0,0.0,0.0,0.0,0.0,0.0,0.0,0.0,0.0,0.0,0.0,0.0,0.0,0.0,0.0,0.0,0.0,0.0,0.0,0.0,0.0,0.0,0.0,0.0,0.0,0.0,0.0,0.0,0.0,0.0,0.0,0.0,0.0,0.0,0.0,0.0,0.0,0.0,0.0,0.0,0.0,0.0,1.082,1.3581,1.5027,1.5569,1.5658,1.5748,1.5674,1.5502,1.5502,1.5401,1.5298,1.5043,1.5051,1.4832,1.3929,0.0,0.0,0.0,0.0,1.2373,1.206,0.0,0.0,0.0,0.0,0.0,0.0,0.0,0.0,0.0,0.0,0.0,0.0,0.0,0.0,0.0,0.0,1.15,1.1601,1.0508,0.9537,0.8759,0.8682,0.8682,0.8682,0.8682,0.9071,0.9931,0.9931,1.0319,1.1178,1.1178,1.1643,1.2501,1.2501,1.2501,1.2501,1.2501,1.2501,1.2501,1.2501,1.2501,1.2501,1.2501,1.2501,1.2347,0.0,0.0,0.0,0.0,0.0,0.0,0.0,0.0,0.0,0.0,0.0,0.0,0.0,0.0,0.0,0.0,0.0,0.0,0.0,0.0,0.0,0.0,0.0,0.0,0.0,0.0,0.0,0.0,0.0,0.0,0.0,0.0,0.0,0.0,0.0,0.0,0.0,0.0,0.0,0.0,0.0,0.0,0.0,0.0,0.0,0.0,0.0,0.0,0.0,0.0,0.7969,1.082,1.324,1.4592,1.5186,1.4828,1.4777,1.4915,1.4915,1.4764,1.4609,1.4527,1.4445,1.4202,1.3212,1.3071,0.0,0.0,0.0,1.1823,1.1497,0.0,0.0,0.0,0.0,0.0,0.0,0.0,0.0,0.0,0.0,0.0,0.0,0.0,0.0,0.0,0.0,0.0,0.9639,0.8308,0.7319,0.6967,0.6986,0.6986,0.6967,0.6967,0.7123,0.7513,0.7513,0.8214,0.9459,0.9459,1.0397,1.1953,1.1953,1.2192,1.2501,1.2501,1.2269,1.1953,1.1953,1.1721,1.1411,1.1411,1.1411,1.1256,0.0,0.0,0.0,0.0,0.0,0.0,0.0,0.0,0.0,0.0,0.0,0.0,0.0,0.0,0.0,0.0,0.0,0.0,0.0,0.0,0.0,0.0,0.0,0.0,0.0,0.0,0.0,0.0,0.0,0.0,0.0,0.0,0.0,0.0,0.0,0.0,0.0,0.0,0.0,0.0,0.0,0.0,0.0,0.0,0.0,0.0,0.0,0.0,0.0,0.0,0.0,0.6418,0.8605,1.1631,1.4119,1.2529,0.0,0.0,1.4331,1.4346,1.4193,1.3792,1.3712,1.3504,1.2567,0.0,0.0,0.0,1.1525,1.1484,1.1579,1.1633,0.0,0.0,0.0,0.0,0.0,0.0,0.0,0.0,0.0,0.0,0.0,0.0,0.0,0.0,0.0,0.0,0.7731,0.7713,0.6879,0.5251,0.5305,0.5305,0.5248,0.5248,0.603,0.7513,0.7513,0.7591,0.7747,0.7747,0.8682,1.0241,1.0241,1.1095,0.0,1.2501,1.1566,1.0241,1.0241,0.9304,0.7981,0.7981,0.7981,0.7916,0.0,0.0,0.0,0.0,0.0,0.0,0.0,0.0,0.0,0.0,0.0,0.0,0.0,0.0,0.0,0.0,0.0,0.0,0.0,0.0,0.0,0.0,0.0,0.0,0.0,0.0,0.0,0.0,0.0,0.0,0.0,0.0,0.0,0.0,0.0,0.0,0.0,0.0,0.0,0.0,0.0,0.0,0.0,0.0,0.0,0.0,0.0,0.0,0.0,0.0,0.0,0.0,0.4906,0.7282,0.0,0.0,1.0957,1.2159,1.2159,1.2874,1.3436,1.3276,1.3127,1.2934,1.2333,0.0,0.0,1.1314,1.1233,1.1246,1.1219,1.1362,1.1525,0.0,0.0,0.0,0.0,0.0,0.0,0.0,0.0,0.0,0.0,0.0,0.0,0.0,0.0,0.0,0.4646,0.455,0.4284,0.3605,0.3598,0.3586,0.3571,0.3544,0.3844,0.4471,0.4471,0.5016,0.603,0.603,0.6889,0.8526,0.8526,0.8837,0.0,0.9459,0.9071,0.8526,0.8526,0.8094,0.7591,0.7591,0.7544,0.7437,0.0,0.0,0.0,0.0,0.0,0.0,0.0,0.0,0.0,0.0,0.0,0.0,0.0,0.0,0.0,0.0,0.0,0.0,0.0,0.0,0.0,0.0,0.0,0.0,0.0,0.0,0.0,0.0,0.0,0.0,0.0,0.0,0.0,0.0,0.0,0.0,0.0,0.0,0.0,0.0,0.0,0.0,0.0,0.0,0.0,0.0,0.0,0.0,0.0,0.0,0.0,0.0,0.0,0.0,0.0,0.0,0.865,0.9844,0.9798,1.0589,1.1384,1.1384,1.1628,1.1765,0.0,0.0,0.0,1.1118,1.1056,1.1084,1.1023,1.1219,1.1389,0.0,0.0,0.0,0.0,0.0,0.0,0.0,0.0,0.0,0.0,0.0,0.0,0.0,0.0,0.0,0.2661,0.2641,0.262,0.2602,0.2592,0.2577,0.264,0.2538,0.2523,0.2514,0.2514,0.314,0.4234,0.4234,0.517,0.6733,0.6733,0.7045,0.0,0.7513,0.7201,0.6733,0.6733,0.6452,0.6105,0.6128,0.6088,0.5975,0.0,0.0,0.0,0.0,0.0,0.0,0.0,0.0,0.0,0.0,0.0,0.0,0.0,0.0,0.0,0.0,0.0,0.0,0.0,0.0,0.0,0.0,0.0,0.0,0.0,0.0,0.0,0.0,0.0,0.0,0.0,0.0,0.0,0.0,0.0,0.0,0.0,0.0,0.0,0.0,0.0,0.0,0.0,0.0,0.0,0.0,0.0,0.0,0.0,0.0,0.0,0.0,0.0,0.0,0.0,0.0,0.619,0.7556,0.757,0.7517,0.7595,0.7595,0.8842,0.9916,0.0,0.0,1.1531,1.1226,1.105,1.0995,1.1131,1.1287,1.1389,1.1389,0.0,0.0,0.0,0.0,0.0,0.0,0.0,0.0,0.0,0.0,0.0,0.0,0.0,0.0,0.2692,0.2691,0.2664,0.2604,0.2631,0.2619,0.256,0.2559,0.2544,0.2514,0.2514,0.2514,0.2514,0.2514,0.3452,0.5014,0.5014,0.5952,0.0,0.7513,0.6499,0.5014,0.5014,0.3999,0.2597,0.2628,0.264,0.2649,0.0,0.0,0.0,0.0,0.0,0.0,0.0,0.0,0.0,0.0,0.0,0.0,0.0,0.0,0.0,0.0,0.0,0.0,0.0,0.0,0.0,0.0,0.0,0.0,0.0,0.0,0.0,0.0,0.0,0.0,0.0,0.0,0.0,0.0,0.0,0.0,0.0,0.0,0.0,0.0,0.0,0.0,0.0,0.0,0.0,0.0,0.0,0.0,0.0,0.0,0.0,0.0,0.0,0.0,0.0,0.0,0.0,0.0,0.5777,0.6691,0.7586,0.7529,0.7804,0.8026,0.7792,0.0,0.8488,0.9284,0.9399,0.932,0.9423,0.9543,0.9341,0.8358,0.0,0.0,0.0,0.0,0.0,0.0,0.0,0.0,0.0,0.0,0.0,0.0,0.0,0.0,0.2692,0.2692,0.2673,0.2634,0.2559,0.2619,0.256,0.264,0.2544,0.2514,0.2514,0.2514,0.2514,0.2514,0.2828,0.3297,0.3297,0.3609,0.4079,0.4079,0.3766,0.3299,0.3328,0.3035,0.2578,0.2608,0.2632,0.2653,0.0,0.0,0.0,0.0,0.0,0.0,0.0,0.0,0.0,0.0,0.0,0.0,0.0,0.0,0.0,0.0,0.0,0.0,0.0,0.0,0.0,0.0,0.0,0.0,0.0,0.0,0.0,0.0,0.0,0.0,0.0,0.0,0.0,0.0,0.0,0.0,0.0,0.0,0.0,0.0,0.0,0.0,0.0,0.0,0.0,0.0,0.0,0.0,0.0,0.0,0.0,0.0,0.0,0.0,0.0,0.0,0.0,0.0,0.0,0.4852,0.5655,0.5612,0.5959,0.0,0.0,0.0,0.0,0.7612,0.7769,0.7769,0.7769,0.7917,0.7705,0.6839,0.6876,0.0,0.0,0.0,0.0,0.0,0.0,0.0,0.0,0.0,0.0,0.0,0.0,0.0,0.2692,0.2682,0.2661,0.2631,0.2641,0.2619,0.256,0.264,0.2544,0.2514,0.2514,0.2514,0.2514,0.2514,0.2514,0.2514,0.2514,0.2514,0.0,0.2526,0.2532,0.2534,0.2564,0.2586,0.2605,0.2635,0.2658,0.2677,0.0,0.0,0.0,0.0,0.0,0.0,0.0,0.0,0.0,0.0,0.0,0.0,0.0,0.0,0.0,0.0,0.0,0.0,0.0,0.0,0.0,0.0,0.0,0.0,0.0,0.0,0.0,0.0,0.0,0.0,0.0,0.0,0.0,0.0,0.0,0.0,0.0,0.0,0.0,0.0,0.0,0.0,0.0,0.0,0.0,0.0,0.0,0.0,0.0,0.0,0.0,0.0,0.0,0.0,0.0,0.0,0.0,0.0,0.0,0.0,0.0,0.0,0.0,0.0,0.0,0.0,0.0,0.0,0.0,0.0,0.0,0.6377,0.6465,0.6422,0.6512,0.0,0.0,0.0,0.0,0.0,0.0,0.0,0.0,0.0,0.0,0.0,0.0,0.0,0.269,0.2664,0.2634,0.26,0.2628,0.2616,0.2557,0.2559,0.2544,0.2514,0.2514,0.2514,0.2514,0.2514,0.2514,0.0,0.2517,0.2518,0.2519,0.2551,0.2563,0.2566,0.2594,0.2605,0.2608,0.2639,0.2567,0.2654,0.0,0.0,0.0,0.0,0.0,0.0,0.0,0.0,0.0,0.0,0.0,0.0,0.0,0.0,0.0,0.0,0.0,0.0,0.0,0.0,0.0,0.0,0.0,0.0,0.0,0.0,0.0,0.0,0.0,0.0,0.0,0.0,0.0,0.0,0.0,0.0,0.0,0.0,0.0,0.0,0.0,0.0,0.0,0.0,0.0,0.0,0.0,0.2333,0.0,0.0,0.0,0.0,0.0,0.0,0.0,0.0,0.0,0.0,0.0,0.0,0.0,0.0,0.0,0.0,0.0,0.0,0.0,0.0,0.0,0.0,0.0,0.0,0.0,0.0,0.0,0.0,0.0,0.0,0.0,0.0,0.0,0.0,0.0,0.0,0.0,0.0,0.0,0.2683,0.2658,0.2673,0.2647,0.2572,0.2597,0.2585,0.2526,0.2548,0.2544,0.2514,0.2514,0.2514,0.2514,0.2514,0.2514,0.2515,0.2538,0.2549,0.2552,0.2579,0.2592,0.2594,0.2624,0.2637,0.2641,0.2671,0.2682,0.2683,0.0,0.0,0.0,0.0,0.0,0.0,0.0,0.0,0.0,0.0,0.0,0.0,0.0,0.0,0.0,0.0,0.0,0.0,0.0,0.0,0.0,0.0,0.0,0.0,0.0,0.0,0.0,0.0,0.0,0.0,0.0,0.0,0.0,0.0,0.0,0.0,0.0,0.0,0.0,0.0,0.0,0.0,0.0,0.0,0.0,0.0,0.2333,0.2333,0.0,0.2333,0.2333,0.2333,0.0,0.0,0.0,0.0,0.0,0.0,0.0,0.0,0.0,0.0,0.0,0.0,0.0,0.0,0.0,0.0,0.0,0.0,0.0,0.0,0.0,0.0,0.0,0.0,0.0,0.0,0.0,0.0,0.0,0.0,0.0,0.0,0.0,0.0,0.0,0.2686,0.2669,0.2657,0.2628,0.2581,0.2568,0.2547,0.2515,0.253,0.253,0.2514,0.2514,0.2514,0.2514,0.2514,0.2522,0.2536,0.2553,0.2567,0.2582,0.2611,0.2623,0.2626,0.2656,0.2668,0.2669,0.2687,0.2692,0.2695,0.0,0.0,0.0,0.0,0.0,0.0,0.0,0.0,0.0,0.0,0.0,0.0,0.0,0.0,0.0,0.0,0.0,0.0,0.0,0.0,0.0,0.0,0.0,0.0,0.0,0.0,0.0,0.0,0.0,0.0,0.0,0.0,0.0,0.0,0.0,0.0,0.0,0.0,0.0,0.0,0.0,0.0,0.0,0.0,0.0,0.0,0.0,0.0,0.0,0.2333,0.2333,0.2333,0.2333,0.0,0.0,0.0,0.0,0.0,0.0,0.0,0.0,0.0,0.0,0.0,0.0,0.0,0.0,0.0,0.0,0.0,0.0,0.0,0.0,0.0,0.0,0.0,0.0,0.0,0.0,0.0,0.0,0.0,0.0,0.0,0.0,0.0,0.0,0.269,0.2686,0.2637,0.2604,0.2596,0.2547,0.2519,0.2514,0.2514,0.2514,0.2514,0.2514,0.2517,0.2521,0.2521,0.2537,0.2567,0.0,0.0,0.2611,0.2642,0.2654,0.2657,0.2683,0.2692,0.2692,0.2698,0.2699,0.2703,0.0,0.0,0.0,0.0,0.0,0.0,0.0,0.0,0.0,0.0,0.0,0.0,0.0,0.0,0.0,0.0,0.0,0.0,0.0,0.0,0.0,0.0,0.0,0.0,0.0,0.0,0.0,0.0,0.0,0.0,0.0,0.0,0.0,0.0,0.0,0.0,0.0,0.0,0.0,0.0,0.0,0.0,0.0,0.0,0.0,0.0,0.0,0.0,0.0,0.2333,0.2333,0.2333,0.2333,0.0,0.0,0.0,0.0,0.0,0.0,0.0,0.0,0.0,0.0,0.0,0.0,0.0,0.0,0.0,0.0,0.0,0.0,0.0,0.0,0.0,0.0,0.0,0.0,0.0,0.0,0.0,0.0,0.0,0.0,0.0,0.0,0.0,0.0,0.2682,0.2656,0.2645,0.2617,0.2568,0.2557,0.2541,0.2515,0.2514,0.2514,0.2514,0.2514,0.2527,0.2553,0.2553,0.2568,0.2597,0.0,0.2637,0.2642,0.2673,0.2686,0.2686,0.2691,0.2692,0.2695,0.2721,0.2731,0.2735,0.0,0.0,0.0,0.0,0.0,0.0,0.0,0.0,0.0,0.0,0.0,0.0,0.0,0.0,0.0,0.0,0.0,0.0,0.0,0.0,0.0,0.0,0.0,0.0,0.0,0.0,0.0,0.0,0.0,0.0,0.0,0.0,0.0,0.0,0.0,0.0,0.0,0.0,0.0,0.0,0.0,0.0,0.0,0.0,0.0,0.0,0.0,0.0,0.0,0.0,0.2333,0.2333,0.2333,0.0,0.0,0.0,0.0,0.0,0.2318,0.2309,0.0,0.0,0.0,0.0,0.0,0.0,0.0,0.0,0.0,0.0,0.0,0.0,0.0,0.0,0.0,0.0,0.0,0.0,0.0,0.0,0.0,0.0,0.0,0.0,0.0,0.0,0.0,0.0,0.2566,0.2631,0.2604,0.2562,0.2544,0.2529,0.2514,0.2514,0.2514,0.2515,0.2532,0.2547,0.256,0.2575,0.2598,0.2627,0.0,0.2657,0.2672,0.2687,0.2692,0.2694,0.271,0.2717,0.2721,0.2751,0.2773,0.2789,0.0,0.0,0.0,0.0,0.0,0.0,0.0,0.0,0.0,0.0,0.0,0.0,0.0,0.0,0.0,0.0,0.0,0.0,0.0,0.0,0.0,0.0,0.0,0.0,0.0,0.0,0.0,0.0,0.0,0.0,0.0,0.0,0.0,0.0,0.0,0.0,0.0,0.0,0.0,0.0,0.0,0.0,0.0,0.0,0.0,0.0,0.0,0.0,0.0,0.0,0.0,0.0,0.0,0.0,0.0,0.0,0.0,0.2323,0.2323,0.23,0.0,0.0,0.0,0.0,0.0,0.0,0.0,0.0,0.0,0.0,0.0,0.0,0.0,0.0,0.0,0.0,0.0,0.0,0.0,0.0,0.0,0.0,0.0,0.0,0.0,0.0,0.0,0.0,0.2658,0.2622,0.2592,0.257,0.2533,0.2514,0.2514,0.2521,0.2525,0.2525,0.2548,0.2567,0.2581,0.2602,0.2628,0.2657,0.2657,0.2671,0.2692,0.2701,0.2703,0.2706,0.2736,0.2752,0.2762,0.2785,0.2814,0.284,0.0,0.0,0.0,0.0,0.0,0.0,0.0,0.0,0.0,0.0,0.0,0.0,0.0,0.0,0.0,0.0,0.0,0.0,0.0,0.0,0.0,0.0,0.0,0.0,0.0,0.0,0.0,0.0,0.0,0.0,0.0,0.0,0.0,0.0,0.0,0.0,0.0,0.0,0.0,0.0,0.0,0.0,0.0,0.0,0.0,0.0,0.0,0.0,0.0,0.0,0.0,0.0,0.0,0.0,0.0,0.0,0.0,0.2294,0.2294,0.233,0.2364,0.2342,0.0,0.0,0.0,0.0,0.0,0.0,0.0,0.0,0.0,0.0,0.0,0.0,0.0,0.0,0.0,0.0,0.0,0.0,0.0,0.0,0.0,0.0,0.0,0.0,0.0,0.0,0.269,0.2634,0.2601,0.2598,0.2544,0.2514,0.2514,0.2542,0.2556,0.2556,0.2559,0.2587,0.2641,0.2561,0.266,0.269,0.269,0.269,0.2695,0.2722,0.2735,0.2737,0.2769,0.2797,0.2822,0.2825,0.2845,0.2871,0.0,0.0,0.0,0.0,0.0,0.0,0.0,0.0,0.0,0.0,0.0,0.0,0.0,0.0,0.0,0.0,0.0,0.0,0.0,0.0,0.0,0.0,0.0,0.0,0.0,0.0,0.0,0.0,0.0,0.0,0.0,0.0,0.0,0.0,0.0,0.0,0.0,0.0,0.0,0.0,0.0,0.0,0.0,0.0,0.0,0.0,0.0,0.0,0.0,0.0,0.0,0.0,0.0,0.0,0.0,0.0,0.0,0.229,0.229,0.232,0.2348,0.2335,0.0,0.0,0.0,0.0,0.0,0.0,0.0,0.0,0.0,0.0,0.0,0.0,0.0,0.0,0.0,0.0,0.0,0.0,0.0,0.0,0.0,0.0,0.0,0.0,0.0,0.0,0.2638,0.2615,0.2585,0.2548,0.2526,0.2523,0.2542,0.2555,0.2578,0.2613,0.2613,0.2626,0.2565,0.2667,0.2682,0.2692,0.2692,0.2703,0.2721,0.2733,0.2748,0.2769,0.28,0.283,0.2857,0.2857,0.2875,0.29,0.0,0.0,0.0,0.0,0.0,0.0,0.0,0.0,0.0,0.0,0.0,0.0,0.0,0.0,0.0,0.0,0.0,0.0,0.0,0.0,0.0,0.0,0.0,0.0,0.0,0.0,0.0,0.0,0.0,0.0,0.0,0.0,0.0,0.0,0.0,0.0,0.0,0.0,0.0,0.0,0.0,0.0,0.0,0.0,0.0,0.0,0.0,0.0,0.0,0.0,0.0,0.0,0.0,0.0,0.0,0.0,0.0,0.2319,0.2319,0.2339,0.2361,0.0,0.0,0.0,0.0,0.0,0.0,0.0,0.0,0.0,0.0,0.0,0.0,0.0,0.0,0.0,0.0,0.0,0.0,0.0,0.0,0.0,0.0,0.0,0.0,0.0,0.0,0.0,0.0,0.2607,0.2579,0.253,0.2529,0.2538,0.2639,0.2578,0.2608,0.2565,0.2657,0.2661,0.2662,0.2683,0.2698,0.2706,0.2706,0.2724,0.2752,0.2762,0.2784,0.2814,0.2834,0.2861,0.2887,0.2887,0.2905,0.293,0.0,0.0,0.0,0.0,0.0,0.0,0.0,0.0,0.0,0.0,0.0,0.0,0.0,0.0,0.0,0.0,0.0,0.0,0.0,0.0,0.0,0.0,0.0,0.0,0.0,0.0,0.0,0.0,0.0,0.0,0.0,0.0,0.0,0.0,0.0,0.0,0.0,0.0,0.0,0.0,0.0,0.0,0.0,0.0,0.0,0.0,0.0,0.0,0.0,0.0,0.2333,0.2327,0.0,0.0,0.0,0.0,0.0,0.2376,0.2376,0.2399,0.0,0.0,0.0,0.0,0.0,0.0,0.0,0.0,0.0,0.0,0.0,0.0,0.0,0.0,0.0,0.0,0.0,0.0,0.0,0.0,0.0,0.0,0.0,0.0,0.0,0.0,0.0,0.0,0.0,0.2617,0.2589,0.256,0.264,0.256,0.256,0.2617,0.2565,0.2565,0.2677,0.2692,0.2692,0.2692,0.2709,0.2737,0.2737,0.2755,0.2787,0.2816,0.2846,0.2874,0.2874,0.2891,0.2916,0.2916,0.2935,0.2961,0.0,0.0,0.0,0.0,0.0,0.0,0.0,0.0,0.0,0.0,0.0,0.0,0.0,0.0,0.0,0.0,0.0,0.0,0.0,0.0,0.0,0.0,0.0,0.0,0.0,0.0,0.0,0.0,0.0,0.0,0.0,0.0,0.0,0.0,0.0,0.0,0.0,0.0,0.0,0.0,0.0,0.0,0.0,0.0,0.0,0.0,0.0,0.0,0.0,0.0,0.0,0.0,0.0,0.0,0.0,0.0,0.2281,0.2285,0.2285,0.0,0.0,0.0,0.0,0.0,0.0,0.0,0.0,0.0,0.0,0.0,0.0,0.0,0.0,0.0,0.0,0.0,0.0,0.0,0.0,0.0,0.0,0.0,0.0,0.0,0.0,0.0,0.0,0.0,0.0,0.2587,0.2568,0.256,0.264,0.2579,0.262,0.2638,0.2658,0.2679,0.2688,0.2692,0.2692,0.2714,0.2729,0.2739,0.2761,0.2787,0.2818,0.2492,0.2418,0.2426,0.2444,0.2365,0.2464,0.2849,0.2968,0.2994,0.0,0.0,0.0,0.0,0.0,0.0,0.0,0.0,0.0,0.0,0.0,0.0,0.0,0.0,0.0,0.0,0.0,0.0,0.0,0.0,0.0,0.0,0.0,0.0,0.0,0.0,0.0,0.0,0.0,0.0,0.0,0.0,0.0,0.0,0.0,0.0,0.0,0.0,0.0,0.0,0.0,0.0,0.0,0.0,0.0,0.0,0.0,0.0,0.0,0.0,0.0,0.0,0.0,0.0,0.0,0.0,0.2338,0.2357,0.238,0.0,0.0,0.0,0.0,0.0,0.0,0.0,0.0,0.0,0.0,0.0,0.0,0.0,0.0,0.0,0.0,0.0,0.0,0.0,0.0,0.0,0.0,0.0,0.0,0.0,0.0,0.0,0.0,0.0,0.0,0.2586,0.2571,0.256,0.2571,0.26,0.2563,0.2658,0.2675,0.2692,0.2705,0.271,0.2712,0.2729,0.2751,0.2776,0.263,0.2564,0.2492,0.206,0.1891,0.1899,0.191,0.2016,0.2217,0.2602,0.2811,0.3025,0.0,0.0,0.0,0.0,0.0,0.0,0.0,0.0,0.0,0.0,0.0,0.0,0.0,0.0,0.0,0.0,0.0,0.0,0.0,0.0,0.0,0.0,0.0,0.0,0.0,0.0,0.0,0.0,0.0,0.0,0.0,0.0,0.0,0.0,0.0,0.0,0.0,0.0,0.0,0.0,0.0,0.0,0.0,0.0,0.0,0.0,0.0,0.0,0.0,0.0,0.0,0.0,0.0,0.0,0.0,0.0,0.2359,0.0,0.0,0.0,0.0,0.0,0.0,0.0,0.0,0.0,0.0,0.0,0.0,0.0,0.0,0.0,0.0,0.0,0.0,0.0,0.0,0.0,0.0,0.0,0.0,0.0,0.0,0.0,0.0,0.0,0.0,0.0,0.2604,0.26,0.2587,0.2564,0.2592,0.262,0.2567,0.2595,0.261,0.2612,0.2554,0.2569,0.2574,0.266,0.269,0.2746,0.2325,0.2157,0.2069,0.1528,0.1357,0.137,0.1372,0.1665,0.2067,0.2163,0.2555,0.3052,0.0,0.0,0.0,0.0,0.0,0.0,0.0,0.0,0.0,0.0,0.0,0.0,0.0,0.0,0.0,0.0,0.0,0.0,0.0,0.0,0.0,0.0,0.0,0.0,0.0,0.0,0.0,0.0,0.0,0.0,0.0,0.0,0.0,0.0,0.0,0.0,0.0,0.0,0.0,0.0,0.0,0.0,0.0,0.0,0.0,0.0,0.0,0.0,0.0,0.0,0.0,0.0,0.189,0.1674,0.1461,0.1464,0.1706,0.0,0.0,0.0,0.0,0.0,0.0,0.0,0.0,0.0,0.0,0.0,0.0,0.0,0.0,0.0,0.0,0.0,0.0,0.0,0.0,0.0,0.0,0.0,0.0,0.0,0.0,0.0,0.0,0.0,0.0,0.0,0.2601,0.2581,0.2577,0.2592,0.2622,0.2652,0.2683,0.2352,0.2112,0.2131,0.1794,0.164,0.1668,0.2457,0.2652,0.2327,0.2243,0.1984,0.1545,0.1091,0.0823,0.0831,0.0931,0.103,0.1223,0.1991,0.238,0.2578,0.0,0.0,0.0,0.0,0.0,0.0,0.0,0.0,0.0,0.0,0.0,0.0,0.0,0.0,0.0,0.0,0.0,0.0,0.0,0.0,0.0,0.0,0.0,0.0,0.0,0.0,0.0,0.0,0.0,0.0,0.0,0.0,0.0,0.0,0.0,0.0,0.0,0.0,0.0,0.0,0.0,0.0,0.0,0.0,0.0,0.0,0.0,0.0,0.0,0.0,0.0,0.0,0.0,0.0,0.1171,0.1259,0.1418,0.1583,0.0,0.0,0.0,0.0,0.0,0.0,0.0,0.0,0.0,0.0,0.0,0.0,0.0,0.0,0.0,0.0,0.0,0.0,0.0,0.0,0.0,0.0,0.0,0.0,0.0,0.0,0.0,0.0,0.0,0.2601,0.2601,0.2587,0.2586,0.2601,0.2385,0.2329,0.2355,0.1861,0.1701,0.1626,0.147,0.1402,0.1425,0.187,0.2055,0.1796,0.1535,0.1361,0.1003,0.055,0.037,0.0373,0.0375,0.0566,0.0853,0.1435,0.1921,0.2308,0.0,0.0,0.0,0.0,0.0,0.0,0.0,0.0,0.0,0.0,0.0,0.0,0.0,0.0,0.0,0.0,0.0,0.0,0.0,0.0,0.0,0.0,0.0,0.0,0.0,0.0,0.0,0.0,0.0,0.0,0.0,0.0,0.0,0.0,0.0,0.0,0.0,0.0,0.0,0.0,0.0,0.0,0.0,0.0,0.0,0.0,0.0,0.0,0.0,0.1822,0.0,0.0,0.0,0.0,0.1023,0.1046,0.1129,0.1216,0.0,0.0,0.0,0.0,0.0,0.0,0.0,0.0,0.0,0.0,0.0,0.0,0.0,0.0,0.0,0.0,0.0,0.0,0.0,0.0,0.0,0.0,0.0,0.0,0.0,0.0,0.0,0.0,0.0,0.2623,0.2602,0.2601,0.2604,0.2528,0.2143,0.2002,0.1856,0.1447,0.12,0.1204,0.1141,0.1158,0.117,0.117,0.117,0.1261,0.091,0.0641,0.055,0.0185,0.0,0.0,0.0,0.0284,0.067,0.0772,0.1356,0.2234,0.0,0.0,0.0,0.0,0.0,0.0,0.0,0.0,0.0,0.0,0.0,0.0,0.0,0.0,0.0,0.0,0.0,0.0,0.0,0.0,0.0,0.0,0.0,0.0,0.0,0.0,0.0,0.0,0.0,0.0,0.0,0.0,0.0,0.0,0.0,0.0,0.0,0.0,0.0,0.0,0.0,0.0,0.0,0.0,0.0,0.0,0.0,0.0,0.0,0.0,0.1312,0.0,0.0,0.0,0.0,0.0146,0.0,0.0,0.0,0.0,0.0,0.0,0.0,0.0,0.0,0.0,0.0,0.0,0.0,0.0,0.0,0.0,0.0,0.0,0.0,0.0,0.0,0.0,0.0,0.0,0.0,0.0,0.0,0.0,0.0,0.0,0.2602,0.2581,0.2601,0.2601,0.245,0.2062,0.2002,0.1772,0.1366,0.1026,0.0777,0.0792,0.0356,0.018,0.0182,0.0182,0.0364,0.082,0.0736,0.0464,0.0094,0.0,0.0,0.0,0.0,0.0,0.0193,0.058,0.1167,0.1766,0.0,0.0,0.0,0.0,0.0,0.0,0.0,0.0,0.0,0.0,0.0,0.0,0.0,0.0,0.0,0.0,0.0,0.0,0.0,0.0,0.0,0.0,0.0,0.0,0.0,0.0,0.0,0.0,0.0,0.0,0.0,0.2318,0.2338,0.0,0.0,0.0,0.0,0.0,0.0,0.0,0.0,0.0,0.0,0.0,0.0,0.0,0.0,0.0,0.0,0.0,0.0,0.0292,0.0292,0.0,0.0,0.0,0.0,0.0,0.0,0.0,0.0,0.0,0.0,0.0,0.0,0.0,0.0,0.0,0.0,0.0,0.0,0.0,0.0,0.0,0.0,0.0,0.0,0.0,0.0,0.0,0.0,0.0,0.0,0.0,0.0,0.0,0.2598,0.2589,0.2601,0.2372,0.2221,0.1985,0.1506,0.1185,0.0941,0.0516,0.0349,0.0268,0.009,0.0,0.0,0.0,0.0093,0.0276,0.0279,0.0187,0.0,0.0,0.0,0.0,0.0,0.0,0.0,0.0294,0.069,0.1189,0.0,0.0,0.0,0.0,0.0,0.0,0.0,0.0,0.0,0.0,0.0,0.0,0.0,0.0,0.0,0.0,0.0,0.0,0.0,0.0,0.0,0.0,0.0,0.0,0.0,0.0,0.0,0.0,0.0,0.0,0.229,0.229,0.2233,0.0,0.2208,0.0,0.0,0.0,0.0,0.0,0.0,0.0,0.0,0.0,0.0,0.0,0.0,0.0,0.0,0.0,0.0,0.0,0.0,0.0,0.0,0.0,0.0,0.0,0.0,0.0,0.0,0.0,0.0,0.0,0.0,0.0,0.0,0.0,0.0,0.0,0.0,0.0,0.0,0.0,0.0,0.0,0.0,0.0,0.0,0.0,0.0,0.0,0.0,0.0,0.0,0.0,0.2601,0.2524,0.2449,0.214,0.1905,0.1662,0.1008,0.068,0.0515,0.0174,0.0,0.0,0.0,0.0,0.0,0.0,0.0,0.0,0.0,0.0,0.0,0.0,0.0,0.0,0.0,0.0,0.0,0.0,0.0299,0.0798,0.0,0.0,0.0,0.0,0.0,0.0,0.0,0.0,0.0,0.0,0.0,0.0,0.0,0.0,0.0,0.0,0.0,0.0,0.0,0.0,0.0,0.0,0.0,0.0,0.0,0.0,0.0,0.0,0.0,0.0,0.229,0.229,0.2161,0.1821,0.2157,0.2088,0.182,0.0,0.0,0.0,0.0,0.0,0.0,0.0,0.0,0.0,0.0,0.0,0.0,0.0,0.0,0.0,0.0,0.0,0.0,0.0,0.0,0.0,0.0,0.0,0.0,0.0,0.0,0.0,0.0,0.0,0.0,0.0,0.0,0.0,0.0,0.0,0.0,0.0,0.0,0.0,0.0,0.0,0.0,0.0,0.0,0.0,0.0,0.0,0.0,0.0,0.2601,0.245,0.2064,0.1985,0.1579,0.0757,0.0765,0.0515,0.0,0.0,0.0,0.0,0.0,0.0,0.0,0.0,0.0,0.0,0.0,0.0,0.0,0.0,0.0,0.0,0.0,0.0,0.0,0.0,0.0299,0.0798,0.0,0.0,0.0,0.0,0.0,0.0,0.0,0.0,0.0,0.0,0.0,0.0,0.0,0.2384,0.2365,0.2335,0.0,0.0,0.0,0.0,0.0,0.0,0.0,0.0,0.0,0.0,0.0,0.0,0.0,0.2151,0.1954,0.1923,0.1716,0.1458,0.18,0.1586,0.1021,0.0936,0.0,0.0,0.0,0.0,0.0,0.0,0.0,0.0,0.0,0.0,0.0,0.0,0.0,0.0,0.0,0.0,0.0,0.0,0.0,0.0,0.0,0.0,0.0,0.0,0.0,0.0,0.0,0.0,0.0,0.0,0.0,0.0,0.0,0.0,0.0,0.0,0.0,0.0,0.0,0.0,0.0,0.0,0.0,0.0,0.0,0.0,0.0,0.0,0.0,0.2141,0.1985,0.1499,0.1009,0.068,0.0427,0.0173,0.0,0.0,0.0,0.0,0.0,0.0,0.0,0.0,0.0,0.0,0.0,0.0,0.0,0.0,0.0,0.0,0.0,0.0,0.0,0.0,0.0099,0.0301,0.0,0.0,0.0,0.0,0.0,0.0,0.0,0.0,0.0,0.0,0.0,0.0,0.0,0.0,0.2365,0.2335,0.0,0.0,0.0,0.0,0.0,0.0,0.0,0.0,0.0,0.0,0.0,0.0,0.0,0.0,0.0,0.0,0.1435,0.1021,0.1229,0.1086,0.0,0.0,0.0,0.0366,0.0,0.0,0.0396,0.0,0.0,0.0,0.0,0.0,0.0,0.0,0.0,0.0,0.0,0.0,0.0,0.0,0.0,0.0,0.0,0.0,0.0,0.0,0.0,0.0,0.0,0.0,0.0,0.0,0.0,0.0,0.0,0.0,0.0,0.0,0.0,0.0,0.0,0.0,0.0,0.0,0.0,0.0,0.0,0.0,0.0,0.0,0.0,0.0,0.158,0.1006,0.0593,0.043,0.0173,0.0,0.0,0.0,0.0,0.0,0.0,0.0,0.0,0.0,0.0,0.0,0.0,0.0,0.0,0.0,0.0,0.0,0.0,0.0,0.0,0.0,0.0,0.0,0.0,0.0,0.0,0.0,0.0,0.0,0.0,0.0,0.0,0.0,0.0,0.0,0.0,0.0,0.0,0.2337,0.0,0.0,0.0,0.0,0.0,0.0,0.0,0.0,0.0,0.0,0.0,0.0,0.0,0.0,0.0,0.0,0.1385,0.0,0.0584,0.0584,0.0584,0.0,0.0365,0.0,0.0,0.0,0.0,0.0,0.0,0.0,0.0,0.0,0.0,0.0,0.0,0.0,0.0,0.0,0.0,0.0,0.0,0.0,0.0,0.0,0.0,0.0,0.0,0.0,0.0,0.0,0.0,0.0,0.0,0.0,0.0,0.0,0.0,0.0,0.0,0.0,0.0,0.0,0.0,0.0,0.0,0.0,0.0,0.0,0.0,0.0,0.1325,0.1082,0.0758,0.0674,0.0511,0.0,0.0,0.0,0.0,0.0,0.0,0.0,0.0,0.0,0.0,0.0,0.0,0.0,0.0,0.0,0.0,0.0,0.0,0.0,0.0,0.0,0.0,0.0,0.0,0.0,0.0,0.0,0.0,0.0,0.0,0.0,0.0,0.0,0.0,0.0,0.0,0.0,0.2382,0.2378,0.2375,0.2367,0.0,0.0,0.0,0.0,0.0,0.0,0.0,0.0,0.0,0.0,0.0,0.0,0.0,0.0,0.0,0.0,0.0,0.0,0.0584,0.0438,0.0146,0.0146,0.0,0.0,0.0,0.0,0.0,0.0,0.0,0.0,0.0,0.0,0.0,0.0,0.0,0.0,0.0,0.0,0.0,0.0,0.0,0.0,0.0,0.0,0.0,0.0,0.0,0.0,0.0,0.0,0.0,0.0,0.0,0.0,0.0,0.0,0.0,0.0,0.0,0.0,0.0,0.0,0.0,0.0,0.0,0.0,0.0,0.0,0.0,0.0,0.1006,0.0842,0.0681,0.0346,0.0175,0.0,0.0,0.0,0.0,0.0,0.0,0.0,0.0,0.0,0.0,0.0,0.0,0.0,0.0,0.0,0.0,0.0,0.0,0.0,0.0,0.0,0.0,0.0,0.0,0.0,0.0,0.0,0.0,0.0,0.0,0.0,0.0,0.0,0.0,0.0,0.0,0.0,0.2401,0.2397,0.2393,0.0,0.0,0.0,0.0,0.0,0.0,0.0,0.0,0.0,0.0,0.0,0.0,0.0,0.0,0.0,0.0,0.0,0.0,0.0,0.0,0.0,0.0,0.0,0.0,0.0,0.0,0.0,0.0,0.0,0.0,0.0,0.0,0.0,0.0,0.0,0.0,0.0,0.0,0.0,0.0,0.0,0.0,0.0,0.0,0.0,0.0,0.0,0.0,0.0,0.0,0.0,0.0,0.0,0.0,0.0,0.0,0.0,0.0,0.0,0.0,0.0,0.0,0.0,0.0,0.0,0.0,0.0,0.0,0.1094,0.0757,0.0757,0.0505,0.0423,0.0428,0.0175,0.0,0.0,0.0,0.0,0.0,0.0,0.0,0.0,0.0,0.0,0.0,0.0,0.0,0.0,0.0,0.0,0.0,0.0,0.0,0.0,0.0,0.0,0.0,0.0,0.0,0.0,0.0,0.0,0.0,0.0,0.0,0.0,0.0,0.0,0.0,0.0,0.0,0.0,0.2436,0.2431,0.2417,0.0,0.0,0.0,0.0,0.0,0.0,0.0,0.0,0.0,0.0,0.0,0.0,0.0,0.0,0.0,0.0,0.0,0.0,0.0,0.0,0.0,0.0,0.0,0.0,0.0074,0.0079,0.008,0.0,0.0,0.0,0.0,0.0,0.0,0.0,0.0,0.0,0.0,0.0,0.0,0.0,0.0,0.0,0.0,0.0,0.0,0.0,0.0,0.0,0.0,0.0,0.0,0.0,0.0,0.0,0.0,0.0,0.0,0.0,0.0,0.0,0.0,0.0,0.0,0.0,0.0,0.0,0.0,0.1262,0.0505,0.0,0.0,0.0,0.0,0.0,0.0,0.0,0.0,0.0,0.0,0.0,0.0,0.0,0.0,0.0,0.0,0.0,0.0,0.0,0.0,0.0,0.0,0.0,0.0,0.0,0.0,0.0,0.0,0.0,0.0,0.0,0.0,0.0,0.0,0.0,0.0,0.0,0.0,0.0,0.0,0.0,0.0,0.0,0.0,0.2495,0.2474,0.0,0.0,0.0,0.0,0.0,0.0,0.0,0.0,0.0,0.0,0.0,0.0,0.0,0.0,0.0,0.0,0.0,0.0,0.0,0.0,0.0,0.0,0.0,0.0,0.0,0.0465,0.0472,0.0,0.0,0.0,0.0,0.0,0.0,0.0,0.0,0.0,0.0,0.0,0.0,0.0,0.0,0.0,0.0,0.0,0.0,0.0,0.0,0.0,0.0,0.0,0.0,0.0,0.0,0.0,0.0,0.0,0.0,0.0,0.0,0.0,0.0,0.0,0.0,0.0,0.0,0.0,0.0,0.0,0.0842,0.0337,0.0,0.0,0.0,0.0,0.0,0.0,0.0,0.0,0.0,0.0,0.0,0.0,0.0,0.0,0.0,0.0,0.0,0.0,0.0,0.0,0.0,0.0,0.0,0.0,0.0,0.0,0.0,0.0,0.0,0.0,0.0,0.0,0.0,0.0,0.0,0.0,0.0,0.0,0.0,0.0,0.0,0.0,0.0,0.0,0.2514,0.2487,0.0,0.0,0.0,0.0,0.0,0.0,0.0,0.0,0.0,0.0,0.0,0.0,0.0,0.0,0.0,0.0,0.0,0.0,0.0,0.0,0.0,0.0,0.0,0.0,0.0807,0.0603,0.0396,0.0,0.0,0.0,0.0,0.0,0.0,0.0,0.0,0.0,0.0,0.0,0.0,0.0,0.0,0.0,0.0,0.0,0.0,0.0,0.0,0.0,0.0,0.0,0.0,0.0,0.0,0.0,0.0,0.0,0.0,0.0,0.0,0.0,0.0,0.0,0.0,0.0,0.0,0.0,0.0,0.0,0.0674,0.0253,0.0,0.0,0.0,0.0,0.0,0.0,0.0,0.0,0.0,0.0,0.0,0.0,0.0,0.0,0.0,0.0,0.0,0.0,0.0,0.0,0.0,0.0,0.0,0.0,0.0,0.0,0.0,0.0,0.0,0.0,0.0,0.0,0.0,0.0,0.0,0.0,0.0,0.0,0.0,0.0,0.0,0.0,0.0,0.0,0.0,0.2441,0.0,0.0,0.0,0.0,0.0,0.0,0.0,0.0,0.0,0.2343,0.0,0.0,0.0,0.0,0.0,0.0,0.0,0.0,0.0,0.0,0.0,0.0,0.0,0.0,0.0,0.0596,0.0,0.0,0.0,0.0,0.0,0.0,0.0,0.0,0.0,0.0,0.0,0.0,0.0,0.0,0.0,0.0,0.0,0.0,0.0,0.0,0.0,0.0,0.0,0.0,0.0,0.0,0.0,0.0,0.0,0.0,0.0,0.0,0.0,0.0,0.0,0.0,0.0,0.0,0.0,0.0,0.0,0.0,0.0586,0.0251,0.0,0.0,0.0,0.0,0.0,0.0,0.0,0.0,0.0,0.0,0.0,0.0,0.0,0.0,0.0,0.0,0.0,0.0,0.0,0.0,0.0,0.0,0.0,0.0,0.0,0.0,0.0,0.0,0.0,0.0,0.0,0.0,0.2549,0.2557,0.0,0.0,0.0,0.0,0.0,0.0,0.0,0.0,0.0,0.0,0.0,0.2307,0.2082,0.0,0.0,0.0,0.1796,0.0,0.0,0.0,0.0,0.0,0.2491,0.0,0.0,0.0,0.0,0.0,0.0,0.0,0.0,0.0,0.157,0.0,0.0,0.0,0.0625,0.0,0.0166,0.0,0.0,0.0,0.0,0.0,0.0,0.0,0.0,0.0,0.0,0.0,0.0,0.0,0.0,0.0,0.0,0.0,0.0,0.0,0.0,0.0,0.0,0.0,0.0,0.0,0.0,0.0,0.0,0.0,0.0,0.0,0.0,0.0,0.0,0.0,0.0,0.0,0.0,0.0,0.0,0.0,0.0,0.0,0.0,0.0,0.0,0.0,0.0,0.0,0.0,0.0,0.0,0.0,0.0,0.0,0.0,0.0,0.0,0.0,0.0,0.0,0.0,0.0,0.0,0.0,0.0,0.0,0.0,0.0,0.0,0.0,0.0,0.0,0.0,0.0,0.253,0.2533,0.0,0.0,0.0,0.0,0.0,0.0,0.0,0.0,0.0,0.0,0.2602,0.2417,0.218,0.1978,0.1705,0.1592,0.179,0.1791,0.0,0.0,0.0,0.0,0.0,0.0,0.0,0.0,0.226,0.0,0.0,0.0,0.0,0.0,0.1449,0.0,0.0933,0.0,0.0384,0.0,0.0,0.0,0.0,0.0,0.0,0.0,0.0,0.0,0.0,0.0,0.0,0.0,0.0,0.0,0.0,0.0,0.0,0.0,0.0,0.0,0.0,0.0,0.0,0.0,0.0,0.0,0.0,0.0,0.0,0.0,0.0,0.0,0.0,0.0,0.0,0.0,0.0,0.0,0.0,0.0,0.0,0.0,0.0,0.0,0.0,0.0,0.0,0.0,0.0,0.0,0.0,0.0,0.0,0.0,0.0,0.0,0.0,0.0,0.0,0.0,0.0,0.0,0.0,0.0,0.0,0.0,0.0,0.0,0.0,0.0,0.0,0.0,0.0,0.0,0.0,0.0,0.2514,0.0,0.0,0.0,0.0,0.0,0.0,0.0,0.0,0.0,0.0,0.0,0.2627,0.2347,0.2108,0.1829,0.1481,0.1377,0.1432,0.1588,0.1728,0.0,0.2248,0.2309,0.2192,0.0,0.0,0.0,0.0,0.0,0.0,0.0,0.0,0.0,0.0,0.1174,0.0961,0.0,0.0,0.0391,0.0079,0.0,0.0,0.0,0.0,0.0,0.0,0.0,0.0,0.0,0.0,0.0,0.0,0.0,0.0,0.0,0.0,0.0,0.0,0.0,0.0,0.0,0.0,0.0,0.0,0.0,0.0,0.0,0.0,0.0,0.0,0.0,0.0,0.0,0.0,0.0,0.0,0.0,0.0,0.0,0.0,0.0,0.0,0.0,0.0,0.0,0.0,0.0,0.0,0.0,0.0,0.0,0.0,0.0,0.0,0.0,0.0,0.0,0.0,0.0,0.0,0.0,0.0,0.0,0.0,0.0,0.0,0.0,0.0,0.0,0.0,0.0,0.0,0.0,0.0,0.0,0.2514,0.2514,0.0,0.0,0.0,0.0,0.0,0.0,0.0,0.0,0.2653,0.269,0.269,0.1901,0.1408,0.1411,0.0622,0.0265,0.0598,0.0993,0.1242,0.1296,0.1945,0.2202,0.1894,0.0,0.0,0.0,0.0,0.0,0.0,0.0,0.0,0.0,0.0,0.1003,0.0619,0.0158,0.0,0.0,0.0,0.0,0.0,0.0,0.0,0.0,0.0,0.0,0.0,0.0,0.0,0.0,0.0,0.0,0.0,0.0,0.0,0.0,0.0,0.0,0.0,0.0,0.0,0.0,0.0,0.0,0.0,0.0,0.0,0.0,0.0,0.0,0.0,0.0,0.0,0.0,0.0,0.0,0.0,0.0,0.0,0.0,0.0,0.0,0.0,0.0,0.0,0.0,0.0,0.0,0.0,0.0,0.0,0.0,0.0,0.0,0.0,0.0,0.0,0.0,0.0,0.0,0.0,0.0,0.0,0.0,0.0,0.0,0.0,0.0,0.0,0.0,0.0,0.0,0.0,0.0,0.0,0.0,0.0,0.0,0.0,0.0,0.0,0.2574,0.2596,0.2654,0.2412,0.2181,0.2317,0.1715,0.1209,0.097,0.0621,0.0441,0.0606,0.076,0.0919,0.1263,0.1473,0.166,0.1817,0.195,0.0,0.0,0.0,0.0,0.0,0.0,0.0,0.0,0.0,0.1095,0.0,0.0,0.0,0.0,0.0,0.0,0.0,0.0,0.0,0.0,0.0,0.0,0.0,0.0,0.0,0.0,0.0,0.0,0.0,0.0,0.0,0.0,0.0,0.0,0.0,0.0,0.0,0.0,0.0,0.0,0.0,0.0,0.0,0.0,0.0,0.0,0.0,0.0,0.0,0.0,0.0,0.0,0.0,0.0,0.0,0.0,0.0,0.0,0.0,0.0,0.0,0.0,0.0,0.0,0.0,0.0,0.0,0.0,0.0,0.0,0.0,0.0,0.0,0.0,0.0,0.0,0.0,0.0,0.0,0.0,0.0,0.0,0.0,0.0,0.0,0.0,0.0,0.0,0.0,0.0105,0.2517,0.0,0.0,0.0,0.0,0.0,0.0,0.0,0.26,0.2668,0.2259,0.1947,0.2092,0.1473,0.0957,0.0713,0.0538,0.0356,0.0348,0.0517,0.0682,0.0759,0.1041,0.1259,0.137,0.1544,0.0,0.0,0.0,0.2163,0.0,0.0,0.0,0.0,0.0,0.0,0.114,0.0,0.0,0.0,0.0,0.0,0.0,0.0,0.0,0.0,0.0,0.0,0.0,0.0,0.0,0.0,0.0,0.0,0.0,0.0,0.0,0.0,0.0,0.0,0.0,-0.0864,-0.1015,0.0,-0.1001,0.0,-0.1056,0.0,0.0,0.0,0.0,0.0,0.0,0.0,0.0,0.0,0.0,0.0,0.0,0.0,0.0,0.0,0.0,0.0,0.0,0.0,0.0,0.0,0.0,0.0,0.0,0.0,0.0,0.0,0.0,0.0,0.0,0.0,0.0,0.0,0.0,0.0,0.0,0.0,0.0,0.0,0.0,0.0,0.0,0.0,0.0,0.0,0.0,0.0,0.0,0.0106,0.0,0.0,0.0,0.0,0.2515,0.0,0.2518,0.2566,0.2615,0.2649,0.2282,0.1987,0.2032,0.1252,0.0722,0.0638,0.0276,0.0,0.0,0.0352,0.044,0.0,0.0767,0.0935,0.0609,0.0988,0.1352,0.0,0.0,0.0,0.0,0.0,0.0,0.0,0.1432,0.0,0.1139,0.0326,0.0,0.0,0.0,0.0,0.0,0.0,0.0,0.0,0.0,0.0,0.0,0.0,0.0,0.0,0.0,0.0,0.0,0.0,0.0,0.0,0.0,0.0,-0.0424,-0.2269,-0.2802,0.0,0.0,0.0,-0.3044,0.0,0.0,0.0,0.0,0.0,0.0,0.0,0.0,0.0,0.0,0.0,0.0,0.0,0.0,0.0,0.0,0.0,0.0,0.0,0.0,0.0,0.0,0.0,0.0,0.0,0.0,0.0,0.0,0.0,0.0,0.0,0.0,0.0,0.0,0.0,0.0,0.0,0.0,0.0,0.0,0.0,0.0,0.0,0.0,0.0,0.0,0.0,0.0,0.0106,0.2515,0.2533,0.2548,0.0,0.2529,0.2529,0.2572,0.2592,0.2637,0.2735,0.2347,0.195,0.1643,0.1101,0.0644,0.0184,0.0093,0.0,0.0,0.0,0.0,0.0,0.0174,0.0427,0.0616,0.0662,0.1113,0.1807,0.0,0.0,0.1895,0.0,0.0,0.0,0.0,0.0,0.0733,0.0246,0.0,0.0,0.0,0.0,0.0,0.0,0.0,0.0,0.0,0.0,0.0,0.0,0.0,0.0,0.0,0.0,0.0,0.0,0.0,0.0,0.0,0.0,-0.0088,-0.0594,-0.1837,-0.2873,0.0,0.0,0.0,0.0,0.0,0.0,0.0,0.0,0.0,0.0,0.0,0.0,0.0,0.0,0.0,0.0,0.0,0.0,0.0,0.0,0.0,0.0,0.0,0.0,0.0,0.0,0.0,0.0,0.0,0.0,0.0,0.0,0.0,0.0,0.0,0.0,0.0,0.0,0.0,0.0,0.0,0.0,0.0,0.0,0.0,0.0,0.0,0.0,0.0,0.0,0.0,0.0106,0.2537,0.0,0.0,0.2596,0.2594,0.2604,0.2637,0.263,0.2656,0.2751,0.2364,0.0,0.1824,0.1203,0.0654,0.0375,0.0094,0.0,0.0,0.0,0.0,0.0,0.0,0.009,0.0363,0.0348,0.0,0.1306,0.0,0.0,0.0,0.0,0.0,0.0,0.0,0.06,0.0,0.0165,0.0,0.0,0.0,0.0,0.0,0.0,0.0,0.0,0.0,0.0,0.0,0.0,0.0,0.0,0.0,0.0,0.0,0.0,0.0,0.0,0.0,0.0,-0.0357,-0.2104,-0.3301,-0.4364,-0.5185,-0.6198,-0.6996,0.0,-0.6287,-0.5904,0.0,0.0,0.0,0.0,0.0,0.0,0.0,0.0,0.0,0.0,0.0,0.0,0.0,0.0,0.0,0.0,0.0,0.0,0.0,0.0,0.0,0.0,0.0,0.0,0.0,0.0,0.0,0.0,0.0,0.0,0.0,0.0,0.0,0.0,0.0,0.0,0.0,0.0,0.0,0.0,0.0,0.0,0.0,0.0,0.0,0.0105,0.0,0.0,0.0,0.0,0.0,0.2707,0.2716,0.2694,0.2697,0.2754,0.0,0.2237,0.217,0.1391,0.0851,0.0762,0.0286,0.0,0.0,0.0,0.0,0.0,0.0,0.0,0.0,0.0,0.0179,0.0,0.0,0.0,0.0,0.0,0.0,0.0,0.0,0.0,0.0,0.0167,0.0,0.0,0.0,0.0,0.0,0.0,0.0,0.0,0.0,0.0,0.0,0.0,0.0,0.0,0.0,0.0,0.0,0.0,0.0,0.0,0.0,0.0,-0.0899,-0.4395,-0.5554,-0.6204,-0.8195,-0.88,-0.8973,-0.8973,-0.7604,-0.7436,-1.057,0.0,0.0,0.0,0.0,0.0,0.0,0.0,0.0,0.0,0.0,0.0,0.0,0.0,0.0,0.0,0.0,0.0,0.0,0.0,0.0,0.0,0.0,0.0,0.0,0.0,0.0,0.0,0.0,0.0,0.0,0.0,0.0,0.0,0.0,0.0,0.0,0.0,0.0,0.0,0.0,0.0,0.0,0.0,0.0,0.0105,0.0,0.0,0.0,0.0,0.0,0.2784,0.2834,0.2838,0.2846,0.2881,0.2846,0.2707,0.2263,0.1707,0.1237,0.0858,0.0286,0.0,0.0,0.0,0.0,0.0,0.0,0.0,0.0,0.0,0.0179,0.0,0.0,0.0,0.0,0.0,0.0,0.0,0.0,0.0,0.0081,0.0,0.0,0.0,0.0,0.0,0.0,0.0,0.0,0.0,0.0,0.0,0.0,0.0,0.0,0.0,0.0,0.0,0.0,0.0,0.0,0.0,0.0,0.0,-0.0545,-0.2814,-0.4594,-0.6252,-0.8152,-0.9823,-1.0972,-1.0972,-1.075,-1.0165,-0.9243,0.0,0.0,0.0,0.0,0.0,0.0,0.0,0.0,0.0,0.0,0.0,0.0,0.0,0.0,0.0,0.0,0.0,0.0,0.0,0.0,0.0,0.0,0.0,0.0,0.0,0.0,0.0,0.0,0.0,0.0,0.0,0.0,0.0,0.0,0.0,0.0,0.0,0.0,0.0,0.0,0.0,0.0,0.0,0.0,0.0103,0.0,0.0,0.0,0.0,0.0,0.0,0.0,0.2946,0.2954,0.292,0.2942,0.2872,0.2607,0.1984,0.143,0.1144,0.0477,0.0,0.0,0.0,0.0,0.0,0.0,0.0,0.0,0.0,0.0091,0.0257,0.0,0.0,0.0,0.0,0.0,0.0,0.0,0.0,0.0,0.0,0.0,0.0,0.0,0.0,0.0,0.0,0.0,0.0,0.0,0.0,0.0,0.0,0.0,0.0,0.0,0.0,0.0,0.0,0.0,0.0,0.0,0.0,-0.046,-0.2386,-0.3564,-0.4996,-0.7945,-0.9289,-1.0267,-1.1287,-1.1543,-1.0937,-0.9047,-0.7761,-0.6728,-0.5814,0.0,0.0,0.0,0.0,0.0,0.0,0.0,0.0,0.0,0.0,0.0,0.0,0.0,0.0,0.0,0.0,0.0,0.0,0.0,0.0,0.0,0.0,0.0,0.0,0.0,0.0,0.0,0.0,0.0,0.0,0.0,0.0,0.0,0.0,0.0,0.0,0.0,0.0,0.0,0.0,0.0,0.0102,0.0,0.2692,0.0,0.0,0.2833,0.2881,0.295,0.3013,0.3026,0.2954,0.2945,0.2945,0.2945,0.2069,0.1526,0.1526,0.0572,0.0,0.0,0.0,0.0,0.0,0.0,0.0,0.0,0.0,0.0,0.0,0.0,0.0,0.0,0.0,0.0,0.0,0.0,0.0,0.0,0.0,0.0,0.0,0.0,0.0,0.0,0.0,0.0,0.0,0.0,0.0,0.0,0.0,0.0,0.0,0.0,0.0,0.0,0.0,0.0,0.0,0.0,0.0,-0.0464,-0.2412,-0.287,-0.3779,-0.7215,-0.8296,-0.9096,-1.0645,-1.0899,-1.0372,-0.8383,-0.7793,0.0,0.0,0.0,0.0,0.0,0.0,0.0,0.0,0.0,0.0,0.0,0.0,0.0,0.0,0.0,0.0,0.0,0.0,0.0,0.0,0.0,0.0,0.0,0.0,0.0,0.0,0.0,0.0,0.0,0.0,0.0,0.0,0.0,0.0,0.0,0.0,0.0,0.0,0.0,0.0,0.0,0.0,0.0,0.0102,0.0,0.0,0.0,0.0,0.0,0.2951,0.296,0.3013,0.305,0.304,0.3039,0.3039,0.3039,0.2094,0.1526,0.1526,0.0572,0.0,0.0,0.0,0.0,0.0,0.0,0.0,0.0,0.0,0.0,0.0,0.0,0.0,0.0,0.0,0.0,0.0,0.0,0.0,0.0,0.0,0.0,0.0,0.0,0.0,0.0,0.0,0.0,0.0,0.0,0.0,0.0,0.0,0.0,0.0,0.0,0.0,0.0,0.0,0.0,0.0,0.0,0.0,-0.0469,-0.2437,-0.2884,-0.3419,-0.5531,-0.7466,-0.8844,-0.9019,-0.9019,-0.83,-0.593,-0.5749,-0.6281,0.0,0.0,0.0,0.0,0.0,-0.1553,-0.0178,0.0,0.0,0.0,0.0,0.0,0.0,0.0,0.0,0.0,0.0,0.0,0.0,0.0,0.0,0.0,0.0,0.0,0.0,0.0,0.0,0.0,0.0,0.0,0.0,0.0,0.0,0.0,0.0,0.0,0.0,0.0,0.0,0.0,0.0,0.0,0.0101,0.0,0.0,0.0,0.0,0.0,0.0,0.0,0.3036,0.3148,0.3148,0.3148,0.3148,0.3148,0.2098,0.1526,0.1526,0.0572,0.0,0.0,0.0,0.0,0.0,0.0,0.0,0.0,0.0,0.0,0.0,0.0,0.0,0.0,0.0,0.0,0.0,0.0,0.0,0.0,0.0,0.0,0.0,0.0,0.0,0.0,0.0,0.0,0.0,0.0,0.0,0.0,0.0,0.0,0.0,0.0,0.0,0.0,0.0,0.0,0.0,0.0,0.0,-0.019,-0.0948,-0.1134,-0.1693,-0.3548,-0.559,-0.7346,-0.8592,-0.8768,-0.8106,-0.6047,-0.555,-0.5798,-0.6612,0.0,0.0,0.0,0.0,0.0,0.0,0.0,0.0,0.0,0.0,0.0,0.0,0.0,0.0,0.0,0.0,0.0,0.0,0.0,0.0,0.0,0.0,0.0,0.0,0.0,0.0,0.0,0.0,0.0,0.0,0.0,0.0,0.0,0.0,0.0,0.0,0.0,0.0,0.0,0.0,0.0,0.0101,0.2898,0.0,0.2904,0.0,0.2971,0.2977,0.3043,0.3148,0.3148,0.3148,0.3148,0.3148,0.3148,0.2098,0.1526,0.1526,0.0572,0.0,0.0,0.0,0.0,0.0,0.0,0.0,0.0,0.0,0.0,0.0,0.0,0.0,0.0,0.0,0.0,0.0,0.0,0.0,0.0,0.0,0.0,0.0,0.0,0.0,0.0,0.0,0.0,0.0,0.0,0.0,0.0,0.0,0.0,0.0,0.0,0.0,0.0,0.0,0.0,0.0,0.0,0.0,0.0,0.0,0.0,-0.0476,-0.2455,-0.452,-0.648,-0.8486,-0.8377,-0.737,-0.5453,-0.4348,-0.4039,-0.4865,0.0,0.0,0.0,-0.1223,0.0,0.0,0.0,0.0,0.0,0.0,0.0,0.0,0.0,0.0,0.0,0.0,0.0,0.0,0.0,0.0,0.0,0.0,0.0,0.0,0.0,0.0,0.0,0.0,0.0,0.0,0.0,0.0,0.0,0.0,0.0,0.0,0.0,0.0,0.0,0.0,0.0,0.0101,0.2954,0.2984,0.3014,0.3046,0.3051,0.3051,0.3148,0.3148,0.3148,0.3148,0.3148,0.3148,0.3148,0.2098,0.1526,0.1526,0.0572,0.0,0.0,0.0,0.0,0.0,0.0,0.0,0.0,0.0,0.0,0.0,0.0,0.0,0.0,0.0,0.0,0.0,0.0,0.0,0.0,0.0,0.0,0.0,0.0,0.0,0.0,0.0,0.0,0.0,0.0,0.0,0.0,0.0,0.0,0.0,0.0,0.0,0.0,0.0,0.0,0.0,0.0,0.0,0.0,0.0,0.0,-0.0572,-0.257,-0.4563,-0.6651,-0.8644,-0.7504,-0.5513,-0.3424,-0.1429,-0.0567,-0.2288,0.0,0.0,0.0,-0.1094,0.0,0.0,0.0,0.0,0.0,0.0,0.0,0.0,0.0,0.0,0.0,0.0,0.0,0.0,0.0,0.0,0.0,0.0,0.0,0.0,0.0,0.0,0.0,0.0,0.0,0.0,0.0,0.0,0.0,0.0,0.0,0.0,0.0,0.0,0.0,0.0,0.0,0.0,0.3084,0.3093,0.3103,0.3112,0.3097,0.3084,0.3084,0.3066,0.3148,0.3148,0.3148,0.3148,0.3148,0.2098,0.1526,0.0,0.0572,0.0,0.0,0.0,0.0,0.0,0.0,0.0,0.0,0.0,0.0,0.0,0.0,0.0,0.0,0.0,0.0,0.0,0.0,0.0,0.0,0.0,0.0,0.0,0.0,0.0,0.0,0.0,0.0,0.0,0.0,0.0,0.0,0.0,0.0,0.0,0.0,0.0,0.0,0.0,0.0,0.0,0.0,0.0,0.0,0.0,-0.1049,-0.219,-0.2855,-0.5705,-0.8364,-0.8932,-0.7507,-0.542,-0.3424,-0.1334,-0.019,-0.0753,-0.0379,0.0,-0.076,0.0,0.0,0.0,0.0,0.0,0.0,0.0,0.0,0.0,0.0,0.0,0.0,0.0,0.0,0.0,0.0,0.0,0.0,0.0,0.0,0.0,0.0,0.0,0.0,0.0,0.0,0.0,0.0,0.0,0.0,0.0,0.0,0.0,0.0,0.0,0.0,0.0,0.0,0.0,0.3142,0.3152,0.3156,0.3145,0.3127,0.3115,0.3115,0.3099,0.3082,0.307,0.3069,0.3065,0.2863,0.2002,0.0,0.1526,0.0572,0.0,0.0,0.0,0.0,0.0,0.0,0.0,0.0,0.0,0.0,0.0,0.0,0.0,0.0,0.0,0.0,0.0,0.0,0.0,0.0,0.0,0.0,0.0,0.0,0.0,0.0,0.0,0.0,0.0,0.0,0.0,0.0,0.0,0.0,0.0,0.0,0.0,0.0,0.0,0.0,0.0,0.0,0.0,0.0,0.0,-0.0954,-0.2285,-0.3805,-0.7318,-1.0266,-1.0266,-0.8076,-0.5705,-0.4375,-0.1905,0.0,0.0,0.0,0.0,0.0,0.0,0.0,0.0,0.0,0.0,0.0,0.0,0.0,0.0,0.0,0.0,0.0,0.0,0.0,0.0,0.0,0.0,0.0,0.0,0.0,0.0,0.0,0.0,0.0,0.0,0.0,0.0,0.0,0.0,0.0,0.0,0.0,0.0,0.0,0.0,0.0,0.0,0.0,0.0,0.3149,0.3172,0.3182,0.3155,0.3148,0.3146,0.3146,0.3144,0.3133,0.3104,0.31,0.2896,0.2391,0.1814,0.1528,0.1433,0.0,0.0,0.0,0.0,0.0,0.0,0.0,0.0,0.0,0.0,0.0,0.0,0.0,0.0,0.0,0.0,0.0,0.0,0.0,0.0,0.0,0.0,0.0,0.0,0.0,0.0,0.0,0.0,0.0,0.0,0.0,0.0,0.0,0.0,0.0,0.0,0.0,0.0,0.0,0.0,0.0,0.0,0.0,0.0,0.0,0.0,-0.0191,-0.1525,-0.561,-0.9505,-1.2172,-1.2183,-0.9039,-0.628,-0.6381,-0.2958,-0.0192,-0.0193,-0.0097,0.0,0.0,0.0,0.0,0.0,0.0,0.0,0.0,0.0,0.0,0.0,0.0,0.0,0.0,0.0,0.0,0.0,0.0,0.0,0.0,0.0,0.0,0.0,0.0,0.0,0.0,0.0,0.0,0.0,0.0,0.0,0.0,0.0,0.0,0.0,0.0,0.0,0.0,0.0,0.0,0.0,0.0,0.0,0.3217,0.321,0.3191,0.3178,0.3178,0.3157,0.3141,0.3133,0.3131,0.2933,0.2342,0.1841,0.1451,0.0974,0.0385,0.0,0.0,0.0,0.0,0.0,0.0,0.0,0.0,0.0,0.0,0.0,0.0,0.0,0.0,0.0,0.0,0.0,0.0,0.0,0.0,0.0,0.0,0.0,0.0,0.0,0.0,0.0,0.0,0.0,0.0,0.0,0.0,0.0,0.0,0.0,0.0,0.0,0.0,0.0,0.0,0.0,0.0,0.0,0.0,0.0,-0.2393,-0.5705,-0.9789,-1.1505,-1.2199,-1.2292,-1.0285,-0.8572,-0.8641,-0.5252,-0.2436,-0.2441,-0.1076,0.0,0.0,0.0,0.0,0.0,0.0,0.0,0.0,0.0,0.0,0.0,0.0,0.0,0.0,0.0,0.0,0.0,0.0,0.0,0.0,0.0,0.0,0.0,0.0,0.0,0.0,0.0,0.0,0.0,0.0,0.0,0.0,0.0,0.0,0.0,0.0,0.0,0.0,0.0,0.0,0.0,0.3228,0.323,0.323,0.323,0.3217,0.3108,0.2908,0.2795,0.2683,0.2472,0.2372,0.2171,0.167,0.1368,0.0976,0.0491,0.0193,0.0,0.0,0.0,0.0,0.0,0.0,0.0,0.0,0.0,0.0,0.0,0.0,0.0,0.0,0.0,0.0,0.0,0.0,0.0,0.0,0.0,0.0,0.0,0.0,0.0,0.0,0.0,0.0,0.0,0.0,0.0,0.0,0.0,0.0,0.0,0.0,0.0,0.0,0.0,0.0,0.0,0.0,0.0,-0.0196,-0.1169,-0.4548,-0.8188,-1.05,-1.166,-1.2357,-1.2422,-1.0781,-0.9435,-0.9485,-0.6069,-0.3239,-0.3155,-0.1382,0.0,0.0,0.0,0.0,0.0,0.0,0.0,0.0,0.0,0.0,0.0,0.0,0.0,0.0,0.0,0.0,0.0,0.0,0.0,0.0,0.0,0.0,0.0,0.0,0.0,0.0,0.0,0.0,0.0,0.0,0.0,0.0,0.0,0.0,0.0,0.0,0.0,0.0,0.0,0.0,0.0,0.3225,0.323,0.323,0.323,0.323,0.3029,0.2525,0.2424,0.2216,0.1699,0.1597,0.1393,0.0888,0.0788,0.0591,0.0,0.0,0.0,0.0,0.0,0.0,0.0,0.0,0.0,0.0,0.0,0.0,0.0,0.0,0.0,0.0,0.0,0.0,0.0,0.0,0.0,0.0,0.0,0.0,0.0,0.0,0.0,0.0,0.0,0.0,0.0,0.0,0.0,0.0,0.0,0.0,0.0,0.0,0.0,0.0,0.0,0.0,0.0,0.0,-0.0197,-0.0983,-0.3142,-0.6566,-0.959,-0.9887,-1.126,-1.2542,-1.2558,-1.1182,-1.0011,-1.0024,-0.6782,-0.414,-0.4161,-0.2089,-0.05,-0.0402,0.0,0.0,0.0,0.0,0.0,0.0,0.0,0.0,0.0,0.0,0.0,0.0,0.0,0.0,0.0,0.0,0.0,0.0,0.0,0.0,0.0,0.0,0.0,0.0,0.0,0.0,0.0,0.0,0.0,0.0,0.0,0.0,0.0,0.0,0.0,0.0,0.0,0.0,0.0,0.323,0.323,0.323,0.323,0.323,0.3029,0.2525,0.2424,0.2221,0.1714,0.1613,0.141,0.0905,0.0799,0.0598,0.0,0.0,0.0,0.0,0.0,0.0,0.0,0.0,0.0,0.0,0.0,0.0,0.0,0.0,0.0,0.0,0.0,0.0,0.0,0.0,0.0,0.0,0.0,0.0,0.0,0.0,0.0,0.0,0.0,0.0,0.0,0.0,0.0,0.0,0.0,0.0,0.0,0.0,0.0,0.0,0.0,0.0,0.0,0.0,-0.1299,-0.3174,-0.5252,-0.7682,-0.9984,-1.165,-1.2239,-1.2564,-1.2656,-1.2383,-1.2212,-1.2311,-1.0323,-0.8577,-0.8358,-0.5173,-0.2603,-0.2467,0.0,0.0,0.0,0.0,0.0,0.0,0.0,0.0,0.0,0.0,0.0,0.0,0.0,0.0,0.0,0.0,0.0,0.0,0.0,0.0,0.0,0.0,0.0,0.0,0.0,0.0,0.0,0.0,0.0,0.0,0.0,0.0,0.0,0.0,0.0,0.0,0.0,0.0,0.0,0.323,0.323,0.323,0.323,0.2928,0.2625,0.202,0.1717,0.1313,0.0808,0.0707,0.0606,0.0404,0.0402,0.0302,0.0,0.0,0.0,0.0,0.0,0.0,0.0,0.0,0.0,0.0,0.0,0.0,0.0,0.0,0.0,0.0,0.0,0.0,0.0,0.0,0.0,0.0,0.0,0.0,0.0,0.0,0.0,0.0,0.0,0.0,0.0,0.0,0.0,0.0,0.0,0.0,0.0,0.0,0.0,0.0,0.0,0.0,-0.0202,-0.1413,-0.3315,-0.5402,-0.7602,-0.977,-1.153,-1.2524,-1.2727,-1.2738,-1.2792,-1.2803,-1.2819,-1.2879,-1.1173,-0.9632,-0.955,-0.6009,-0.3217,-0.3089,-0.1305,0.0,0.0,0.0,0.0,0.0,0.0,0.0,0.0,0.0,0.0,0.0,0.0,0.0,0.0,0.0,0.0,0.0,0.0,0.0,0.0,0.0,0.0,0.0,0.0,0.0,0.0,0.0,0.0,0.0,0.0,0.0,0.0,0.0,0.0,0.0,0.0,0.0,0.0,0.323,0.323,0.323,0.323,0.2727,0.2222,0.1717,0.1111,0.0606,0.0101,0.0,0.0,0.0,0.0,0.0,0.0,0.0,0.0,0.0,0.0,0.0,0.0,0.0,0.0,0.0,0.0,0.0,0.0,0.0,0.0,0.0,0.0,0.0,0.0,0.0,0.0,0.0,0.0,0.0,0.0,0.0,0.0,0.0,0.0,0.0,0.0,0.0,0.0,0.0,0.0,0.0,0.0,0.0,0.0,0.0,0.0,-0.0303,-0.111,-0.2723,-0.5137,-0.7546,-0.9256,-1.1273,-1.289,-1.289,-1.289,-1.289,-1.289,-1.289,-1.289,-1.289,-1.1573,-1.0449,-1.0405,0.0,-0.3924,-0.3907,-0.161,0.0,0.0,0.0,0.0,0.0,0.0,0.0,0.0,0.0,0.0,0.0,0.0,0.0,0.0,0.0,0.0,0.0,0.0,0.0,0.0,0.0,0.0,0.0,0.0,0.0,0.0,0.0,0.0,0.0,0.0,0.0,0.0,0.0,0.0,0.0,0.0,0.0,0.0,0.323,0.323,0.323,0.323,0.2727,0.2222,0.1717,0.1111,0.0606,0.0101,0.0,0.0,0.0,0.0,0.0,0.0,0.0,0.0,0.0,0.0,0.0,0.0,0.0,0.0,0.0,0.0,0.0,0.0,0.0,0.0,0.0,0.0,0.0,0.0,0.0,0.0,0.0,0.0,0.0,0.0,0.0,0.0,0.0,0.0,0.0,0.0,0.0,0.0,0.0,0.0,0.0,0.0,0.0,0.0,0.0,0.0,-0.1413,-0.3025,-0.3126,-0.6243,-0.9456,-0.9661,-1.1273,-1.289,-1.289,-1.289,-1.289,-1.289,-1.289,-1.289,-1.289,-1.2784,-1.2615,-1.2303,0.0,0.0,-0.5899,-0.2493,0.0,0.0,0.0,0.0,0.0,0.0,0.0,0.0,0.0,0.0,0.0,0.0,0.0,0.0,0.0,0.0,0.0,0.0,0.0,0.0,0.0,0.0,0.0,0.0,0.0,0.0,0.0,0.0,0.0,0.0,0.0,0.0,0.0,0.0,0.0,0.0,0.0,0.0,0.323,0.323,0.323,0.323,0.2524,0.1818,0.1616,0.0909,0.0202,0.0,0.0,0.0,0.0,0.0,0.0,0.0,0.0,0.0,0.0,0.0,0.0,0.0,0.0,0.0,0.0,0.0,0.0,0.0,0.0,0.0,0.0,0.0,0.0,0.0,0.0,0.0,0.0,0.0,0.0,0.0,0.0,0.0,0.0,0.0,0.0,0.0,0.0,0.0,0.0,0.0,0.0,0.0,0.0,0.0,-0.0303,-0.1614,-0.3528,-0.5436,-0.6846,-0.8453,-1.0062,-1.1373,-1.2284,-1.289,-1.289,-1.289,-1.289,-1.289,-1.289,-1.289,-1.289,-1.289,-1.2857,-1.277,0.0,-0.7928,-0.6478,-0.3812,-0.1514,-0.0202,0.0,0.0,0.0,0.0,0.0,0.0,0.0,0.0,0.0,0.0,0.0,0.0,0.0,0.0,0.0,0.0,0.0,0.0,0.0,0.0,0.0,0.0,0.0,0.0,0.0,0.0,0.0,0.0,0.0,0.0,0.0,0.0,0.0,0.0,0.0,0.0,0.323,0.323,0.313,0.2928,0.2221,0.1515,0.1414,0.0606,0.0,0.0,0.0,0.0,0.0,0.0,0.0,0.0,0.0,0.0,0.0,0.0,0.0,0.0,0.0,0.0,0.0,0.0,0.0,0.0,0.0,0.0,0.0,0.0,0.0,0.0,0.0,0.0,0.0,0.0,0.0,0.0,0.0,0.0,0.0,0.0,0.0,0.0,0.0,0.0,0.0,0.0,0.0,0.0,0.0,0.0,-0.0404,-0.2521,-0.4734,-0.6843,-0.9055,-1.0162,-1.1073,-1.2484,-1.289,-1.289,-1.289,-1.289,-1.289,-1.289,-1.289,-1.289,-1.289,-1.289,-1.289,-1.289,-1.0567,-0.8149,-0.6643,-0.3929,-0.1614,-0.0202,0.0,0.0,0.0,0.0,0.0,0.0,0.0,0.0,0.0,0.0,0.0,0.0,0.0,0.0,0.0,0.0,0.0,0.0,0.0,0.0,0.0,0.0,0.0,0.0,0.0,0.0,0.0,0.0,0.0,0.0,0.0,0.0,0.0,0.0,0.0,0.0,0.323,0.323,0.3029,0.2525,0.1919,0.1414,0.0909,0.0303,0.0,0.0,0.0,0.0,0.0,0.0,0.0,0.0,0.0,0.0,0.0,0.0,0.0,0.0,0.0,0.0,0.0,0.0,0.0,0.0,0.0,0.0,0.0,0.0,0.0,0.0,0.0,0.0,0.0,0.0,0.0,0.0,0.0,0.0,0.0,0.0,0.0,0.0,0.0,0.0,0.0,0.0,0.0,0.0,0.0,0.0,-0.0404,-0.2622,-0.4734,-0.6843,-0.9155,-1.1273,-1.289,-1.289,-1.289,-1.289,-1.289,-1.289,-1.289,-1.289,-1.289,-1.289,-1.289,-1.289,-1.289,-1.289,-0.9256,-0.6439,-0.6439,-0.2722,0.0,0.0,0.0,0.0,0.0,0.0,0.0,0.0,0.0,0.0,0.0,0.0,0.0,0.0,0.0,0.0,0.0,0.0,0.0,0.0,0.0,0.0,0.0,0.0,0.0,0.0,0.0,0.0,0.0,0.0,0.0,0.0,0.0,0.0,0.0,0.0,0.0,0.0,0.323,0.2928,0.2626,0.2424,0.1616,0.101,0.0808,0.0303,0.0,0.0,0.0,0.0,0.0,0.0,0.0,0.0,0.0,0.0,0.0,0.0,0.0,0.0,0.0,0.0,0.0,0.0,0.0,0.0,0.0,0.0,0.0,0.0,0.0,0.0,0.0,0.0,0.0,0.0,0.0,0.0,0.0,0.0,0.0,0.0,0.0,0.0,0.0,0.0,0.0,0.0,0.0,0.0,0.0,0.0,-0.0713,-0.4339,-0.5939,-0.7245,-1.0968,-1.2384,-1.289,-1.289,-1.289,-1.289,-1.289,-1.289,-1.289,-1.289,-1.289,-1.289,-1.289,-1.289,-1.289,-1.289,-1.0567,-0.8149,-0.6643,-0.403,-0.1715,-0.0202,0.0,0.0,0.0,0.0,0.0,0.0,0.0,0.0,0.0,0.0,0.0,0.0,0.0,0.0,0.0,0.0,0.0,0.0,0.0,0.0,0.0,0.0,0.0,0.0,0.0,0.0,0.0,0.0,0.0,0.0,0.0,0.0,0.0,0.0,0.0,0.0103,0.323,0.2726,0.2323,0.2121,0.1414,0.0707,0.0505,0.0202,0.0,0.0,0.0,0.0,0.0,0.0,0.0,0.0,0.0,0.0,0.0,0.0,0.0,0.0,0.0,0.0,0.0,0.0,0.0,0.0,0.0,0.0,0.0,0.0,0.0,0.0,0.0,0.0,0.0,0.0,0.0,0.0,0.0,0.0,0.0,0.0,0.0,0.0,0.0,0.0,0.0,0.0,0.0,0.0,0.0,-0.0611,-0.1931,-0.5345,-0.7044,-0.845,-1.1979,-1.289,-1.289,-1.289,-1.289,-1.289,-1.289,-1.289,-1.289,-1.289,-1.289,-1.289,-1.289,-1.289,-1.289,-1.289,-1.1068,-0.8955,-0.6743,-0.4533,-0.2421,-0.0303,0.0,0.0,0.0,0.0,0.0,0.0,0.0,0.0,0.0,0.0,0.0,0.0,0.0,0.0,0.0,0.0,0.0,0.0,0.0,0.0,0.0,0.0,0.0,0.0,0.0,0.0,0.0,0.0,0.0,0.0,0.0,0.0,0.0,0.0,0.0,0.0103,0.323,0.2726,0.2222,0.1717,0.1111,0.0606,0.0101,0.0,0.0,0.0,0.0,0.0,0.0,0.0,0.0,0.0,0.0,0.0,0.0,0.0,0.0,0.0,0.0,0.0,0.0,0.0,0.0,0.0,0.0,0.0,0.0,0.0,0.0,0.0,0.0,0.0,0.0,0.0,0.0,0.0,0.0,0.0,0.0,0.0,0.0,0.0,0.0,0.0,0.0,0.0,0.0,0.0,0.0,-0.1515,-0.3633,-0.5738,-0.7948,-1.0162,-1.2284,-1.289,-1.289,-1.289,-1.289,-1.289,-1.289,-1.289,-1.289,-1.289,-1.289,-1.289,-1.289,-1.289,-1.289,-1.289,-1.1068,-0.8955,-0.6743,-0.4533,-0.2421,-0.0303,0.0,0.0,0.0,0.0,0.0,0.0,0.0,0.0,0.0,0.0,0.0,0.0,0.0,0.0,0.0,0.0,0.0,0.0,0.0,0.0,0.0,0.0,0.0,0.0,0.0,0.0,0.0,0.0,0.0,0.0,0.0,0.0,0.0,0.0,0.0,0.0104,0.323,0.2423,0.1717,0.1616,0.0808,0.0101,0.0,0.0,0.0,0.0,0.0,0.0,0.0,0.0,0.0,0.0,0.0,0.0,0.0,0.0,0.0,0.0,0.0,0.0,0.0,0.0,0.0,0.0,0.0,0.0,0.0,0.0,0.0,0.0,0.0,0.0,0.0,0.0,0.0,0.0,0.0,0.0,0.0,0.0,0.0,0.0,0.0,0.0,0.0,0.0,0.0,0.0,0.0,-0.1522,-0.3664,-0.575,-0.7948,-1.0162,-1.2284,-1.289,-1.289,-1.289,-1.289,-1.289,-1.289,-1.289,-1.289,-1.289,-1.289,-1.289,-1.289,-1.289,-1.289,-1.289,-1.1068,-0.8955,-0.6743,-0.4533,-0.2421,-0.0303,0.0,0.0,0.0,0.0,0.0,0.0,0.0,0.0,0.0,0.0,0.0,0.0,0.0,0.0,0.0,0.0,0.0,0.0,0.0,0.0,0.0,0.0,0.0,0.0,0.0,0.0,0.0,0.0,0.0,0.0,0.0,0.0,0.0,0.0,0.0,0.0104,0.2827,0.1919,0.1212,0.1212,0.0505,0.0,0.0,0.0,0.0,0.0,0.0,0.0,0.0,0.0,0.0,0.0,0.0,0.0,0.0,0.0,0.0,0.0,0.0,0.0,0.0,0.0,0.0,0.0,0.0,0.0,0.0,0.0,0.0,0.0,0.0,0.0,0.0,0.0,0.0,0.0,0.0,0.0,0.0,0.0,0.0,0.0,0.0,0.0,0.0,0.0,0.0,0.0,0.0,-0.1518,-0.3371,-0.4569,-0.6403,-0.8361,-0.9482,-0.9787,-1.0096,-1.1116,-1.1425,-1.17,-1.2711,-1.289,-1.289,-1.289,-1.289,-1.2584,-1.1573,-1.1373,-1.1068,-0.9961,-0.8854,-0.7346,-0.5137,-0.3931,-0.2421,-0.0303,0.0,0.0,0.0,0.0,0.0,0.0,0.0,0.0,0.0,0.0,0.0,0.0,0.0,0.0,0.0,0.0,0.0,0.0,0.0,0.0,0.0,0.0,0.0,0.0,0.0,0.0,0.0,0.0,0.0,0.0,0.0,0.0,0.0,0.0,0.0312,0.0948,0.2424,0.1515,0.0808,0.0808,0.0404,0.0,0.0,0.0,0.0,0.0,0.0,0.0,0.0,0.0,0.0,0.0,0.0,0.0,0.0,0.0,0.0,0.0,0.0,0.0,0.0,0.0,0.0,0.0,0.0,0.0,0.0,0.0,0.0,0.0,0.0,0.0,0.0,0.0,0.0,0.0,0.0,0.0,0.0,0.0,0.0,0.0,0.0,0.0,0.0,0.0,0.0,0.0,0.0,-0.1514,-0.3171,-0.3175,-0.4736,-0.6415,-0.6415,-0.6415,-0.6931,-0.9205,-0.9827,-1.0304,-1.2483,-1.295,-1.295,-1.295,-1.2933,-1.231,-1.0087,-0.9669,-0.8955,-0.6743,-0.6439,-0.5637,-0.3528,-0.3227,-0.2421,-0.0303,0.0,0.0,0.0,0.0,0.0,0.0,0.0,0.0,0.0,0.0,0.0,0.0,0.0,0.0,0.0,0.0,0.0,0.0,0.0,0.0,0.0,0.0,0.0,0.0,0.0,0.0,0.0,0.0,0.0,0.0,0.0,0.0,0.0,0.0104,0.0841,0.1812,0.2424,0.1515,0.0808,0.0808,0.0404,0.0,0.0,0.0,0.0,0.0,0.0,0.0,0.0,0.0,0.0,0.0,0.0,0.0,0.0,0.0,0.0,0.0,0.0,0.0,0.0,0.0,0.0,0.0,0.0,0.0,0.0,0.0,0.0,0.0,0.0,0.0,0.0,0.0,0.0,0.0,0.0,0.0,0.0,0.0,0.0,0.0,0.0,0.0,0.0,0.0,0.0,0.0,0.0,-0.1522,-0.3175,-0.3197,-0.4757,-0.6415,-0.6415,-0.6415,-0.6931,-0.9205,-0.9827,-1.0441,-1.2682,-1.3189,-1.3189,-1.3189,-1.3113,-1.2434,-1.0185,-0.9714,-0.8955,-0.6743,-0.6439,-0.5637,-0.3528,-0.3227,-0.2421,-0.0303,0.0,0.0,0.0,0.0,0.0,0.0,0.0,0.0,0.0,0.0,0.0,0.0,0.0,0.0,0.0,0.0,0.0,0.0,0.0,0.0,0.0,0.0,0.0,0.0,0.0,0.0,0.0,0.0,0.0,0.0,0.0,0.0,0.0103,0.0626,0.1162,0.1812,0.1515,0.0909,0.0303,0.0303,0.0202,0.0,0.0,0.0,0.0,0.0,0.0,0.0,0.0,0.0,0.0,0.0,0.0,0.0,0.0,0.0,0.0,0.0,0.0,0.0,0.0,0.0,0.0,0.0,0.0,0.0,0.0,0.0,0.0,0.0,0.0,0.0,0.0,0.0,0.0,0.0,0.0,0.0,0.0,0.0,0.0,0.0,0.0,0.0,0.0,0.0,0.0,0.0,0.0,-0.0609,-0.1445,-0.145,-0.2088,-0.2839,-0.2839,-0.2839,-0.3365,-0.5673,-0.7145,-0.8402,-0.9345,-1.06,-1.1512,-1.1297,-1.2272,-1.1706,-0.6948,-0.7122,-0.6797,-0.3352,-0.2845,-0.2444,-0.1536,-0.1435,-0.1025,-0.0103,0.0,0.0,0.0,0.0,0.0,0.0,0.0,0.0,0.0,0.0,0.0,0.0,0.0,0.0,0.0,0.0,0.0,0.0,0.0,0.0,0.0,0.0,0.0,0.0,0.0,0.0,0.0,0.0,0.0,0.0,0.0,0.0,0.0104,0.1055,0.1487,0.1812]}]]